[[{"header":{"parameterUnit":"m.s-1","parameterCategory":1,"la1":30.6,"la2":29.2853,"lo1":-89.7004,"lo2":-87.6739,"dx":0.0162,"dy":0.0183,"nx":112,"ny":82,"refTime":"2023-01-24T18:00:00:Z","depth":0,"parameterNumber":2,"parameterNumberName":"U-component_of_WINDS"},"data":[0.0,0.0,0.0,0.0,0.0,0.0,0.0,0.0,0.0,0.0,0.0,0.0,0.0,0.0,0.0,0.0,0.0,0.0,0.0,0.0,0.0,0.0,0.0,0.0,0.0,0.0,0.0,0.0,0.0,0.0,0.0,0.0,0.0,0.0,0.0,0.0,0.0,0.0,0.0,0.0,0.0,0.0,0.0,0.0,0.0,0.0,0.0,0.0,0.0,0.0,0.0,0.0,0.0,0.0,0.0,0.0,0.0,0.0,0.0,0.0,0.0,0.0,0.0,0.0,0.0,0.0,0.0,0.0,0.0,0.0,0.0,0.0,0.0,0.0,0.0,0.0,0.0,0.0,0.0,0.0,0.0,0.0,0.0,0.0,0.0,0.0,0.0,0.0,0.0,0.0,3.5205,3.5205,3.5205,3.5205,3.5205,3.5257,3.5265,3.5209,0.0,0.0,0.0,0.0,0.0,0.0,0.0,0.0,0.0,0.0,0.0,0.0,0.0,0.0,0.0,0.0,0.0,0.0,0.0,0.0,0.0,0.0,0.0,0.0,0.0,0.0,0.0,0.0,0.0,0.0,0.0,0.0,0.0,0.0,0.0,0.0,0.0,0.0,0.0,0.0,0.0,0.0,0.0,0.0,0.0,0.0,0.0,0.0,0.0,0.0,0.0,0.0,0.0,0.0,0.0,0.0,0.0,0.0,0.0,0.0,0.0,0.0,0.0,0.0,0.0,0.0,0.0,0.0,0.0,0.0,0.0,0.0,0.0,0.0,0.0,0.0,0.0,0.0,0.0,0.0,0.0,0.0,0.0,0.0,0.0,0.0,0.0,0.0,0.0,0.0,0.0,0.0,0.0,0.0,0.0,0.0,0.0,0.0,0.0,0.0,0.0,0.0,0.0,0.0,3.5205,3.5205,3.5205,3.5205,3.5205,3.5213,3.5213,3.5205,0.0,0.0,0.0,0.0,0.0,0.0,0.0,0.0,0.0,0.0,0.0,0.0,0.0,0.0,0.0,0.0,0.0,0.0,0.0,0.0,0.0,0.0,0.0,0.0,0.0,0.0,0.0,0.0,0.0,0.0,0.0,0.0,0.0,0.0,0.0,0.0,0.0,0.0,0.0,0.0,0.0,0.0,0.0,0.0,0.0,0.0,0.0,0.0,0.0,0.0,0.0,0.0,0.0,0.0,0.0,0.0,0.0,0.0,0.0,0.0,0.0,0.0,0.0,0.0,0.0,0.0,0.0,0.0,0.0,0.0,0.0,0.0,0.0,0.0,0.0,0.0,0.0,0.0,0.0,0.0,0.0,0.0,0.0,0.0,0.0,0.0,0.0,0.0,0.0,0.0,0.0,0.0,0.0,0.0,0.0,0.0,0.0,0.0,0.0,0.0,0.0,0.0,0.0,3.5136,3.5205,3.5205,3.5205,3.5205,3.5205,3.5205,3.5205,3.5205,3.5226,0.0,0.0,0.0,0.0,0.0,0.0,0.0,0.0,0.0,0.0,0.0,0.0,0.0,0.0,0.0,0.0,0.0,0.0,0.0,0.0,0.0,0.0,0.0,0.0,0.0,0.0,0.0,0.0,0.0,0.0,0.0,0.0,0.0,0.0,0.0,0.0,0.0,0.0,0.0,0.0,0.0,0.0,0.0,0.0,0.0,0.0,0.0,0.0,0.0,0.0,0.0,0.0,0.0,0.0,0.0,0.0,0.0,0.0,0.0,0.0,0.0,0.0,0.0,0.0,0.0,0.0,0.0,0.0,0.0,0.0,0.0,0.0,0.0,0.0,0.0,0.0,0.0,0.0,0.0,0.0,0.0,0.0,0.0,0.0,0.0,0.0,0.0,0.0,0.0,0.0,0.0,0.0,0.0,0.0,0.0,0.0,0.0,0.0,0.0,0.0,0.0,0.0,3.5066,3.5075,3.5197,3.5205,3.5205,3.5205,3.5205,3.5205,3.5205,3.5205,0.0,0.0,0.0,0.0,0.0,0.0,0.0,0.0,0.0,0.0,0.0,0.0,0.0,0.0,0.0,0.0,0.0,0.0,0.0,0.0,0.0,0.0,0.0,0.0,0.0,0.0,0.0,0.0,0.0,0.0,0.0,0.0,0.0,0.0,0.0,0.0,0.0,0.0,0.0,0.0,0.0,0.0,0.0,0.0,0.0,0.0,0.0,0.0,0.0,0.0,0.0,0.0,0.0,0.0,0.0,0.0,0.0,0.0,0.0,0.0,0.0,0.0,0.0,0.0,0.0,0.0,0.0,0.0,0.0,0.0,0.0,0.0,0.0,0.0,0.0,0.0,0.0,0.0,0.0,0.0,0.0,0.0,0.0,0.0,0.0,0.0,0.0,0.0,0.0,0.0,0.0,0.0,0.0,0.0,0.0,0.0,0.0,0.0,0.0,0.0,0.0,0.0,3.4699,3.471,3.5153,3.5205,3.5205,3.5205,3.5205,3.5205,3.5205,3.5205,0.0,0.0,0.0,0.0,0.0,0.0,0.0,0.0,0.0,0.0,0.0,0.0,0.0,0.0,0.0,0.0,0.0,0.0,0.0,0.0,0.0,0.0,0.0,0.0,0.0,0.0,0.0,0.0,0.0,0.0,0.0,0.0,0.0,0.0,0.0,0.0,0.0,0.0,0.0,0.0,0.0,0.0,0.0,0.0,0.0,0.0,0.0,0.0,0.0,0.0,0.0,0.0,0.0,0.0,0.0,0.0,0.0,0.0,0.0,0.0,0.0,0.0,0.0,0.0,0.0,0.0,0.0,0.0,0.0,0.0,0.0,0.0,0.0,0.0,0.0,0.0,0.0,0.0,0.0,0.0,0.0,0.0,0.0,0.0,0.0,0.0,0.0,0.0,0.0,0.0,0.0,0.0,0.0,0.0,0.0,0.0,0.0,0.0,0.0,0.0,0.0,0.0,3.4803,3.486,0.0,3.5205,3.5205,3.5205,3.5205,3.5205,3.5205,0.0,0.0,0.0,0.0,0.0,0.0,0.0,0.0,0.0,0.0,0.0,0.0,0.0,0.0,0.0,0.0,0.0,0.0,0.0,0.0,0.0,0.0,0.0,0.0,0.0,0.0,0.0,0.0,0.0,0.0,0.0,0.0,0.0,0.0,0.0,0.0,0.0,0.0,0.0,0.0,0.0,0.0,0.0,0.0,0.0,0.0,0.0,0.0,0.0,0.0,0.0,0.0,0.0,0.0,0.0,0.0,0.0,0.0,0.0,0.0,0.0,0.0,0.0,0.0,0.0,0.0,0.0,0.0,0.0,0.0,0.0,0.0,0.0,0.0,0.0,0.0,0.0,0.0,0.0,0.0,0.0,0.0,0.0,0.0,0.0,0.0,0.0,0.0,0.0,0.0,0.0,0.0,0.0,0.0,0.0,0.0,0.0,0.0,0.0,0.0,0.0,0.0,3.462,3.4691,3.4753,0.0,3.5049,3.5102,3.5102,3.5153,3.5205,3.5205,0.0,0.0,0.0,0.0,0.0,0.0,0.0,0.0,0.0,0.0,0.0,0.0,0.0,0.0,0.0,0.0,0.0,0.0,0.0,0.0,0.0,0.0,0.0,0.0,0.0,0.0,0.0,0.0,0.0,0.0,0.0,0.0,0.0,0.0,0.0,0.0,0.0,0.0,0.0,0.0,0.0,0.0,0.0,0.0,0.0,0.0,0.0,0.0,0.0,0.0,0.0,0.0,0.0,0.0,0.0,0.0,0.0,0.0,0.0,0.0,0.0,0.0,0.0,0.0,0.0,0.0,0.0,0.0,0.0,0.0,0.0,0.0,0.0,0.0,0.0,0.0,0.0,0.0,0.0,0.0,0.0,0.0,0.0,0.0,0.0,0.0,0.0,0.0,0.0,0.0,0.0,0.0,0.0,0.0,0.0,0.0,0.0,0.0,0.0,0.0,0.0,0.0,3.4167,3.4203,3.428,3.4481,3.4743,3.4903,3.4903,3.5081,3.5201,0.0,0.0,0.0,0.0,0.0,0.0,0.0,0.0,0.0,0.0,0.0,0.0,0.0,0.0,0.0,0.0,0.0,0.0,0.0,0.0,0.0,0.0,0.0,0.0,0.0,0.0,0.0,0.0,0.0,0.0,0.0,0.0,0.0,0.0,0.0,0.0,0.0,0.0,0.0,0.0,0.0,0.0,0.0,0.0,0.0,0.0,0.0,0.0,0.0,0.0,0.0,0.0,0.0,0.0,0.0,0.0,0.0,0.0,0.0,0.0,0.0,0.0,0.0,0.0,0.0,0.0,0.0,0.0,0.0,0.0,0.0,0.0,0.0,0.0,0.0,0.0,0.0,0.0,0.0,0.0,0.0,0.0,0.0,0.0,0.0,0.0,0.0,0.0,0.0,0.0,0.0,0.0,0.0,0.0,0.0,0.0,0.0,0.0,0.0,0.0,0.0,0.0,0.0,3.4167,3.4203,3.428,3.4481,3.4566,3.4627,3.4627,3.4841,3.4996,3.4996,0.0,0.0,0.0,0.0,0.0,0.0,0.0,0.0,0.0,0.0,0.0,0.0,0.0,0.0,0.0,0.0,0.0,0.0,0.0,0.0,0.0,0.0,0.0,0.0,0.0,0.0,0.0,0.0,0.0,0.0,0.0,0.0,0.0,0.0,0.0,0.0,0.0,0.0,0.0,0.0,0.0,0.0,0.0,0.0,0.0,0.0,0.0,0.0,0.0,0.0,0.0,0.0,0.0,0.0,0.0,0.0,0.0,0.0,0.0,0.0,0.0,0.0,0.0,0.0,0.0,0.0,0.0,0.0,0.0,0.0,0.0,0.0,0.0,0.0,0.0,0.0,0.0,0.0,0.0,0.0,0.0,0.0,0.0,0.0,0.0,0.0,0.0,0.0,0.0,0.0,0.0,0.0,0.0,0.0,0.0,0.0,0.0,0.0,0.0,0.0,0.0,0.0,3.4017,3.4042,3.4087,3.4201,3.4325,3.4383,3.4383,3.4601,3.4743,3.4743,0.0,0.0,0.0,0.0,0.0,0.0,0.0,0.0,0.0,0.0,0.0,0.0,0.0,0.0,0.0,0.0,0.0,0.0,0.0,0.0,0.0,0.0,0.0,0.0,0.0,0.0,0.0,0.0,0.0,0.0,0.0,0.0,0.0,0.0,0.0,0.0,0.0,0.0,0.0,0.0,0.0,0.0,0.0,0.0,0.0,0.0,0.0,0.0,0.0,0.0,0.0,0.0,0.0,0.0,0.0,0.0,0.0,0.0,0.0,0.0,0.0,0.0,0.0,0.0,0.0,0.0,0.0,0.0,0.0,0.0,0.0,0.0,0.0,0.0,0.0,0.0,0.0,0.0,0.0,0.0,0.0,0.0,0.0,0.0,0.0,0.0,0.0,0.0,0.0,0.0,0.0,0.0,0.0,0.0,0.0,0.0,0.0,0.0,0.0,0.0,0.0,0.0,3.3782,3.3807,3.3807,3.3807,3.4017,3.4167,3.4167,3.436,3.4475,3.4475,0.0,0.0,0.0,0.0,0.0,0.0,0.0,0.0,0.0,0.0,0.0,0.0,0.0,0.0,0.0,0.0,0.0,0.0,0.0,0.0,0.0,0.0,0.0,0.0,0.0,0.0,0.0,0.0,0.0,0.0,0.0,0.0,0.0,0.0,0.0,0.0,0.0,0.0,0.0,0.0,0.0,0.0,0.0,0.0,0.0,0.0,0.0,0.0,0.0,0.0,0.0,0.0,0.0,0.0,0.0,0.0,0.0,0.0,0.0,0.0,3.5402,0.0,0.0,0.0,0.0,0.0,0.0,0.0,0.0,0.0,0.0,0.0,0.0,0.0,0.0,0.0,0.0,0.0,0.0,0.0,0.0,0.0,0.0,0.0,0.0,0.0,0.0,0.0,0.0,0.0,0.0,0.0,0.0,0.0,0.0,0.0,0.0,0.0,0.0,0.0,0.0,0.0,3.3807,3.3807,3.3807,3.3807,3.3842,3.3881,3.3881,3.4111,3.4262,3.4262,3.4472,0.0,0.0,0.0,0.0,0.0,0.0,0.0,0.0,0.0,0.0,0.0,0.0,0.0,0.0,0.0,0.0,0.0,0.0,0.0,0.0,0.0,0.0,0.0,0.0,0.0,0.0,0.0,0.0,0.0,0.0,0.0,0.0,0.0,0.0,0.0,0.0,0.0,0.0,0.0,0.0,0.0,0.0,0.0,0.0,0.0,0.0,0.0,0.0,0.0,0.0,0.0,0.0,0.0,0.0,0.0,0.0,0.0,0.0,0.0,0.0,3.5419,0.0,0.0,0.0,0.0,0.0,0.0,0.0,0.0,0.0,0.0,0.0,0.0,0.0,0.0,0.0,0.0,0.0,0.0,0.0,0.0,0.0,0.0,0.0,0.0,0.0,0.0,0.0,0.0,0.0,0.0,0.0,0.0,0.0,0.0,0.0,0.0,0.0,0.0,0.0,0.0,3.3782,3.3807,3.3807,3.3807,3.3807,3.3807,3.3807,3.3927,3.4004,3.4004,3.4239,0.0,0.0,0.0,0.0,0.0,0.0,0.0,0.0,0.0,0.0,0.0,0.0,0.0,0.0,0.0,0.0,0.0,0.0,0.0,0.0,0.0,0.0,0.0,0.0,0.0,0.0,0.0,0.0,0.0,0.0,0.0,0.0,0.0,0.0,0.0,0.0,0.0,0.0,0.0,0.0,0.0,0.0,0.0,0.0,0.0,0.0,0.0,0.0,0.0,0.0,0.0,0.0,0.0,3.8906,3.9134,3.9217,4.0425,4.0394,3.9383,3.9486,3.8031,3.5584,3.5702,0.0,0.0,0.0,0.0,0.0,0.0,0.0,0.0,0.0,0.0,0.0,0.0,0.0,0.0,0.0,0.0,0.0,0.0,0.0,0.0,0.0,0.0,3.2053,3.1749,3.1739,3.1868,3.2144,0.0,0.0,0.0,0.0,0.0,0.0,0.0,0.0,0.0,0.0,0.0,3.3793,3.3807,3.3807,3.3807,3.3807,3.3807,3.3807,3.3807,3.3807,3.3807,3.4004,3.413,0.0,0.0,0.0,0.0,0.0,0.0,0.0,0.0,0.0,0.0,0.0,0.0,0.0,0.0,0.0,0.0,0.0,0.0,0.0,0.0,0.0,0.0,0.0,0.0,0.0,0.0,0.0,0.0,0.0,0.0,0.0,0.0,3.2566,3.1343,0.0,0.0,0.0,0.0,0.0,0.0,0.0,0.0,0.0,0.0,0.0,0.0,0.0,3.7601,3.7893,3.9804,4.0828,4.0959,4.2943,4.4013,4.4249,4.4441,4.449,4.4436,4.4462,0.0,3.7969,3.9334,0.0,0.0,0.0,0.0,0.0,0.0,0.0,0.0,0.0,0.0,0.0,0.0,0.0,0.0,0.0,0.0,0.0,0.0,0.0,0.0,0.0,0.0,3.4103,3.2026,3.1437,3.1391,3.1449,3.1896,3.2222,3.1932,3.2196,0.0,0.0,0.0,0.0,0.0,0.0,0.0,3.3807,3.3807,3.3807,3.3807,3.3807,3.3807,3.3807,3.3807,3.3807,3.3807,3.3822,3.3848,3.3848,3.3848,0.0,0.0,0.0,0.0,0.0,0.0,0.0,0.0,0.0,0.0,0.0,0.0,0.0,0.0,0.0,0.0,0.0,0.0,0.0,0.0,0.0,0.0,0.0,0.0,0.0,0.0,0.0,0.0,0.0,3.1495,3.2188,3.13,3.219,3.2445,0.0,0.0,0.0,0.0,0.0,0.0,0.0,0.0,0.0,3.9715,3.9754,4.0375,4.1657,4.2638,4.3139,4.3206,4.4207,4.4789,4.4981,4.4981,4.5086,4.5287,4.5287,4.4156,4.224,4.1626,4.0235,3.8494,0.0,0.0,0.0,0.0,3.6938,3.7137,3.8493,3.8671,3.8544,4.0031,0.0,0.0,0.0,0.0,0.0,0.0,0.0,3.4789,3.3726,3.4155,3.4284,3.1935,3.132,3.1242,3.1242,3.1468,3.1711,3.1803,3.1931,3.2188,3.2781,0.0,0.0,0.0,0.0,3.376,3.3807,3.3807,3.3807,3.3807,3.3807,3.3807,3.3807,3.3807,3.3807,3.3807,3.3807,3.3807,3.3807,3.3807,3.3867,0.0,0.0,0.0,0.0,0.0,0.0,0.0,0.0,0.0,0.0,0.0,0.0,0.0,0.0,0.0,0.0,0.0,0.0,0.0,0.0,0.0,0.0,0.0,0.0,0.0,0.0,0.0,0.0,3.1412,3.2393,3.1834,3.2658,3.3117,0.0,0.0,0.0,0.0,0.0,0.0,3.8722,3.9094,4.0172,4.2016,4.2066,4.2892,4.4567,4.4615,4.4615,4.4615,4.4615,4.4668,4.4789,4.4789,4.4954,4.519,4.519,4.5274,4.5259,4.3507,4.1796,4.0253,4.0153,4.0117,4.0048,3.9465,3.9243,3.9506,4.1302,4.152,4.124,4.2467,4.2017,4.0796,3.9697,0.0,0.0,0.0,0.0,3.6537,3.5944,3.5708,3.5025,3.2716,3.1695,3.123,3.12,3.12,3.1291,3.1654,3.1638,3.1805,3.246,0.0,0.0,0.0,0.0,3.3746,3.3782,3.3807,3.3807,3.3807,3.3807,3.3807,3.3807,3.3807,3.3807,3.3807,3.3807,3.3807,3.3807,3.3807,3.3807,3.3807,0.0,0.0,0.0,0.0,0.0,0.0,0.0,0.0,0.0,0.0,0.0,0.0,0.0,0.0,0.0,0.0,0.0,0.0,0.0,0.0,0.0,0.0,0.0,0.0,0.0,0.0,0.0,0.0,0.0,3.3421,3.4557,0.0,0.0,0.0,0.0,3.7567,3.9136,4.0303,4.1001,4.2358,4.3521,4.4398,4.4429,4.4482,4.4615,4.4615,4.4615,4.4615,4.4615,4.4668,4.4789,4.4789,4.4954,4.519,4.519,4.5274,4.5397,4.5276,4.5156,4.5052,4.5039,4.5039,4.4781,4.2617,4.1819,4.1836,4.194,4.1969,4.2302,4.4514,4.3691,4.1823,4.1754,4.0126,0.0,0.0,3.9833,4.0959,3.8786,3.8128,3.7433,3.5097,3.2866,3.1283,3.122,3.12,3.12,3.123,3.1274,3.1458,3.1876,0.0,3.283,3.3175,3.3555,3.3807,3.3807,3.3807,3.3807,3.3807,3.3807,3.3807,3.3807,3.3807,3.3807,3.3807,3.3807,3.3807,3.3807,3.3807,3.3807,3.3807,3.3807,0.0,0.0,0.0,0.0,0.0,0.0,0.0,0.0,0.0,0.0,0.0,0.0,0.0,0.0,0.0,0.0,0.0,0.0,0.0,0.0,0.0,0.0,0.0,0.0,0.0,0.0,0.0,0.0,3.3734,3.6176,0.0,3.7532,3.8294,3.9157,3.9956,4.1877,4.3112,4.3366,4.389,4.4296,4.4584,4.4615,4.4615,4.4615,4.4615,4.4615,4.4615,4.4615,4.4668,4.4789,4.4789,4.4899,4.5073,4.515,4.5234,4.5274,4.5353,4.5397,4.5397,4.5397,4.5397,4.5294,4.4497,4.4186,4.4186,4.4186,4.4186,4.4324,4.5139,4.4832,4.3876,4.2408,4.1404,4.0725,4.0659,4.1177,4.1606,4.0788,3.9359,3.7581,3.5364,3.2988,3.1222,3.121,3.12,3.12,3.12,3.123,3.1341,3.1703,3.1976,3.2248,3.2635,3.3108,3.3404,3.3404,3.3634,3.3807,3.3807,3.3807,3.3807,3.3807,3.3807,3.3807,3.3807,3.3807,3.3807,3.3807,3.3807,3.3807,3.3807,3.3807,3.3807,0.0,0.0,0.0,0.0,0.0,0.0,0.0,0.0,0.0,0.0,0.0,0.0,0.0,0.0,0.0,0.0,0.0,0.0,0.0,0.0,0.0,0.0,0.0,0.0,0.0,0.0,3.536,3.5258,3.7573,3.9242,3.9394,4.05,4.1525,4.2286,4.3755,4.4615,4.4615,4.4615,4.4615,4.4615,4.4615,4.4615,4.4615,4.4615,4.4615,4.4615,4.4615,4.4668,4.4789,4.4789,4.4899,4.5073,4.515,4.5234,4.5274,4.5353,4.5397,4.5397,4.5397,4.5397,4.5397,4.5397,4.5397,4.5397,4.5397,4.5397,4.5397,4.5397,4.5397,4.5121,4.3613,4.3147,4.3122,4.3034,4.2983,4.2945,4.2945,4.0544,3.775,3.633,3.3529,3.12,3.12,3.12,3.12,3.12,3.12,3.1281,3.1517,3.1696,3.1906,3.2214,3.2666,3.3022,3.3184,3.3419,3.3659,3.3793,3.3807,3.3807,3.3807,3.3807,3.3807,3.3807,3.3807,3.3807,3.3807,3.3807,3.3807,3.3807,3.3807,3.3807,3.3807,0.0,0.0,0.0,0.0,0.0,0.0,0.0,0.0,0.0,0.0,0.0,0.0,0.0,0.0,0.0,0.0,0.0,0.0,0.0,0.0,0.0,0.0,0.0,3.5123,3.6491,3.761,3.81,3.8794,4.0095,4.2272,4.1755,4.2219,4.4432,4.4615,4.4615,4.4615,4.4615,4.4615,4.4615,4.4615,4.4615,4.4615,4.4615,4.4615,4.4615,4.4615,4.4668,4.4789,4.4789,4.4937,4.519,4.519,4.5274,4.5397,4.5397,4.5397,4.5397,4.5397,4.5397,4.5397,4.5397,4.5397,4.5397,4.5397,4.5397,4.5397,4.5397,4.5397,4.5397,4.5397,4.5397,4.5397,4.5397,4.5287,4.519,4.519,4.1667,3.8101,3.8101,3.4563,3.12,3.12,3.12,3.12,3.12,3.12,3.123,3.1293,3.1575,3.1842,3.1967,3.2256,0.0,3.309,3.3184,3.3346,3.3734,3.3818,3.3825,3.3807,3.3825,3.3825,3.3807,3.3807,3.3807,3.3807,3.3807,3.3807,3.3807,3.3807,3.3782,3.3775,0.0,0.0,0.0,0.0,0.0,0.0,0.0,0.0,0.0,0.0,0.0,0.0,0.0,0.0,0.0,0.0,0.0,0.0,0.0,0.0,0.0,0.0,3.6215,3.4881,3.6724,3.8428,3.9041,4.0986,4.2727,4.3883,4.3793,4.3924,4.4564,4.4615,4.4615,4.4615,4.4615,4.4615,4.4615,4.4615,4.4615,4.4615,4.4615,4.4615,4.4615,4.4615,4.4612,4.4654,4.4654,4.4751,4.4927,4.5005,4.5127,4.5261,4.5371,4.5397,4.5397,4.5397,4.5397,4.5397,4.5397,4.5397,4.5397,4.5397,4.5397,4.5397,4.5397,4.5397,4.5397,4.5397,4.5397,4.5384,4.5274,4.5154,4.5073,4.5163,4.1609,3.7995,3.8189,3.4638,3.12,3.12,3.12,3.12,3.12,3.12,3.121,3.1213,3.1293,3.138,3.1408,3.1759,0.0,3.217,3.2785,3.3243,3.3346,3.4143,3.4424,3.3844,3.4332,3.4417,3.3844,3.3807,3.3807,3.3807,3.3807,3.3807,3.3807,3.3807,3.368,0.0,0.0,0.0,0.0,0.0,0.0,0.0,0.0,0.0,0.0,0.0,0.0,0.0,0.0,0.0,0.0,0.0,0.0,0.0,0.0,0.0,0.0,3.7414,3.8338,3.7169,3.8369,3.9486,3.9865,4.1528,4.2831,4.3259,4.356,4.3724,4.3724,4.3989,4.415,4.415,4.4426,4.4615,4.4615,4.4615,4.4615,4.4615,4.4615,4.4615,4.4615,4.4615,4.4626,4.4682,4.4682,4.4765,4.4899,4.5019,4.514,4.5203,4.534,4.5397,4.5397,0.0,0.0,0.0,0.0,4.5397,4.5397,4.5397,4.5397,4.5397,4.5397,4.5397,4.5397,4.5397,4.5397,4.5384,4.53,4.5194,4.51,4.5177,4.1605,3.8019,3.8178,3.4627,3.12,3.12,3.12,3.12,3.12,3.12,0.0,3.12,3.12,3.12,3.12,3.1408,3.1621,3.178,3.245,3.2983,3.3184,3.428,3.4821,3.4351,3.5066,0.0,0.0,0.0,3.4853,3.4853,3.4853,0.0,0.0,0.0,3.4751,3.4553,3.4194,0.0,0.0,3.3126,3.247,0.0,0.0,0.0,0.0,0.0,0.0,0.0,0.0,0.0,0.0,0.0,0.0,0.0,0.0,0.0,0.0,3.9117,4.0489,4.0489,4.0489,4.0524,4.0595,4.1126,4.1525,4.1624,4.2221,4.2614,4.2614,4.3227,4.3616,4.3616,0.0,0.0,0.0,0.0,4.4615,4.4615,4.4615,4.4615,4.4615,4.4615,4.4654,4.4793,4.4793,4.4845,4.4978,4.5127,4.5194,4.5203,4.534,4.5397,4.5397,4.5397,4.5397,4.5397,4.5397,4.5397,4.5397,4.5397,0.0,0.0,4.5397,4.5397,4.5397,4.5397,4.5397,4.5397,4.5397,4.5287,4.5177,4.5207,4.1843,3.8452,3.8476,3.4936,3.1572,3.1572,3.1386,3.12,3.12,3.12,3.12,3.12,3.12,3.12,3.12,3.12,3.1322,3.1687,3.2214,3.2725,3.314,3.4393,0.0,3.5088,3.5907,3.6402,3.631,3.631,3.631,3.631,3.631,3.631,3.631,3.631,3.627,3.6241,3.5861,3.5503,3.5091,3.3052,3.2105,0.0,0.0,0.0,0.0,0.0,0.0,0.0,0.0,0.0,0.0,0.0,0.0,0.0,0.0,0.0,3.7383,3.9167,4.0489,4.0489,4.0489,4.0698,4.1243,4.141,4.1706,4.2253,4.2923,4.3302,4.3302,4.3989,4.4398,4.4398,4.4528,4.4615,4.4615,4.4615,4.4615,4.4615,4.4615,4.4615,4.4615,4.4615,0.0,4.464,4.464,4.4709,4.4845,4.4978,4.51,4.5203,4.534,4.5397,4.5397,4.5397,4.5397,4.5397,4.5397,4.5397,4.5397,4.5397,4.5397,4.5397,4.5397,4.5397,4.5397,4.5397,4.5397,0.0,4.5397,4.5238,4.5059,4.5163,4.2914,4.0625,4.0734,3.7232,3.3857,3.3857,3.2459,3.12,3.12,3.12,3.12,3.12,3.12,3.12,3.12,3.12,3.123,3.131,3.2247,3.2954,3.3107,3.5065,3.6148,3.561,3.6614,3.6989,3.6347,3.631,3.631,3.631,3.631,3.631,3.631,3.631,3.6139,3.5825,3.5737,3.5385,3.4781,3.4282,3.3908,0.0,0.0,0.0,0.0,0.0,0.0,0.0,0.0,0.0,0.0,0.0,3.441,0.0,0.0,3.7751,3.883,3.9828,4.0489,4.0489,4.0489,4.0612,4.0956,4.099,4.1259,4.1917,4.23,4.2645,4.2969,4.3647,4.4061,4.4061,4.4412,4.4615,4.4615,4.4615,4.4615,4.4615,4.4615,4.4615,4.4615,4.4615,4.4615,4.4615,4.4615,4.4626,4.4709,4.4845,4.4937,4.5019,4.522,4.5344,4.5397,4.5397,4.5397,4.5397,4.5397,4.5397,4.5397,4.5397,4.5397,4.5397,4.5397,4.5397,4.5397,4.5397,4.5357,4.53,4.53,4.51,4.4927,4.4978,4.3106,4.1217,4.1277,3.7829,3.45,3.45,3.2757,3.12,3.12,3.12,3.12,3.12,3.1505,3.1623,3.1268,3.1505,3.1742,3.1742,3.2865,3.3659,3.3706,3.5571,3.666,3.6329,3.7405,3.7925,3.7533,3.7496,3.7496,3.7496,3.7496,3.7496,3.7496,3.7496,3.741,3.7202,3.6796,3.6433,3.6094,3.5652,3.4973,0.0,0.0,0.0,0.0,0.0,0.0,0.0,0.0,3.3744,3.4516,3.5034,3.5858,3.7559,3.7963,3.8581,4.0228,4.0489,4.0489,4.0489,4.0489,4.0489,4.0489,4.0489,4.0715,4.1259,4.1426,4.1722,4.2269,4.3045,4.3497,4.3497,4.4193,4.4682,4.4804,4.4668,4.4682,4.4804,4.4668,4.4615,4.4615,4.4615,4.4615,4.4615,4.4615,4.4615,4.4615,4.4751,4.4831,4.4899,4.5113,4.5274,4.5397,4.5397,4.5397,4.5397,4.5397,4.5397,4.5397,4.5397,4.5397,4.5397,4.5397,4.5397,4.5397,4.5397,4.53,4.519,4.519,4.5005,4.4789,4.4789,4.3339,4.1745,4.1322,3.8108,3.503,3.4601,3.2757,3.12,3.12,3.1319,3.142,3.142,3.2029,3.2266,3.1522,3.2046,3.2503,3.2503,3.3605,3.4424,3.4513,3.599,3.7058,3.7231,3.8131,3.8699,3.8699,3.8699,3.8699,3.8699,3.8699,3.8699,3.8699,3.8619,3.8588,3.8588,3.7861,3.746,3.7377,3.6729,3.5738,0.0,0.0,0.0,3.0581,3.1865,3.3216,0.0,0.0,3.6206,3.6594,3.7969,3.9269,3.986,3.9992,4.0105,4.0441,4.0489,4.0489,4.0489,4.0489,4.0489,4.0489,4.0489,4.0524,4.0595,4.1142,4.1542,4.1624,4.2768,4.3497,4.3497,4.4193,4.4905,4.5568,4.4939,4.4905,4.5568,4.4939,4.4615,4.4615,4.4615,4.4615,4.4615,4.4615,4.4615,4.4615,4.4751,4.494,4.515,4.519,4.5274,4.5397,4.5397,4.5397,4.5397,4.5397,4.5397,4.5397,4.5397,4.5397,4.5397,4.5397,4.5397,4.5397,4.5397,4.53,4.519,4.519,4.5005,4.4789,4.4789,4.4523,4.3704,4.1677,3.9326,3.6975,3.4928,3.2757,3.12,3.12,3.1725,3.2175,3.2175,3.278,3.3034,3.2293,3.2797,3.3288,3.3288,3.409,3.4837,3.5315,3.6504,3.7585,3.8426,3.8629,3.8699,3.8699,3.8699,3.8699,3.8699,3.8699,3.8699,3.8699,3.8352,3.8178,3.8178,3.7712,3.7321,3.6968,3.687,3.6561,2.901,0.0,0.0,0.0,3.41,3.503,3.6447,3.7302,3.7959,3.8609,3.9351,3.996,4.0259,4.0312,4.0331,0.0,4.0489,4.0489,4.0489,4.0489,4.0489,4.0489,4.0489,4.0646,4.104,4.169,4.2446,4.331,4.4236,4.4957,4.5391,4.5708,4.5821,4.5703,4.5399,4.5382,4.5703,4.4973,4.4821,4.5229,4.4804,4.4615,4.4615,4.4615,4.4615,4.4598,4.4654,4.4789,4.4981,4.4981,4.5086,4.5287,4.5287,4.5327,4.5397,4.5397,4.5397,4.5397,4.5397,4.5397,4.5397,4.5397,4.5357,4.5287,4.5287,4.514,4.4981,4.4981,4.4831,4.4696,4.4776,4.4696,4.4036,4.1833,3.9574,3.728,3.4979,3.3095,3.1843,3.1843,3.2435,3.2933,3.2933,3.3541,3.3941,3.3637,3.384,3.4032,3.4032,3.479,3.5661,3.6458,3.7291,3.8024,3.8643,3.8699,3.8699,3.8699,3.8699,3.8699,3.8699,3.8699,3.8699,3.8699,3.8293,3.8101,3.8101,3.7469,3.7047,3.689,3.6658,3.6461,2.9464,0.0,0.0,3.5116,3.6211,3.7006,3.8691,3.8973,3.9088,3.9766,3.9925,3.996,4.0104,4.0242,4.0331,4.0436,4.0487,4.0489,4.0489,4.0489,4.0489,4.0489,4.0691,4.0992,4.1489,4.2155,4.3072,4.4344,4.523,4.5961,4.6498,4.6697,4.665,4.6314,4.6109,4.6109,4.6297,4.5582,4.5481,4.5991,4.5261,4.4905,4.4905,4.4685,4.4615,4.4615,4.4615,4.4682,4.4789,4.4789,4.494,4.5136,4.5136,4.522,4.534,4.534,4.5371,4.5397,4.5397,4.5397,4.5397,4.5397,4.53,4.519,4.519,4.5046,4.4858,4.4858,4.4793,4.4706,4.4776,4.4737,4.3939,4.1108,3.9146,3.7149,3.4466,3.3044,3.2361,3.2554,3.3203,3.37,3.37,3.432,3.4793,3.4793,3.4793,3.4793,3.4793,3.5526,3.6423,3.7406,3.7869,3.8261,3.8676,3.8699,3.8699,3.8699,3.8699,3.8699,3.8699,3.8699,3.8699,3.8699,3.8203,3.793,3.793,3.7132,3.6721,3.6739,3.643,3.6301,0.0,0.0,3.4576,3.6244,3.7974,3.9409,3.9859,3.9663,3.9448,3.9663,3.9699,3.9699,3.9732,4.0033,4.0312,4.0312,4.0418,4.0489,4.0489,4.0489,4.0489,4.0489,4.1122,4.1555,0.0,4.226,4.2988,4.3685,4.5016,4.5809,4.5826,4.6456,4.7124,4.7819,4.7141,4.7107,4.7836,4.7107,4.6735,4.6752,4.6024,4.5669,4.5652,4.4939,4.4615,4.4615,4.4615,4.4682,4.4789,4.4789,4.4886,4.5005,4.5005,4.5086,4.522,4.522,4.5287,4.5397,4.5397,4.5397,4.5397,4.5397,4.53,4.519,4.519,4.5096,4.4991,4.4991,4.4991,4.4951,4.4831,4.4806,4.3657,3.9092,3.7956,3.6891,3.3173,3.2327,3.2513,3.3237,3.3964,3.4466,3.4466,3.507,3.5566,3.5566,3.5566,3.5566,3.5566,3.6154,3.696,3.7965,3.8093,3.8261,3.8676,3.8699,3.8699,3.8699,3.8699,3.8699,3.8699,3.8699,3.8699,3.8699,3.7922,3.7523,3.7523,3.6719,3.6322,3.6322,3.6311,3.6301,0.0,0.0,3.6208,3.8035,3.8951,3.9442,3.9568,3.9154,3.8754,3.8825,3.7807,3.694,3.7044,3.7623,3.8144,3.8293,3.9545,4.0489,4.0489,4.0489,4.0691,4.1168,4.1014,0.0,0.0,0.0,0.0,4.4278,4.5274,4.6197,4.7147,4.7865,4.8156,4.7904,4.7667,4.765,4.7904,4.7175,4.68,4.68,4.5565,4.4973,4.4956,4.4702,4.4615,4.4615,4.4615,4.4643,4.4668,4.4762,4.4831,4.4886,4.4981,4.5086,4.519,4.519,4.5287,4.5397,4.5397,4.5397,4.5397,4.5397,4.53,4.519,4.519,4.5113,4.4991,4.4991,4.4991,4.4991,4.4937,4.4872,4.416,4.1575,3.9756,3.8007,3.578,3.4483,3.3823,3.4083,3.4726,3.5222,3.5222,3.543,3.56,3.56,3.56,3.56,3.56,3.6419,3.7133,3.7469,3.8101,3.8546,3.8692,3.8699,3.8699,3.8699,3.8699,3.8699,3.8699,3.8699,3.8699,3.8699,3.7913,3.7505,3.7505,3.6698,3.6301,3.6301,3.6301,3.6301,0.0,3.5035,3.6849,3.8892,3.9212,3.8979,3.8712,3.8317,3.8038,3.8014,3.6703,3.5663,3.5922,3.5999,3.6283,3.7064,3.8453,3.9676,4.0397,4.0489,4.0691,4.1137,4.1014,4.1335,0.0,0.0,0.0,4.4997,4.6003,4.7055,4.8244,4.8732,4.8781,4.831,4.8293,4.8293,4.8293,4.7817,4.731,4.68,4.5582,4.4855,4.4615,4.4615,4.4615,4.4615,4.4615,4.4643,4.4682,4.4762,4.4831,4.4886,4.4981,4.5086,4.519,4.519,4.5287,4.5397,4.5397,4.5397,4.5397,4.5397,4.53,4.519,4.519,4.5154,4.5073,4.5073,4.5073,4.5128,4.5347,4.5278,4.4793,4.3209,4.1061,3.8983,3.7511,3.5769,3.4584,3.4844,3.5273,3.56,3.56,3.56,3.56,3.56,3.56,3.5661,3.5854,3.6406,3.6892,3.7201,3.7852,3.8336,3.8475,3.8619,3.8699,3.8699,3.8699,3.8699,3.8699,3.8699,3.8699,3.8699,3.7913,3.7505,3.7505,3.6698,3.6301,3.6301,3.6301,3.6301,3.3597,3.5249,3.6698,3.8759,3.8826,3.8192,3.7459,3.7352,3.7369,3.7248,3.6329,3.5714,0.0,0.0,3.4881,3.669,3.7375,3.8307,4.0228,4.0489,4.0505,0.0,0.0,0.0,0.0,0.0,0.0,4.5694,0.0,4.8178,4.89,4.8984,4.8984,4.8951,4.8951,4.8951,4.8951,4.8917,4.8173,4.6733,4.6007,4.528,4.4615,4.4615,4.4598,4.4598,4.4598,4.4682,4.4803,4.4817,4.4899,4.4991,4.5005,4.51,4.519,4.519,4.5287,4.5397,4.5397,4.5397,4.5397,4.5397,4.5314,4.5203,4.5203,4.5203,4.522,4.5255,4.5259,4.539,4.5996,4.6065,4.5552,4.3992,4.1847,3.9779,3.843,3.6248,3.4759,3.5459,3.56,3.56,3.56,3.56,3.56,3.56,3.56,3.5777,3.6281,3.6156,3.635,3.7202,3.7433,3.7685,3.8093,3.8483,3.8699,3.8699,3.8699,3.8699,3.8699,3.8684,3.8684,3.8699,3.7887,3.7487,3.7505,3.6698,3.6301,3.6301,3.6301,3.6301,3.4406,3.6145,3.7633,3.7558,3.7911,3.8034,3.7187,3.7131,3.7052,3.639,3.4682,3.3614,0.0,0.0,0.0,3.669,3.8554,0.0,4.0445,4.0489,0.0,4.1245,0.0,4.1254,4.2468,4.3262,0.0,0.0,4.6632,4.7461,4.8142,4.8698,4.8748,4.8191,4.8174,4.8174,4.8174,4.7648,4.6904,4.5974,4.5227,4.4787,4.4615,4.4615,4.4654,4.4751,4.4751,4.4831,4.4968,4.5059,4.5059,4.5005,4.5113,4.5163,4.519,4.519,4.5287,4.5397,4.5397,4.5397,4.5397,4.5397,4.5384,4.5357,4.5357,4.5357,4.5478,4.6077,4.6151,4.6152,4.6752,4.6814,4.6738,4.6764,4.3761,4.0967,4.1136,3.8091,3.5391,3.5566,3.56,3.56,3.56,3.56,3.56,3.56,3.56,3.5656,3.5794,3.6086,3.6539,3.7154,3.7569,3.7998,3.8507,3.8635,3.8699,3.8699,3.8699,3.8699,3.8699,3.8409,3.8393,3.8699,3.7614,3.7208,3.7505,3.6698,3.6301,3.6301,3.6301,3.6301,3.4998,3.6384,3.7501,3.703,3.7325,3.7242,3.5274,3.4965,3.4711,3.3417,3.1703,0.0,0.0,0.0,0.0,0.0,0.0,0.0,4.0384,4.0489,4.0661,0.0,4.0753,0.0,4.201,4.3083,4.4155,0.0,4.6572,4.7502,4.7889,4.8293,4.8326,4.7921,4.7582,4.7428,4.7428,4.6684,4.6109,4.5703,4.4956,4.4615,4.4615,4.4615,4.464,4.4709,4.4709,4.4817,4.5005,4.5086,4.514,4.5167,4.5261,4.5287,4.5287,4.5287,4.5344,4.5397,4.5397,4.5397,4.5397,4.5397,4.5397,4.5466,4.5824,4.5927,4.61,4.6858,4.6897,4.6856,4.7555,4.7554,4.7566,4.8238,4.4945,4.2066,4.3487,3.9466,3.56,3.56,3.56,3.56,3.56,3.56,3.56,3.56,3.56,3.56,3.56,3.6065,3.6467,3.6661,3.7442,3.8007,3.8152,3.8499,3.8699,3.8699,3.8699,3.8699,3.8699,3.8302,3.8211,3.8425,3.7596,3.7189,3.7246,3.6781,3.6471,3.6301,3.6301,3.6301,3.5176,3.6067,3.6705,3.6601,3.6788,3.6151,3.2878,3.2319,3.1935,2.9968,0.0,2.8694,3.1175,0.0,3.1723,3.5566,0.0,3.849,4.0243,4.0489,4.0489,4.0489,4.0489,4.0763,4.1452,4.2847,4.3973,4.4651,4.6701,4.7904,4.7904,4.7904,4.7853,4.7768,4.7039,4.6614,4.6513,4.5974,4.5652,4.5551,4.4905,4.4615,4.4615,4.4615,4.4598,4.4643,4.4643,4.4776,4.5019,4.5019,4.5167,4.5397,4.5397,4.5397,4.5397,4.5397,4.5397,4.5414,4.5518,4.5552,4.5552,4.5552,4.5552,4.5721,4.6496,4.6738,4.6893,4.7634,4.76,4.7526,4.8326,4.8294,4.8174,4.8731,4.5737,4.3267,4.5145,4.0548,3.5966,3.565,3.56,3.56,3.56,3.56,3.56,3.56,3.56,3.56,3.56,3.6017,3.6256,3.6174,3.7151,3.7765,3.7667,3.8244,3.8635,3.8699,3.8699,3.8684,3.8619,3.8236,3.8025,3.8025,3.7578,3.7199,3.69,3.6841,3.6638,3.6301,3.6301,3.6301,3.4246,3.4915,3.5736,3.4998,3.5406,3.5229,3.2502,3.2444,0.0,0.0,0.0,2.9473,3.2287,3.2582,0.0,3.7567,0.0,0.0,0.0,0.0,4.0489,0.0,0.0,0.0,0.0,0.0,0.0,0.0,4.6691,4.7904,4.7904,4.7904,4.7616,4.7005,4.6278,4.5602,4.499,4.5449,4.5399,4.4787,4.4651,4.4615,4.4615,4.4615,4.4654,4.4779,4.4779,4.4927,4.518,4.518,4.5261,4.5397,4.5397,4.5397,4.5397,4.5397,4.5397,4.55,4.6169,4.6393,4.6393,4.6393,4.6393,4.6531,4.7272,4.7514,4.7669,4.841,4.8403,4.836,4.911,4.9059,4.8682,4.8208,4.6551,4.5043,4.4838,4.1437,3.7855,3.5966,3.56,3.56,3.56,3.56,3.56,3.56,3.56,3.56,3.56,3.5672,3.6065,3.6902,3.6892,3.7284,3.8401,3.8328,3.8352,3.8684,3.8699,3.8546,3.8219,3.7826,3.7605,3.7605,3.688,3.6638,3.69,3.6567,3.6374,3.6301,3.6301,3.6301,3.3351,3.4173,3.5028,3.4192,3.486,3.4785,3.1298,0.0,0.0,0.0,0.0,2.7052,2.9351,0.0,0.0,0.0,0.0,0.0,0.0,0.0,0.0,0.0,0.0,0.0,0.0,0.0,0.0,0.0,4.5778,4.6906,4.731,4.7344,4.6802,4.5684,4.5686,4.5348,4.4615,4.4956,4.4956,4.4615,4.4615,4.4615,4.4615,4.4615,4.4626,4.4696,4.4696,4.4803,4.4991,4.5073,4.518,4.53,4.5371,4.5397,4.5449,4.5862,4.6031,4.6134,4.691,4.7169,4.7169,4.7169,4.7169,4.7307,4.8048,4.8272,4.8344,4.8621,4.8552,4.8363,4.8238,4.8031,4.7767,4.7411,4.7075,4.5892,4.2435,4.1183,3.9698,3.627,3.56,3.56,3.56,3.56,3.56,3.56,3.5656,3.5789,3.5996,3.6075,3.6312,3.6833,3.7143,3.7614,3.8336,3.8401,3.8491,3.8692,3.8699,3.8515,3.8118,3.7703,3.7404,3.7199,3.7017,3.6811,3.6587,3.6811,3.6719,3.6301,3.6301,3.6301,3.2521,3.3403,3.4198,3.3573,3.4345,3.4164,3.0043,2.9214,0.0,0.0,0.0,2.462,2.6376,0.0,0.0,0.0,0.0,0.0,0.0,0.0,0.0,0.0,0.0,0.0,0.0,0.0,0.0,0.0,4.5093,4.6194,4.6766,4.665,4.6024,4.4871,4.5229,4.5193,4.4615,4.4615,4.4615,4.4615,4.4615,4.4615,4.4615,4.4615,4.4615,4.4615,4.4615,4.4696,4.4845,4.4968,4.51,4.5261,4.5371,4.55,4.5725,4.6358,4.6686,4.6945,4.7686,4.7824,4.7738,4.7876,4.7824,4.7807,4.8393,4.8565,4.854,4.8398,4.8254,4.7972,4.7199,4.6903,4.6836,4.7005,4.7361,4.6196,4.0849,4.1081,4.0967,3.6473,3.56,3.56,3.56,3.56,3.56,3.56,3.5767,3.6023,3.6371,3.66,3.6764,3.6872,3.7469,3.7957,3.8211,3.8433,3.8611,3.8699,3.8699,3.8483,3.7982,3.7667,3.7321,3.6909,3.7218,3.7065,3.643,3.7065,3.7007,3.6301,3.6301,3.6301,3.1792,3.2372,3.2883,3.2797,3.3302,3.287,2.9297,0.0,0.0,0.0,2.4098,2.462,2.6376,2.737,0.0,0.0,0.0,0.0,0.0,0.0,0.0,0.0,0.0,0.0,0.0,0.0,0.0,4.3685,4.556,4.6733,4.68,4.616,4.5737,4.5602,4.5007,4.4682,4.4615,4.4615,4.4615,4.4615,4.4615,4.4615,4.4615,4.4615,4.4615,4.4615,4.4615,4.4751,4.4978,4.4991,4.514,4.5384,4.5397,4.5858,4.6496,4.6565,4.7014,4.7703,4.843,4.8272,4.7807,4.8482,4.8255,4.772,4.7772,4.7807,4.7779,4.7639,4.7466,4.7258,4.7048,4.6903,4.6972,4.7633,4.7344,4.6005,4.2723,4.2164,4.0967,3.6473,3.56,3.56,3.56,3.56,3.56,3.56,3.5969,3.6284,3.6402,3.6843,3.7304,3.7737,3.7524,3.772,3.8562,3.8334,3.8302,3.8684,3.8699,3.836,3.7587,3.7523,3.7321,3.6909,3.6939,3.6919,3.6841,3.6919,3.6739,3.6301,3.6301,3.6301,3.1088,3.1725,3.2156,3.2156,3.262,3.2228,2.9109,0.0,0.0,2.4738,2.4098,2.4307,2.5014,2.5679,2.6665,0.0,0.0,0.0,0.0,0.0,0.0,0.0,0.0,0.0,0.0,0.0,0.0,4.5469,4.6333,4.6614,4.616,4.5872,4.55,4.5058,4.4753,4.4615,4.4615,4.4615,4.4615,4.4615,4.4615,4.4615,4.4615,4.4615,4.4615,4.4615,4.4615,4.4654,4.4762,4.4923,4.5316,4.5836,4.6033,4.66,4.7324,4.7755,4.7824,4.7807,4.8548,4.8324,4.7686,4.7514,4.7272,4.7117,4.7565,4.7703,4.7558,4.6855,4.6606,4.6388,4.5739,4.5523,4.5768,4.6955,4.7005,4.5971,4.2959,4.23,4.0967,3.6473,3.56,3.56,3.56,3.56,3.57,3.598,3.621,3.657,3.7163,3.7505,3.7861,3.8334,3.8024,3.8033,3.8643,3.8546,3.8523,3.8692,3.8699,3.8459,3.7887,3.7861,3.7667,3.7274,3.7505,3.7505,3.7265,3.7265,3.7055,3.6658,3.6409,3.6301,3.06,3.1274,3.1568,3.1568,3.1738,3.1261,0.0,0.0,2.7174,2.462,2.4098,2.4141,2.433,2.472,2.5369,0.0,0.0,0.0,0.0,0.0,0.0,0.0,0.0,0.0,0.0,0.0,4.5245,4.6678,4.68,4.6394,4.5432,4.5365,4.5142,4.4632,4.4615,4.4615,4.4615,4.4615,4.4615,4.4615,4.4615,4.4615,4.4615,4.4615,4.4615,4.4615,4.4615,4.4612,4.4685,4.5135,4.5651,4.6216,4.6725,4.7376,4.81,4.8603,4.8634,4.8427,4.8703,4.8324,4.7582,4.6841,4.6445,4.6341,4.6858,4.7031,4.6856,4.6014,4.5722,4.5491,4.4775,4.4615,4.4973,4.6445,4.68,4.5971,4.2959,4.23,4.0967,3.6473,3.56,3.5644,3.5772,3.5822,3.5969,3.6409,3.6641,3.7028,3.7703,3.7999,3.8295,3.8669,3.8459,3.8393,3.8684,3.8699,3.8699,3.8699,3.8699,3.8515,3.8118,3.8101,3.7983,3.7676,3.7956,3.7956,3.7676,3.756,3.7284,3.689,3.6492,3.6301,3.0378,3.1005,3.1018,3.1018,3.055,2.967,0.0,0.0,2.6219,2.4463,2.4098,2.4287,2.4878,2.5005,2.5633,2.7575,0.0,0.0,0.0,0.0,0.0,0.0,0.0,0.0,0.0,0.0,4.684,4.6792,4.68,0.0,4.4699,4.4601,4.4601,4.4615,4.4615,4.4615,4.4615,4.4615,4.4615,4.4615,4.4615,4.4615,4.4615,4.4615,4.4615,4.4615,4.4615,4.4682,4.4871,4.5722,4.6182,4.6388,4.732,4.8151,4.8789,4.8792,4.9306,4.9858,4.9082,4.8324,4.7582,4.6841,4.6065,4.5414,4.5414,4.5414,4.5361,4.509,4.482,4.4615,4.4615,4.4615,4.4973,4.6445,4.68,4.5971,4.2959,4.23,4.0967,3.6473,3.56,3.5756,3.6216,3.629,3.643,3.6831,3.7339,3.7712,3.7791,3.8208,3.8551,3.8692,3.8699,3.8699,3.8699,3.8699,3.8699,3.8699,3.8699,3.8515,3.8118,3.8101,3.8101,3.8093,3.8101,3.8101,3.8093,3.7685,3.7284,3.689,3.6492,3.6301,2.8199,2.8604,2.8604,2.8604,2.8473,2.7973,2.6628,0.0,2.5704,2.4372,2.4098,2.4287,2.4892,2.53,2.6357,2.8865,3.105,0.0,0.0,0.0,0.0,0.0,0.0,0.0,0.0,0.0,4.7571,4.7551,4.7073,4.6394,4.5399,4.4871,4.4615,4.4615,4.4615,4.4615,4.4615,4.4615,4.4615,4.4615,4.4615,4.4615,4.4615,4.4615,4.4615,4.4615,4.4615,4.4917,4.5447,4.5919,4.6746,4.7777,4.826,4.8927,4.9617,4.9617,4.9427,4.9065,4.8307,4.7565,4.6824,4.6031,4.5604,4.5397,4.5397,4.5397,4.5371,4.5194,4.5247,4.5388,4.558,4.5484,4.5749,4.7322,4.7621,4.6599,4.3047,4.23,4.0967,3.6473,3.56,3.5739,3.6216,3.6336,3.66,3.7329,3.7632,3.7878,3.8232,3.8412,3.8559,3.8692,3.8699,3.8699,3.8699,3.8699,3.8699,3.8699,3.8699,3.8635,3.8515,3.8507,3.8507,3.8507,3.8507,3.8507,3.8507,3.8101,3.756,3.689,3.6761,3.6557,0.0,2.749,2.749,2.749,2.7177,0.0,0.0,0.0,2.496,2.4254,2.4098,2.4346,2.5147,2.5786,2.6973,2.9396,3.2254,0.0,0.0,0.0,0.0,0.0,0.0,0.0,0.0,4.7078,4.8191,4.7921,4.7225,4.6481,4.5737,4.5007,4.4615,4.4615,4.4615,4.4615,4.4615,4.4615,4.4615,4.4615,4.4615,4.4615,4.4615,4.4615,4.4615,4.4632,4.4888,4.528,0.0,4.6624,4.752,4.8455,4.9037,4.9565,5.0011,5.0011,4.9669,4.9151,4.8393,4.7807,4.7307,4.6531,4.6272,4.6221,4.5945,4.5801,4.5662,4.5303,4.573,4.6272,4.6146,4.6158,4.6527,4.7894,4.8052,4.6887,4.3213,4.2356,4.1031,3.6723,3.5898,3.6107,3.6761,3.6902,3.7162,3.7862,3.8016,3.8175,3.8452,3.8533,3.8609,3.8699,3.8699,3.8699,3.8699,3.8699,3.8699,3.8699,3.8699,3.8699,3.8699,3.8699,3.8699,3.8699,3.8699,3.8699,3.8699,3.8293,3.7756,3.7122,3.6968,3.6779,0.0,0.0,0.0,0.0,0.0,0.0,0.0,0.0,0.0,0.0,2.4098,2.4461,2.5592,2.6343,2.7441,2.9421,3.3366,0.0,0.0,0.0,0.0,0.0,0.0,0.0,4.5486,4.7728,4.8715,4.8039,4.7293,4.6549,4.5821,4.5074,4.4649,4.4615,4.4615,4.4615,4.4615,4.4615,4.4615,4.4615,4.4615,4.4615,4.4615,4.4615,4.4615,4.4635,4.5382,4.5737,4.5932,4.768,4.8443,4.859,4.9619,5.0011,5.0011,5.0011,5.0011,4.9875,4.9082,4.8772,4.8586,4.7789,4.7582,4.7496,4.6807,4.6536,4.6306,4.5581,4.6344,4.7221,4.6486,4.6686,4.7333,4.826,4.8241,4.7081,4.3681,4.2824,4.1525,3.75,3.6776,3.6999,3.7676,3.779,3.7938,3.835,3.847,3.8517,3.8517,3.8616,3.8699,3.8699,3.8699,3.8699,3.8699,3.8699,3.8699,3.8699,3.8699,3.8699,3.8699,3.8699,3.8699,3.8699,3.8699,3.8699,3.8699,3.8318,3.793,3.7533,3.7161,3.6958,0.0,0.0,0.0,0.0,0.0,0.0,0.0,0.0,0.0,0.0,0.0,2.4449,2.559,2.6341,2.7726,3.0585,3.4325,0.0,0.0,0.0,0.0,0.0,0.0,0.0,4.5615,4.7728,4.8934,4.8749,4.8056,4.7312,4.6583,4.5838,4.5179,4.4632,4.4615,4.4615,4.4615,4.4615,4.4615,4.4615,4.4615,4.4615,4.4615,4.4615,4.4615,4.4635,4.5382,4.6082,4.6789,4.7929,4.8792,4.9424,4.9852,5.0011,5.0011,5.0011,5.0011,4.9875,4.9082,4.8444,4.7738,4.6379,4.6358,4.6824,4.6652,4.7279,4.7934,4.7276,4.7617,4.8142,4.8151,4.8112,4.8277,4.9191,4.9261,4.8579,4.6621,4.6507,4.5462,4.088,4.0378,4.0071,3.8124,3.7843,3.8005,3.8412,3.8585,3.8658,3.8658,3.8673,3.8699,3.8699,3.8699,3.8699,3.8699,3.8699,3.8699,3.8699,3.8699,3.8699,3.8699,3.8699,3.8699,3.8699,3.8699,3.8699,3.8699,3.8604,3.836,3.7956,3.7861,3.7487,2.4098,2.4098,2.4098,2.4098,2.4098,2.4098,0.0,0.0,0.0,0.0,0.0,0.0,2.5592,0.0,0.0,0.0,3.3815,0.0,0.0,0.0,0.0,0.0,0.0,4.4448,0.0,4.7912,4.9001,4.9001,4.8326,4.7735,4.7327,4.6616,4.5872,4.5128,4.5108,4.4939,4.4615,4.4615,4.4615,4.4615,4.4615,4.4615,4.4615,4.4615,4.4787,4.5159,4.5872,4.666,4.7494,4.8494,4.9171,4.9619,4.9906,5.0011,5.0011,5.0011,4.9769,4.9393,4.8947,4.8324,4.7565,4.6738,4.6979,4.7617,4.7617,4.8371,4.9034,4.7986,4.8383,4.907,4.8867,4.9168,4.9686,5.0228,5.0455,5.0078,4.8317,4.8342,4.7264,4.2414,4.1927,4.1448,3.8687,3.8242,3.8332,3.8559,3.8658,3.8699,3.8699,3.8699,3.8699,3.8699,3.8699,3.8699,3.8699,3.8699,3.8699,3.8699,3.8699,3.8699,3.8699,3.8699,3.8699,3.8699,3.8699,3.8699,3.8699,3.8699,3.8596,3.8377,3.8195,3.787,2.4098,2.4098,2.4098,2.4098,2.4098,2.4098,0.0,0.0,0.0,0.0,0.0,0.0,0.0,0.0,0.0,0.0,0.0,0.0,0.0,0.0,0.0,0.0,0.0,0.0,4.6616,4.8032,4.8876,4.8986,4.8411,4.8022,4.7904,4.731,4.6633,4.5889,4.5771,4.5399,4.477,4.4651,4.4615,4.4615,4.4615,4.4615,4.4615,4.4615,4.5007,4.5737,4.6481,4.724,4.8015,4.9076,4.9518,4.9562,4.9877,5.0011,4.9993,4.9858,4.9393,4.8772,4.8548,4.8134,4.7686,4.7565,4.8117,4.8792,4.8792,4.9444,4.9893,4.8582,4.9151,4.9996,4.9341,5.0115,5.1122,5.1242,5.1573,5.1418,4.9767,4.9809,4.8687,4.3605,4.3122,4.2523,3.9268,3.8699,3.8699,3.8699,3.8699,3.8699,3.8699,3.8699,3.8699,3.8699,3.8699,3.8699,3.8699,3.8699,3.8699,3.8699,3.8699,3.8699,3.8699,3.8699,3.8699,3.8699,3.8699,3.8699,3.8699,3.8699,3.8699,3.8692,3.8352,3.816,2.4098,2.4098,2.4098,2.4098,2.4098,2.4098,0.0,0.0,0.0,0.0,0.0,0.0,0.0,0.0,0.0,0.0,0.0,0.0,0.0,0.0,0.0,0.0,0.0,4.5761,4.671,4.7572,4.8322,4.8955,4.89,4.8563,4.7938,4.7785,4.738,4.665,4.6024,4.5652,4.5534,4.4905,4.4615,4.4615,4.4615,4.4615,4.4615,4.4615,4.5007,4.5737,4.6481,4.7266,4.8144,4.9104,4.9577,4.9693,4.9921,5.0011,4.9924,4.9238,4.891,4.8634,4.7376,4.7272,4.76,4.6962,4.7686,4.8792,4.8792,4.9806,5.0875,5.0634,5.0737,5.0893,5.0772,5.1378,5.2,5.2015,5.2104,5.2228,5.2586,5.3495,5.2552,4.6974,4.6723,4.5581,3.9701,3.8699,3.8699,3.8699,3.8699,3.8699,3.8699,3.8699,3.8699,3.8699,3.8699,3.8699,3.8699,3.8699,3.8699,3.8699,3.8699,3.8699,3.8699,3.8699,3.8699,3.8699,3.8699,3.8699,3.8699,3.8699,3.8699,3.8699,3.8635,3.8465,2.4098,2.4098,2.4254,2.4868,2.4568,2.4098,0.0,0.0,0.0,0.0,0.0,0.0,0.0,0.0,0.0,0.0,0.0,0.0,0.0,0.0,0.0,0.0,0.0,4.6429,4.676,4.7836,4.8641,4.897,4.9001,4.8849,4.8512,4.8479,4.8157,4.7428,4.7058,4.6686,4.6295,4.5551,4.499,4.4615,4.4615,4.4615,4.4615,4.4615,4.521,4.6312,4.665,4.7473,4.8631,4.9244,4.9547,4.9622,4.9891,4.972,4.9203,4.8048,4.7617,4.7514,4.6841,4.6824,4.7186,4.7634,4.8255,4.8962,4.9789,5.0548,5.1186,5.1582,5.1686,5.1686,5.1686,5.2272,5.2915,5.3207,5.3609,5.4132,5.4834,5.5614,5.438,4.8269,4.7733,4.6269,3.9808,3.8699,3.8699,3.8699,3.8699,3.8699,3.8699,3.8699,3.8699,3.8699,3.8699,3.8699,3.8699,3.8699,3.8699,3.8699,3.8699,3.8699,3.8699,3.8699,3.8699,3.8699,3.8699,3.8699,3.8699,3.8735,3.8739,3.8739,3.8784,3.8721,2.4098,2.4098,2.4372,0.0,0.0,0.0,0.0,0.0,0.0,0.0,0.0,0.0,0.0,0.0,0.0,0.0,0.0,0.0,0.0,0.0,4.2863,4.4421,4.5751,4.6604,4.6777,4.7983,4.8814,4.8986,4.9001,4.9001,4.9001,4.9001,4.8732,4.8174,4.7988,4.7633,4.7056,4.6329,4.5585,4.4855,4.4668,4.4615,4.4615,4.4615,4.5396,4.68,4.68,4.7631,4.9032,4.9367,4.94,4.9276,4.9587,4.9134,4.8151,4.7014,4.66,4.66,4.66,4.6824,4.7307,4.8444,4.9034,4.9565,5.0737,5.1341,5.1755,5.2323,5.2617,5.2703,5.253,5.317,5.3983,5.4387,5.5044,5.5748,5.6207,5.6713,5.5413,4.9725,4.8454,4.6498,4.0799,3.9195,3.8699,3.8699,3.8699,3.8699,3.8699,3.8699,3.8699,3.8699,3.8699,3.8699,3.8699,3.8699,3.8699,3.8699,3.8699,3.8699,3.8699,3.8699,3.8699,3.8699,3.8699,3.8715,3.8712,3.8769,3.8814,3.8829,3.8888,3.8918,2.4098,2.4098,2.4372,2.5521,0.0,0.0,0.0,0.0,0.0,0.0,0.0,0.0,0.0,0.0,0.0,0.0,0.0,0.0,0.0,0.0,4.4437,4.4575,4.5292,4.604,4.6725,4.7522,4.8274,4.8955,4.9001,4.9001,4.9001,4.9001,4.8984,4.8934,4.8259,4.787,4.7819,4.709,4.6346,4.5618,4.4939,4.4615,4.4615,4.4615,4.5396,4.68,4.68,4.7631,4.9032,4.9367,4.9092,4.8507,4.8779,4.8013,4.6738,4.6634,4.66,4.66,4.66,4.7496,4.8669,4.8772,4.9772,5.0962,5.1065,5.2114,5.3253,5.3304,5.3822,5.4168,5.3494,5.4283,5.527,5.5297,5.5794,5.6248,5.6289,5.6713,5.6077,5.2621,4.9977,4.7205,4.3745,4.0671,3.8699,3.8699,3.8699,3.8699,3.8699,3.8699,3.8699,3.8699,3.8699,3.8699,3.8699,3.8699,3.8699,3.8699,3.8699,3.8699,3.8699,3.8699,3.8699,3.8699,3.8699,3.8727,3.8792,3.8799,3.8837,3.8884,3.8903,3.8921,2.4098,2.4098,2.4527,2.6393,0.0,0.0,0.0,0.0,0.0,0.0,0.0,0.0,0.0,0.0,0.0,0.0,0.0,0.0,4.456,4.4591,4.4591,4.4591,4.566,4.6482,4.676,4.7885,4.8703,4.8986,4.9001,4.9001,4.9001,4.9001,4.9001,4.9001,4.8731,4.858,4.858,4.7853,4.7329,4.7058,4.6312,4.5971,4.5954,4.5483,4.6092,4.7447,4.7005,4.7405,4.851,4.921,4.9117,4.8537,4.8721,4.8462,4.791,4.7445,4.7272,4.7358,4.7807,4.8669,4.9617,5.0082,5.0944,5.1875,5.2375,5.2942,5.3494,5.396,5.4287,5.4443,5.4167,5.4731,5.5487,5.5872,5.638,5.6899,5.729,5.7528,5.6699,5.3492,5.0395,4.7278,4.4057,4.0818,3.8699,3.8699,3.8699,3.8699,3.8699,3.8699,3.8699,3.8699,3.8699,3.8699,3.8699,3.8699,3.8699,3.8699,3.8699,3.8699,3.8699,3.8699,3.8699,3.8699,3.8699,3.8704,3.8735,3.8777,3.8822,3.8844,3.8914,3.899,2.4098,2.4098,2.4598,0.0,0.0,0.0,0.0,0.0,0.0,0.0,0.0,0.0,0.0,0.0,0.0,0.0,0.0,4.4591,4.4591,4.4591,4.4591,4.4591,4.5697,4.6534,4.6777,4.7918,4.875,4.8986,4.9001,4.9001,4.9001,4.9001,4.9001,4.9001,4.9001,4.9001,4.9001,4.8496,4.8242,4.8242,4.7733,4.7242,4.6783,4.6278,4.672,4.787,4.7378,4.7759,4.8797,4.9549,4.9673,4.9369,4.9229,4.9186,4.9117,4.8617,4.8565,4.8858,4.9358,5.0031,5.0772,5.1272,5.1961,5.2668,5.3235,5.3563,5.3856,5.4374,5.4496,5.4496,5.4496,5.5091,5.5787,5.6207,5.6861,5.7498,5.7909,5.7997,5.7354,5.5141,5.1867,4.8526,4.5535,4.2139,3.958,3.881,3.8699,3.8699,3.8699,3.8699,3.8699,3.8699,3.8699,3.8699,3.8699,3.8699,3.8699,3.8699,3.8699,3.8699,3.8699,3.8699,3.8699,3.8699,3.8699,3.8715,3.8727,3.8792,3.8833,3.8874,3.8979,3.9036,2.4098,2.4111,0.0,0.0,0.0,0.0,0.0,0.0,0.0,0.0,0.0,0.0,0.0,0.0,0.0,0.0,4.3159,4.4591,4.4591,4.4591,4.4591,4.4591,4.5237,4.6003,4.6725,4.7472,4.821,4.8955,4.9001,4.9001,4.9001,4.9001,4.9001,4.9001,4.9001,4.9001,4.9001,4.9001,4.9001,4.9001,4.9001,4.824,4.6817,4.6802,4.7208,4.7921,4.7904,4.8731,5.0131,5.0474,5.0796,5.103,5.0306,5.0028,5.0028,5.0028,5.0479,5.1117,5.1117,5.1599,5.222,5.222,5.2754,5.3408,5.3408,5.3925,5.4496,5.4496,5.4496,5.4496,5.4496,5.5385,5.6289,5.6303,5.7172,5.7997,5.7997,5.7997,5.7997,5.7997,5.4759,5.1216,4.8728,4.4957,4.1479,3.9048,3.8699,3.8699,3.8699,3.8699,3.8699,3.8699,3.8699,3.8699,3.8699,3.8699,3.8699,3.8699,3.8699,3.8699,3.8699,3.8699,3.8699,3.8699,3.8699,3.8727,3.8807,3.8874,3.8921,3.8993,3.9059,3.9101,2.4098,0.0,0.0,0.0,0.0,0.0,0.0,0.0,0.0,0.0,0.0,0.0,0.0,0.0,0.0,4.15,4.3245,4.4591,4.4591,4.4591,4.4591,4.4591,4.5237,4.6003,4.6725,4.7472,4.821,4.8955,4.9001,4.9001,4.9001,4.9001,4.9001,4.9001,4.9001,4.9001,4.9001,4.9001,4.9001,4.9001,4.9001,4.8765,4.8325,4.7817,4.7971,4.8631,4.8124,4.8582,4.9741,5.0605,5.1318,5.1858,5.1634,5.1548,5.1548,5.1548,5.1686,5.1875,5.1875,5.2392,5.3046,5.3046,5.3563,5.4184,5.4184,5.4323,5.4496,5.4496,5.4496,5.4496,5.4496,5.5076,5.5773,5.6207,5.7172,5.7997,5.7997,5.7997,5.7997,5.7997,5.4759,5.1216,4.8728,4.4957,4.1479,3.9048,3.8699,3.8699,3.8699,3.8699,3.8699,3.8699,3.8699,3.8699,3.8699,3.8699,3.8699,3.8699,3.8699,3.8699,3.8699,3.8699,3.8699,3.8699,3.875,3.8777,3.8807,3.8874,3.8918,3.8921,3.9,3.9028,2.5132,0.0,0.0,0.0,0.0,0.0,0.0,0.0,0.0,0.0,0.0,0.0,0.0,0.0,0.0,4.2786,4.3805,4.4591,4.4591,4.4591,4.4591,4.4591,4.4993,4.566,4.669,4.7204,4.7901,4.8907,4.9001,4.9001,4.9001,4.9001,4.9001,4.9001,4.9001,4.9001,4.9001,4.9001,4.9001,4.9001,4.9001,4.9001,4.8984,4.8529,4.8732,4.9441,4.9673,5.0181,5.0919,5.1919,5.2641,5.3117,5.3117,5.3117,5.3117,5.3117,5.3117,5.3117,5.3117,5.3427,5.3839,5.3839,5.4149,5.4496,5.4496,5.4496,5.4496,5.4496,5.4496,5.4496,5.4496,5.4957,5.556,5.6152,5.6976,5.7714,5.795,5.7997,5.7997,5.7997,5.5776,5.3133,5.0663,4.7976,4.4892,4.1167,3.9515,3.8699,3.8699,3.8699,3.8699,3.8699,3.8699,3.8699,3.8699,3.8699,3.8699,3.8699,3.8699,3.8704,3.8735,3.8742,3.8742,3.8742,3.8807,3.8844,3.8844,3.8918,3.8928,3.8928,3.9007,3.9043,0.0,0.0,0.0,0.0,0.0,0.0,0.0,0.0,0.0,0.0,0.0,0.0,0.0,0.0,4.4396,4.4572,4.4591,4.4591,4.4591,4.4591,4.4591,4.4591,4.4591,4.5179,4.6656,4.6794,4.7406,4.8893,4.9001,4.9001,4.9001,4.9001,4.9001,4.9001,4.9001,4.9001,4.9001,4.9001,4.9001,4.9001,4.9001,4.9001,4.9001,4.9001,4.9407,5.0184,5.1885,5.2742,5.2971,5.3866,5.4335,5.4496,5.4496,5.4496,5.4496,5.4496,5.4496,5.4496,5.4496,5.4496,5.4496,5.4496,5.4496,5.4496,5.4496,5.4496,5.4496,5.4496,5.4496,5.4478,5.4425,5.4852,5.5422,5.5956,5.6592,5.7271,5.7874,5.7997,5.7997,5.7997,5.7354,5.6022,5.3618,5.2527,5.0078,4.435,4.0763,3.8699,3.8699,3.8699,3.8699,3.8699,3.8699,3.8699,3.8699,3.8699,3.8707,3.8715,3.8715,3.8735,3.8814,3.8807,3.8807,3.8814,3.8862,3.8918,3.8918,3.8971,3.9007,3.9007,3.9066,3.9101,0.0,0.0,0.0,0.0,0.0,0.0,0.0,0.0,0.0,0.0,0.0,0.0,0.0,4.3916,4.4549,4.4591,4.4591,4.4591,4.4591,4.4591,4.4591,4.4591,4.4591,4.5179,4.6656,4.6794,4.7406,4.8893,4.9001,4.9001,4.9001,4.9001,4.9001,4.9001,4.9001,4.9001,4.9001,4.9001,4.9001,4.9001,4.9001,4.9001,4.9001,4.9001,4.9407,5.02,5.2046,5.2855,5.2987,5.4011,5.4464,5.4496,5.4496,5.4496,5.4496,5.4496,5.4496,5.4496,5.4496,5.4496,5.4496,5.4496,5.4496,5.4496,5.4496,5.4496,5.4496,5.4496,5.4496,5.4358,5.3787,5.4057,5.4446,5.4416,5.5782,5.7271,5.7874,5.7997,5.7997,5.7997,5.7354,5.6022,5.3618,5.2527,5.0078,4.435,4.0763,3.8699,3.8699,3.8699,3.8699,3.8699,3.8699,3.8699,3.8699,3.8699,3.8712,3.8788,3.8777,3.8807,3.8888,3.8829,3.8829,3.8888,3.8935,3.8971,3.8971,3.9057,3.9073,3.908,3.9094,3.9101,0.0,0.0,0.0,0.0,0.0,0.0,0.0,0.0,0.0,0.0,0.0,0.0,0.0,4.4197,4.4591,4.4591,4.4591,4.4591,4.4591,4.4591,4.4591,4.4591,4.4591,4.5179,4.6656,4.6794,4.7406,4.8893,4.9001,4.9001,4.9001,4.9001,4.9001,4.9001,4.9001,4.9001,4.9001,4.9001,4.9001,4.9001,4.9001,4.9187,4.9543,4.9898,5.0317,5.087,5.2654,5.3448,5.3562,5.4228,5.4496,5.4496,5.4496,5.4496,5.4496,5.4496,5.4496,5.4496,5.4496,5.4496,5.4496,5.4496,5.4496,5.4496,5.4496,5.4496,5.4496,5.4496,5.4253,5.3891,5.3494,5.3327,5.3437,5.4287,5.5526,5.6691,5.7306,5.7721,5.7997,5.7997,5.7666,5.6969,5.5721,5.3555,5.0463,4.592,4.2488,4.001,3.8854,3.8699,3.8699,3.8699,3.8699,3.8699,3.8699,3.8699,3.8719,3.8799,3.8807,3.8833,3.8935,3.8906,3.8906,3.8954,3.9014,3.9057,3.9057,3.908,3.9101,3.9101,3.9101,3.9101,0.0,0.0,0.0,0.0,0.0,0.0,0.0,0.0,0.0,0.0,0.0,0.0,4.4289,4.4591,4.4591,4.4591,4.4591,4.4591,4.4591,4.4591,4.4591,4.4591,4.4591,4.5179,4.6656,4.6794,4.7406,4.8893,4.9001,4.9001,4.9001,4.9001,4.9001,4.9001,4.9001,4.9001,4.9001,4.9001,4.9001,4.9001,4.9001,4.939,5.0133,5.0911,5.1397,5.1778,5.335,5.4094,5.4223,5.4432,5.4496,5.4496,5.4496,5.4496,5.4496,5.4496,5.4496,5.4496,5.4496,5.4496,5.4496,5.4496,5.4496,5.4496,5.4496,5.4496,5.4496,5.4496,5.3977,5.3373,5.3235,5.2658,5.2578,5.4295,5.5214,5.5958,5.6818,5.7538,5.7997,5.7997,5.7886,5.7795,5.7795,5.4454,5.0729,4.7571,4.4351,4.1442,3.9019,3.8699,3.8699,3.8699,3.8699,3.8699,3.8699,3.8715,3.875,3.8822,3.8829,3.8896,3.9007,3.9014,3.9014,3.9014,3.9066,3.9101,3.9101,3.9101,3.9101,3.9101,3.9101,3.9101,0.0,0.0,0.0,0.0,0.0,0.0,0.0,0.0,0.0,0.0,0.0,4.2931,4.4328,4.4591,4.4591,4.4591,4.4591,4.4591,4.4591,4.4591,4.4591,4.4591,4.4591,4.5179,4.6656,4.6794,4.7406,4.8893,4.9001,4.9001,4.9001,4.9001,4.9001,4.9001,4.9001,4.9001,4.9001,4.9001,4.9001,4.9001,4.9001,4.939,5.0133,5.1038,5.1814,5.251,5.3669,5.4174,5.4223,5.4432,5.4496,5.4496,5.4496,5.4496,5.4496,5.4496,5.4496,5.4496,5.4496,5.4496,5.4496,5.4496,5.4496,5.4496,5.4496,5.4496,5.4496,5.4496,5.3977,5.3253,5.253,5.214,5.213,5.293,5.404,5.5486,5.7427,5.7923,5.7997,5.7997,5.7446,5.6957,5.6957,5.3628,5.0076,4.7498,4.4351,4.1442,3.9019,3.8699,3.8699,3.8699,3.8699,3.8699,3.8699,3.8757,3.8822,3.887,3.8928,3.9007,3.908,3.9087,3.9087,3.9087,3.9094,3.9101,3.9101,3.9101,3.9101,3.9101,3.9101,3.9101,0.0,0.0,0.0,0.0,0.0,0.0,0.0,0.0,0.0,0.0,4.273,4.3457,4.4419,4.4591,4.4591,4.4591,4.4591,4.4591,4.4591,4.4591,4.4591,4.4591,4.4591,4.5011,4.6092,4.6551,4.7238,4.8306,4.8767,4.9001,4.9001,4.9001,4.9001,4.9001,4.9001,4.9001,4.9001,4.9001,4.9001,4.9001,4.9001,4.961,5.0727,5.1257,5.1962,5.2825,5.3785,5.4254,5.4367,5.4447,5.4496,5.4496,5.4496,5.4496,5.4496,5.4496,5.4496,5.4496,5.4496,5.4496,5.4496,5.4496,5.4496,5.4496,5.4496,5.4496,5.4496,5.4496,5.3977,5.3322,5.2961,5.2483,5.2329,5.335,5.4282,5.5424,5.7116,5.7762,5.7868,5.7428,5.7031,5.6499,5.5611,5.3995,5.1371,4.7067,4.5223,4.2965,3.9184,3.8699,3.8699,3.8699,3.8699,3.8699,3.8699,3.8754,3.8837,3.8903,3.8957,3.9028,3.9101,3.9101,3.9101,3.9101,3.9101,3.9101,3.9101,3.9101,3.9101,3.9101,3.9101,3.9101,0.0,0.0,0.0,0.0,0.0,0.0,0.0,0.0,0.0,0.0,4.2675,4.3595,4.4438,4.4591,4.4591,4.4591,4.4591,4.4591,4.4591,4.4591,4.4591,4.4591,4.4591,4.4896,4.5624,4.6359,4.7102,4.7836,4.8576,4.9001,4.9001,4.9001,4.9001,4.9001,4.9001,4.9001,4.9001,4.9001,4.9001,4.9001,4.9001,4.9795,5.1282,5.1473,5.2176,5.3259,5.3919,5.4319,5.4496,5.4496,5.4496,5.4496,5.4496,5.4496,5.4496,5.4496,5.4496,5.4496,5.4496,5.4496,5.4496,5.4496,5.4496,5.4496,5.4496,5.4496,5.4496,5.4496,5.3977,5.3408,5.3408,5.2789,5.2542,5.3885,5.4668,5.5515,5.7015,5.7526,5.7519,5.6921,5.6462,5.5812,5.462,5.4234,5.2435,4.7553,4.6287,4.4378,4.0149,3.9085,3.8699,3.8699,3.8699,3.8699,3.8699,3.8754,3.8822,3.8881,3.8943,3.9021,3.9066,3.9087,3.9101,3.9101,3.9101,3.9101,3.9101,3.9101,3.9101,3.9101,3.9101,3.9101,0.0,0.0,0.0,0.0,0.0,0.0,0.0,0.0,0.0,0.0,4.231,4.3051,4.4362,4.4591,4.4591,4.4591,4.4591,4.4591,4.4591,4.4591,4.4591,4.4591,4.4591,4.4896,4.5624,4.6359,4.7102,4.7836,4.8576,4.9001,4.9001,4.9001,4.9001,4.9001,4.9001,4.9001,4.9001,4.9001,4.9001,4.9001,4.9001,4.9873,5.1489,5.1696,5.264,5.4123,5.419,5.4319,5.4496,5.4496,5.4496,5.4496,5.4496,5.4496,5.4496,5.4496,5.4496,5.4496,5.4496,5.4496,5.4496,5.4496,5.4496,5.4496,5.4496,5.4496,5.4496,5.4496,5.3977,5.3408,5.3408,5.2789,5.2542,5.3885,5.4668,5.562,5.7543,5.7386,5.6847,5.6811,5.5574,5.4509,5.4418,5.3765,5.2352,4.9701,4.737,4.4984,4.2433,4.012,3.8699,3.8699,3.8699,3.8699,3.8699,3.8754,3.8807,3.8807,3.8939,3.8993,3.9019,3.9078,3.9101,3.9101,3.9101,3.9101,3.9101,3.9101,3.9101,3.9101,3.9101,3.9101,0.0,0.0,0.0,0.0,0.0,0.0,0.0,0.0,0.0,4.0598,4.2478,4.3888,4.3942,4.4305,4.4591,4.4591,4.4591,4.4591,4.4591,4.4591,4.4591,4.4591,4.4591,4.4704,4.4971,4.6076,4.6914,4.717,4.8322,4.9001,4.9001,4.9001,4.9001,4.9001,4.9001,4.9001,4.9001,4.9001,4.9001,4.9001,4.9001,4.9811,5.1314,5.1522,5.2515,5.4078,5.4158,5.4319,5.4496,5.4496,5.4496,5.4496,5.4496,5.4496,5.4496,5.4496,5.4496,5.4496,5.4496,5.4496,5.4496,5.4496,5.4496,5.4496,5.4496,5.4496,5.4496,5.4496,5.4306,5.4099,5.4099,5.3892,5.3981,5.5249,5.5707,5.6266,5.7695,5.7373,5.648,5.5464,5.4785,5.4234,5.371,5.3379,5.2003,4.8498,4.7214,4.5434,4.1966,4.0773,4.0039,3.9533,3.946,3.9258,3.8744,3.8792,3.8855,3.8855,3.8993,3.9059,3.9059,3.9087,3.9101,3.9101,3.9101,3.9101,3.9101,3.9101,3.9101,3.9101,3.9101,3.9101,0.0,0.0,0.0,0.0,0.0,0.0,0.0,0.0,0.0,3.9997,4.2249,4.3884,4.3649,4.4135,4.4591,4.4591,4.4591,4.4591,4.4591,4.4591,4.4591,4.4591,4.4591,4.4591,4.4591,4.5915,4.6794,4.6794,4.8161,4.9001,4.9001,4.9001,4.9001,4.9001,4.9001,4.9001,4.9001,4.9001,4.9001,4.9001,4.9255,5.0048,5.1315,5.1697,5.2673,5.4062,5.4159,5.4319,5.4496,5.4496,5.4496,5.4496,5.4496,5.4496,5.4496,5.4496,5.4496,5.4496,5.4496,5.4496,5.4496,5.4496,5.4496,5.4496,5.4496,5.4496,5.4496,5.4496,5.4496,5.4496,5.4496,5.4496,5.4788,5.6013,5.6093,5.6132,5.7018,5.6987,5.648,5.5409,5.4766,5.4326,5.4051,5.3794,5.2774,5.0315,4.8553,4.6535,4.3856,4.2113,4.0901,4.0359,4.0065,3.9688,3.9148,3.8965,3.8874,3.8874,3.9,3.9059,3.9059,3.9087,3.9101,3.9101,3.9101,3.9101,3.9101,3.9101,3.9101,3.9101,3.9101,3.9101,0.0,0.0,0.0,0.0,0.0,0.0,0.0,0.0,3.7717,3.9778,4.1532,4.291,4.3472,4.4116,4.4591,4.4591,4.4591,4.4591,4.4591,4.4591,4.4591,4.4591,4.4591,4.4591,4.4591,4.5915,4.6794,4.676,4.8145,4.8986,4.897,4.8986,4.9001,4.9001,4.8986,4.8986,4.9001,4.8986,4.8986,4.9018,4.9746,5.0585,5.1523,5.2272,5.3199,5.419,5.4223,5.4319,5.4496,5.4496,5.4496,5.4496,5.4496,5.4496,5.4496,5.4496,5.4496,5.4496,5.4496,5.4496,5.4496,5.4496,5.4496,5.4496,5.4496,5.4496,5.4496,5.4496,5.4478,5.4461,5.4427,5.4427,5.4736,5.5928,5.562,5.516,5.5496,5.6205,5.6756,5.6701,5.5453,5.4638,5.5438,5.4932,5.4675,5.542,5.1426,4.8315,4.826,4.4113,4.115,4.114,4.0414,3.9926,3.989,3.924,3.8807,3.8814,3.8921,3.8993,3.8993,3.9078,3.9101,3.9101,3.9101,3.9101,3.9101,3.9101,3.9101,3.9101,3.9101,3.9101,2.5495,0.0,0.0,0.0,0.0,0.0,0.0,0.0,0.0,3.7743,4.0882,4.324,4.2946,4.383,4.4591,4.4591,4.4591,4.4591,4.4591,4.4591,4.4591,4.4591,4.4591,4.4591,4.4591,4.5915,4.6586,0.0,4.7869,4.8767,4.8242,4.8703,4.9001,4.9001,4.8482,4.8466,4.8986,4.8466,4.8466,4.9018,4.9746,5.0585,5.1523,5.2417,5.3328,5.4223,5.4351,5.4448,5.4496,5.4496,5.4496,5.4496,5.4496,5.4496,5.4496,5.4496,5.4496,5.4496,5.4496,5.4496,5.4496,5.4496,5.4496,5.4496,5.4496,5.4496,5.4496,5.4496,5.4132,5.358,5.2996,5.2841,5.3019,5.3799,5.4108,5.4384,5.4912,5.5496,5.5592,5.4425,5.4308,5.4473,5.4693,5.5034,5.4961,5.4014,5.1187,4.8746,4.7581,4.4737,4.2598,4.2029,4.125,4.054,4.0016,3.929,3.8884,3.8928,3.901,3.9066,3.9066,3.9087,3.9101,3.9101,3.9101,3.9101,3.9101,3.9101,3.9101,3.9101,3.9101,3.9101,0.0,0.0,0.0,0.0,0.0,0.0,3.0268,3.2745,3.4996,0.0,3.9172,4.1538,4.2184,4.2693,4.3366,4.4433,4.4591,4.4591,4.4591,4.4591,4.4591,4.4591,4.4591,4.4591,4.4591,4.566,4.6147,4.5733,4.7187,4.8015,4.7901,4.8015,4.821,4.8529,4.8129,4.8112,4.8529,4.8417,4.8561,4.9018,5.0146,5.0969,5.154,5.2789,5.3667,5.4223,5.4319,5.4415,5.4496,5.4496,5.4496,5.4496,5.4496,5.4496,5.4496,5.4496,5.4496,5.4496,5.4496,5.4496,5.4496,5.4496,5.4496,5.4496,5.4496,5.4287,5.4046,5.4046,5.3479,5.2789,5.2323,5.2203,5.2351,5.2954,5.3241,5.3563,5.4171,5.4462,5.462,5.4682,5.4821,5.5115,5.5794,5.6014,5.5904,5.5299,5.3115,5.1206,5.026,4.8049,4.5975,4.4461,4.358,4.2411,4.0654,3.9818,3.929,3.9023,3.9052,3.9101,3.9101,3.9101,3.9101,3.9101,3.9101,3.9101,3.9101,3.9101,3.9101,3.9101,3.9101,3.9101,0.0,0.0,0.0,0.0,0.0,0.0,2.9604,3.1793,3.3952,3.5338,3.6878,3.8701,4.0989,4.0933,4.1286,4.3546,4.4113,4.4344,4.4575,4.4591,4.4591,4.4591,4.4591,4.4591,4.4591,4.5271,4.566,4.557,4.6253,4.7,4.7737,4.7153,4.7102,4.7754,4.7704,4.7721,4.7901,4.8466,4.888,4.9137,5.0747,5.154,5.1708,5.3299,5.4094,5.4222,5.4222,5.4335,5.4496,5.4496,5.4496,5.4496,5.4496,5.4496,5.4496,5.4496,5.4496,5.4496,5.4496,5.4496,5.4496,5.4496,5.4427,5.4391,5.4391,5.3873,5.3253,5.3166,5.2634,5.2065,5.1979,5.1961,5.2094,5.2623,5.262,5.2643,5.3249,5.3315,5.3931,5.6223,5.6088,5.6081,5.7593,5.7354,5.7178,5.7886,5.5941,5.4399,5.4399,5.2289,4.9856,4.7369,4.6305,4.4541,4.1461,4.0442,3.9693,3.9056,3.9059,3.9101,3.9101,3.9101,3.9101,3.9101,3.9101,3.9101,3.9101,3.9101,3.9101,3.9101,3.9101,3.9101,0.0,0.0,0.0,0.0,0.0,0.0,2.8368,2.9996,3.1762,3.3,3.5082,3.7022,3.8154,3.8678,3.9114,3.9614,4.1093,4.2758,4.4375,4.4591,4.4591,4.4591,4.4591,4.4591,4.4591,4.5271,4.5458,4.4858,4.5512,4.6236,4.6983,4.688,4.6863,4.7017,4.6447,4.6709,4.7885,4.7456,4.8117,4.9914,5.0985,5.1893,5.2667,5.3683,5.4271,5.4448,5.4448,5.4447,5.4496,5.4496,5.4496,5.4496,5.4496,5.4496,5.4496,5.4496,5.4496,5.4496,5.4496,5.4496,5.4496,5.4496,5.4098,5.3615,5.3615,5.3048,5.2306,5.172,5.1444,5.1168,5.0582,5.0442,5.0471,5.0584,5.0893,5.1322,5.1871,5.2804,5.3991,5.5526,5.5713,5.5915,5.6877,5.7446,5.7813,5.7978,5.5941,5.4399,5.4399,5.2289,4.9856,4.7369,4.5846,4.3994,4.1496,4.0011,3.9174,3.9092,3.9094,3.9101,3.9101,3.9101,3.9101,3.9101,3.9101,3.9101,3.9101,3.9101,3.9101,3.9101,3.9101,3.9101,0.0,0.0,0.0,2.7425,0.0,0.0,0.0,2.9179,3.0672,3.144,3.294,3.4651,3.6479,3.6717,3.7067,3.8289,4.0247,4.194,4.2974,4.3975,4.4591,4.4591,4.4591,4.4591,4.4591,4.4918,4.5008,4.4629,4.4952,4.5476,4.62,4.5913,4.5877,4.6236,4.5895,4.6058,4.6795,4.717,4.8084,4.9571,5.0973,5.2089,5.2937,5.3913,5.4399,5.4496,5.4496,5.4496,5.4496,5.4496,5.4287,5.3994,5.4374,5.4496,5.4496,5.4496,5.4496,5.4496,5.4496,5.4254,5.396,5.396,5.3427,5.2789,5.2789,5.2255,5.1496,5.0755,5.0548,5.0476,5.0097,5.0011,5.0011,5.0011,5.0415,5.0951,5.1475,5.2342,5.353,5.5258,5.5603,5.5989,5.7189,5.7721,5.7997,5.7997,5.6969,5.6198,5.6198,5.5133,5.3484,5.1093,4.8686,4.6136,4.3438,4.0988,3.9455,3.9113,3.9101,3.9101,3.9101,3.9101,3.9101,3.9101,3.9101,3.9101,3.9101,3.9101,3.9101,3.9101,3.9101,3.9101,0.0,0.0,0.0,0.0,0.0,2.749,0.0,0.0,0.0,0.0,0.0,0.0,0.0,0.0,0.0,0.0,0.0,0.0,0.0,4.2158,0.0,4.4514,4.4375,4.4267,4.4391,4.4283,4.4267,4.4391,4.4406,4.4719,4.5442,4.4933,4.4877,4.5476,4.5494,4.5567,4.5697,4.6881,4.805,4.9243,5.0799,5.2093,5.3142,5.4046,5.4447,5.4496,5.4496,5.4496,5.4494,5.4341,5.3942,5.346,5.4063,5.4185,5.4047,5.4047,5.4047,5.4047,5.4047,5.3668,5.3166,5.3166,5.2634,5.1961,5.1824,5.1358,5.0755,5.0183,5.0011,5.0011,5.0011,5.0011,5.0011,5.0011,5.0415,5.0951,5.1475,5.2132,5.3174,5.502,5.5622,5.6301,5.774,5.7997,5.7997,5.7997,5.7997,5.7997,5.7997,5.802,5.7103,5.4607,5.146,4.8255,4.514,4.1867,3.9736,3.9131,3.9101,3.9101,3.9101,3.9101,3.9101,3.9101,3.9101,3.9101,3.9101,3.9101,3.9101,3.9101,3.9101,3.9101,0.0,0.0,0.0,0.0,2.749,0.0,0.0,0.0,0.0,2.9749,0.0,0.0,0.0,0.0,0.0,0.0,0.0,0.0,3.6199,3.7923,4.0539,4.4175,4.3541,4.3048,4.367,4.319,4.3063,4.3685,4.3716,4.3997,4.4692,4.4648,4.4629,4.4723,4.4723,4.503,4.5697,4.5877,4.7301,4.999,5.0376,5.1713,5.3877,5.4107,5.4335,5.4496,5.4496,5.4496,5.446,5.3789,5.3477,5.3408,5.3494,5.3082,5.2461,5.2461,5.2461,5.2461,5.2461,5.241,5.2341,5.2341,5.1824,5.1099,5.0459,5.02,5.0114,5.0028,5.0011,5.0011,5.0011,5.0011,5.0011,5.0011,5.0415,5.0951,5.1475,5.2576,5.3676,5.4404,5.5702,5.695,5.785,5.7997,5.7997,5.7997,5.7997,5.7997,5.7997,5.8099,5.6971,5.3786,5.072,4.7576,4.4315,4.1086,3.9187,3.9101,3.9101,3.9101,3.9101,3.9101,3.9101,3.9101,3.9101,3.9101,3.9101,3.9101,3.9101,3.9101,3.9101,3.9101,0.0,0.0,0.0,0.0,0.0,0.0,2.7786,0.0,2.8102,0.0,0.0,0.0,0.0,0.0,0.0,0.0,3.4136,0.0,0.0,0.0,3.8708,0.0,0.0,0.0,4.0601,4.1093,4.1491,4.1786,4.2556,4.3313,4.3975,4.4006,4.419,4.4591,4.4591,4.4761,4.5049,4.5869,4.7121,4.8792,5.04,5.1917,5.3332,5.4061,5.4415,5.4478,5.4046,5.3873,5.3804,5.3013,5.2444,5.208,5.208,5.2117,5.2203,5.2203,5.2203,5.2203,5.2203,5.1927,5.1496,5.1065,5.0703,5.0393,5.0097,5.0011,5.0011,5.0011,5.0011,5.0011,5.0011,5.0011,5.0011,5.0011,5.0415,5.0951,5.1475,5.2288,5.321,5.4202,5.495,5.5666,5.6466,5.7373,5.7997,5.7997,5.8065,5.8129,5.8129,5.8231,5.7795,5.6457,5.3053,4.9777,4.703,4.3387,4.0624,3.9194,3.9101,3.9101,3.9101,3.9101,3.9101,3.9101,3.961,3.9851,3.987,4.0308,4.0557,4.0538,4.0074,3.9851,2.893,0.0,0.0,0.0,0.0,0.0,0.0,0.0,0.0,0.0,0.0,0.0,0.0,0.0,0.0,0.0,0.0,3.4644,0.0,3.5491,0.0,0.0,0.0,0.0,0.0,3.883,3.963,4.0166,4.1168,4.2217,4.3267,4.3328,4.3636,4.4298,4.4329,4.4406,4.4591,4.5865,4.7053,4.8241,5.0383,5.2032,5.3197,5.3821,5.4154,5.4167,5.3408,5.3065,5.3011,5.222,5.1582,5.1082,5.0875,5.1117,5.1599,5.1599,5.1599,5.1599,5.1599,5.1255,5.0703,5.0183,5.0011,5.0011,5.0011,5.0011,5.0011,5.0011,5.0011,5.0011,5.0011,5.0011,5.004,5.0178,5.063,5.1158,5.1688,5.2244,5.2914,5.3919,5.4256,5.4561,5.5075,5.6287,5.7253,5.7461,5.7613,5.7785,5.8013,5.8246,5.8358,5.8185,5.4946,5.164,4.8807,4.5231,4.198,3.9268,3.9101,3.9101,3.9101,3.9324,3.9454,3.9454,4.0297,4.0724,4.0724,4.1319,4.1597,4.1597,4.1003,4.0724,0.0,0.0,0.0,3.0027,0.0,0.0,0.0,0.0,2.8846,0.0,0.0,0.0,0.0,0.0,0.0,0.0,0.0,0.0,0.0,0.0,0.0,0.0,0.0,0.0,0.0,3.6599,3.7446,3.9384,3.9568,4.0491,4.2507,4.2633,4.294,4.3624,4.3639,4.3947,4.4591,4.5479,4.705,4.9256,5.0189,5.1878,5.4141,5.3434,5.3251,5.3391,5.2582,5.2237,5.2186,5.1444,5.1117,5.103,5.0306,5.0048,5.008,5.008,5.008,5.008,5.008,5.0062,5.0031,5.0011,5.0011,5.0011,5.0011,5.0011,5.0011,5.0011,5.0011,5.0011,5.0011,5.0011,5.0138,5.0643,5.1184,5.1731,5.2268,5.2794,5.3217,5.3314,5.3905,5.4334,5.4084,5.4633,5.5358,5.6134,5.6368,5.6748,5.7516,5.813,5.8204,5.7426,5.5183,5.2113,4.8091,4.5417,4.2575,3.9305,3.9101,3.9101,3.9101,3.9907,4.0353,4.0353,4.1152,4.156,4.156,4.1597,4.1597,4.1597,4.1579,4.156,0.0,0.0,3.0155,3.0378,0.0,0.0,0.0,0.0,0.0,0.0,0.0,0.0,0.0,0.0,0.0,0.0,0.0,0.0,0.0,0.0,0.0,0.0,0.0,0.0,0.0,0.0,3.546,3.6138,3.7015,3.84,4.0445,4.0553,4.1276,4.2879,4.3374,4.3772,4.413,4.5746,4.7022,4.7936,4.9833,5.1162,5.1975,5.2328,5.2536,5.2565,5.1806,5.1461,5.141,5.0668,5.0358,5.0341,5.0097,5.0011,5.0011,5.0011,5.0011,5.0011,5.0011,5.0011,5.0011,5.0011,5.0011,5.0011,5.0011,5.0066,5.0135,5.0135,5.0135,5.0135,5.0135,5.008,5.0138,5.0671,5.121,5.1763,5.2342,5.29,5.3212,5.3013,5.3167,5.3196,5.2759,5.263,5.334,5.5492,5.623,5.6817,5.7568,5.8242,5.8524,5.8264,5.7033,5.4137,4.8946,4.3745,4.029,3.9175,3.964,3.9963,3.9963,4.0743,4.1189,4.1189,4.198,4.2396,4.2389,4.2927,4.3188,4.3188,4.3188,4.289,3.4541,3.3287,0.0,3.2218,3.1071,0.0,3.0035,0.0,0.0,0.0,0.0,0.0,0.0,0.0,0.0,0.0,0.0,0.0,0.0,3.2398,0.0,0.0,0.0,0.0,0.0,0.0,3.3951,3.4459,3.5291,3.6553,3.8354,3.8891,3.9861,4.1445,4.2386,4.3183,4.379,4.5646,4.6931,4.7656,4.9809,5.0986,5.1308,5.1649,5.1806,5.1772,5.103,5.0703,5.0668,5.0186,5.0011,5.0011,5.0011,5.0011,5.0011,5.0011,5.0011,5.0011,5.0011,5.0022,5.008,5.008,5.0109,5.0135,5.0135,5.0206,5.0378,5.093,5.069,5.0395,5.0948,5.0619,5.0291,5.0803,5.121,5.1626,5.2202,5.2599,5.2802,5.2631,5.2552,5.2373,5.1939,5.1763,5.2396,5.4459,5.5444,5.6302,5.7223,5.8145,5.8706,5.8706,5.8242,5.5484,4.9401,4.315,3.9554,3.9554,4.0353,4.0836,4.0836,4.1597,4.2166,4.2452,4.2965,4.3373,4.3697,4.3893,4.4005,4.4005,4.4005,4.3726]},{"header":{"parameterUnit":"m.s-1","parameterCategory":1,"la1":30.6,"la2":29.2853,"lo1":-89.7004,"lo2":-87.6739,"dx":0.0162,"dy":0.0183,"nx":112,"ny":82,"refTime":"2023-01-24T18:00:00:Z","depth":0,"parameterNumber":3,"parameterNumberName":"V-component_of_WINDS"},"data":[0.0,0.0,0.0,0.0,0.0,0.0,0.0,0.0,0.0,0.0,0.0,0.0,0.0,0.0,0.0,0.0,0.0,0.0,0.0,0.0,0.0,0.0,0.0,0.0,0.0,0.0,0.0,0.0,0.0,0.0,0.0,0.0,0.0,0.0,0.0,0.0,0.0,0.0,0.0,0.0,0.0,0.0,0.0,0.0,0.0,0.0,0.0,0.0,0.0,0.0,0.0,0.0,0.0,0.0,0.0,0.0,0.0,0.0,0.0,0.0,0.0,0.0,0.0,0.0,0.0,0.0,0.0,0.0,0.0,0.0,0.0,0.0,0.0,0.0,0.0,0.0,0.0,0.0,0.0,0.0,0.0,0.0,0.0,0.0,0.0,0.0,0.0,0.0,0.0,0.0,0.7503,0.7503,0.7503,0.7503,0.7503,0.7353,0.7315,0.7484,0.0,0.0,0.0,0.0,0.0,0.0,0.0,0.0,0.0,0.0,0.0,0.0,0.0,0.0,0.0,0.0,0.0,0.0,0.0,0.0,0.0,0.0,0.0,0.0,0.0,0.0,0.0,0.0,0.0,0.0,0.0,0.0,0.0,0.0,0.0,0.0,0.0,0.0,0.0,0.0,0.0,0.0,0.0,0.0,0.0,0.0,0.0,0.0,0.0,0.0,0.0,0.0,0.0,0.0,0.0,0.0,0.0,0.0,0.0,0.0,0.0,0.0,0.0,0.0,0.0,0.0,0.0,0.0,0.0,0.0,0.0,0.0,0.0,0.0,0.0,0.0,0.0,0.0,0.0,0.0,0.0,0.0,0.0,0.0,0.0,0.0,0.0,0.0,0.0,0.0,0.0,0.0,0.0,0.0,0.0,0.0,0.0,0.0,0.0,0.0,0.0,0.0,0.0,0.0,0.7503,0.7503,0.7503,0.7503,0.7503,0.7465,0.7465,0.7503,0.0,0.0,0.0,0.0,0.0,0.0,0.0,0.0,0.0,0.0,0.0,0.0,0.0,0.0,0.0,0.0,0.0,0.0,0.0,0.0,0.0,0.0,0.0,0.0,0.0,0.0,0.0,0.0,0.0,0.0,0.0,0.0,0.0,0.0,0.0,0.0,0.0,0.0,0.0,0.0,0.0,0.0,0.0,0.0,0.0,0.0,0.0,0.0,0.0,0.0,0.0,0.0,0.0,0.0,0.0,0.0,0.0,0.0,0.0,0.0,0.0,0.0,0.0,0.0,0.0,0.0,0.0,0.0,0.0,0.0,0.0,0.0,0.0,0.0,0.0,0.0,0.0,0.0,0.0,0.0,0.0,0.0,0.0,0.0,0.0,0.0,0.0,0.0,0.0,0.0,0.0,0.0,0.0,0.0,0.0,0.0,0.0,0.0,0.0,0.0,0.0,0.0,0.0,0.7729,0.7503,0.7503,0.7503,0.7503,0.7503,0.7503,0.7503,0.7503,0.7407,0.0,0.0,0.0,0.0,0.0,0.0,0.0,0.0,0.0,0.0,0.0,0.0,0.0,0.0,0.0,0.0,0.0,0.0,0.0,0.0,0.0,0.0,0.0,0.0,0.0,0.0,0.0,0.0,0.0,0.0,0.0,0.0,0.0,0.0,0.0,0.0,0.0,0.0,0.0,0.0,0.0,0.0,0.0,0.0,0.0,0.0,0.0,0.0,0.0,0.0,0.0,0.0,0.0,0.0,0.0,0.0,0.0,0.0,0.0,0.0,0.0,0.0,0.0,0.0,0.0,0.0,0.0,0.0,0.0,0.0,0.0,0.0,0.0,0.0,0.0,0.0,0.0,0.0,0.0,0.0,0.0,0.0,0.0,0.0,0.0,0.0,0.0,0.0,0.0,0.0,0.0,0.0,0.0,0.0,0.0,0.0,0.0,0.0,0.0,0.0,0.0,0.0,0.7955,0.7916,0.7542,0.7503,0.7503,0.7503,0.7503,0.7503,0.7503,0.7503,0.0,0.0,0.0,0.0,0.0,0.0,0.0,0.0,0.0,0.0,0.0,0.0,0.0,0.0,0.0,0.0,0.0,0.0,0.0,0.0,0.0,0.0,0.0,0.0,0.0,0.0,0.0,0.0,0.0,0.0,0.0,0.0,0.0,0.0,0.0,0.0,0.0,0.0,0.0,0.0,0.0,0.0,0.0,0.0,0.0,0.0,0.0,0.0,0.0,0.0,0.0,0.0,0.0,0.0,0.0,0.0,0.0,0.0,0.0,0.0,0.0,0.0,0.0,0.0,0.0,0.0,0.0,0.0,0.0,0.0,0.0,0.0,0.0,0.0,0.0,0.0,0.0,0.0,0.0,0.0,0.0,0.0,0.0,0.0,0.0,0.0,0.0,0.0,0.0,0.0,0.0,0.0,0.0,0.0,0.0,0.0,0.0,0.0,0.0,0.0,0.0,0.0,0.9277,0.9159,0.7653,0.7503,0.7503,0.7503,0.7503,0.7503,0.7503,0.7503,0.0,0.0,0.0,0.0,0.0,0.0,0.0,0.0,0.0,0.0,0.0,0.0,0.0,0.0,0.0,0.0,0.0,0.0,0.0,0.0,0.0,0.0,0.0,0.0,0.0,0.0,0.0,0.0,0.0,0.0,0.0,0.0,0.0,0.0,0.0,0.0,0.0,0.0,0.0,0.0,0.0,0.0,0.0,0.0,0.0,0.0,0.0,0.0,0.0,0.0,0.0,0.0,0.0,0.0,0.0,0.0,0.0,0.0,0.0,0.0,0.0,0.0,0.0,0.0,0.0,0.0,0.0,0.0,0.0,0.0,0.0,0.0,0.0,0.0,0.0,0.0,0.0,0.0,0.0,0.0,0.0,0.0,0.0,0.0,0.0,0.0,0.0,0.0,0.0,0.0,0.0,0.0,0.0,0.0,0.0,0.0,0.0,0.0,0.0,0.0,0.0,0.0,0.896,0.8732,0.0,0.7503,0.7503,0.7503,0.7503,0.7503,0.7503,0.0,0.0,0.0,0.0,0.0,0.0,0.0,0.0,0.0,0.0,0.0,0.0,0.0,0.0,0.0,0.0,0.0,0.0,0.0,0.0,0.0,0.0,0.0,0.0,0.0,0.0,0.0,0.0,0.0,0.0,0.0,0.0,0.0,0.0,0.0,0.0,0.0,0.0,0.0,0.0,0.0,0.0,0.0,0.0,0.0,0.0,0.0,0.0,0.0,0.0,0.0,0.0,0.0,0.0,0.0,0.0,0.0,0.0,0.0,0.0,0.0,0.0,0.0,0.0,0.0,0.0,0.0,0.0,0.0,0.0,0.0,0.0,0.0,0.0,0.0,0.0,0.0,0.0,0.0,0.0,0.0,0.0,0.0,0.0,0.0,0.0,0.0,0.0,0.0,0.0,0.0,0.0,0.0,0.0,0.0,0.0,0.0,0.0,0.0,0.0,0.0,0.0,0.9642,0.9458,0.915,0.0,0.8031,0.7882,0.7882,0.7653,0.7503,0.7503,0.0,0.0,0.0,0.0,0.0,0.0,0.0,0.0,0.0,0.0,0.0,0.0,0.0,0.0,0.0,0.0,0.0,0.0,0.0,0.0,0.0,0.0,0.0,0.0,0.0,0.0,0.0,0.0,0.0,0.0,0.0,0.0,0.0,0.0,0.0,0.0,0.0,0.0,0.0,0.0,0.0,0.0,0.0,0.0,0.0,0.0,0.0,0.0,0.0,0.0,0.0,0.0,0.0,0.0,0.0,0.0,0.0,0.0,0.0,0.0,0.0,0.0,0.0,0.0,0.0,0.0,0.0,0.0,0.0,0.0,0.0,0.0,0.0,0.0,0.0,0.0,0.0,0.0,0.0,0.0,0.0,0.0,0.0,0.0,0.0,0.0,0.0,0.0,0.0,0.0,0.0,0.0,0.0,0.0,0.0,0.0,0.0,0.0,0.0,0.0,0.0,0.0,1.1205,1.1093,1.0788,0.9989,0.9188,0.8723,0.8723,0.7978,0.7522,0.0,0.0,0.0,0.0,0.0,0.0,0.0,0.0,0.0,0.0,0.0,0.0,0.0,0.0,0.0,0.0,0.0,0.0,0.0,0.0,0.0,0.0,0.0,0.0,0.0,0.0,0.0,0.0,0.0,0.0,0.0,0.0,0.0,0.0,0.0,0.0,0.0,0.0,0.0,0.0,0.0,0.0,0.0,0.0,0.0,0.0,0.0,0.0,0.0,0.0,0.0,0.0,0.0,0.0,0.0,0.0,0.0,0.0,0.0,0.0,0.0,0.0,0.0,0.0,0.0,0.0,0.0,0.0,0.0,0.0,0.0,0.0,0.0,0.0,0.0,0.0,0.0,0.0,0.0,0.0,0.0,0.0,0.0,0.0,0.0,0.0,0.0,0.0,0.0,0.0,0.0,0.0,0.0,0.0,0.0,0.0,0.0,0.0,0.0,0.0,0.0,0.0,0.0,1.1205,1.1093,1.0788,0.9989,0.9688,0.9542,0.9542,0.8808,0.8341,0.8341,0.0,0.0,0.0,0.0,0.0,0.0,0.0,0.0,0.0,0.0,0.0,0.0,0.0,0.0,0.0,0.0,0.0,0.0,0.0,0.0,0.0,0.0,0.0,0.0,0.0,0.0,0.0,0.0,0.0,0.0,0.0,0.0,0.0,0.0,0.0,0.0,0.0,0.0,0.0,0.0,0.0,0.0,0.0,0.0,0.0,0.0,0.0,0.0,0.0,0.0,0.0,0.0,0.0,0.0,0.0,0.0,0.0,0.0,0.0,0.0,0.0,0.0,0.0,0.0,0.0,0.0,0.0,0.0,0.0,0.0,0.0,0.0,0.0,0.0,0.0,0.0,0.0,0.0,0.0,0.0,0.0,0.0,0.0,0.0,0.0,0.0,0.0,0.0,0.0,0.0,0.0,0.0,0.0,0.0,0.0,0.0,0.0,0.0,0.0,0.0,0.0,0.0,1.1651,1.1577,1.1385,1.0907,1.0576,1.0389,1.0389,0.9636,0.9188,0.9188,0.0,0.0,0.0,0.0,0.0,0.0,0.0,0.0,0.0,0.0,0.0,0.0,0.0,0.0,0.0,0.0,0.0,0.0,0.0,0.0,0.0,0.0,0.0,0.0,0.0,0.0,0.0,0.0,0.0,0.0,0.0,0.0,0.0,0.0,0.0,0.0,0.0,0.0,0.0,0.0,0.0,0.0,0.0,0.0,0.0,0.0,0.0,0.0,0.0,0.0,0.0,0.0,0.0,0.0,0.0,0.0,0.0,0.0,0.0,0.0,0.0,0.0,0.0,0.0,0.0,0.0,0.0,0.0,0.0,0.0,0.0,0.0,0.0,0.0,0.0,0.0,0.0,0.0,0.0,0.0,0.0,0.0,0.0,0.0,0.0,0.0,0.0,0.0,0.0,0.0,0.0,0.0,0.0,0.0,0.0,0.0,0.0,0.0,0.0,0.0,0.0,0.0,1.2316,1.2305,1.2305,1.2305,1.1651,1.1205,1.1205,1.0464,1.0008,1.0008,0.0,0.0,0.0,0.0,0.0,0.0,0.0,0.0,0.0,0.0,0.0,0.0,0.0,0.0,0.0,0.0,0.0,0.0,0.0,0.0,0.0,0.0,0.0,0.0,0.0,0.0,0.0,0.0,0.0,0.0,0.0,0.0,0.0,0.0,0.0,0.0,0.0,0.0,0.0,0.0,0.0,0.0,0.0,0.0,0.0,0.0,0.0,0.0,0.0,0.0,0.0,0.0,0.0,0.0,0.0,0.0,0.0,0.0,0.0,0.0,1.9927,0.0,0.0,0.0,0.0,0.0,0.0,0.0,0.0,0.0,0.0,0.0,0.0,0.0,0.0,0.0,0.0,0.0,0.0,0.0,0.0,0.0,0.0,0.0,0.0,0.0,0.0,0.0,0.0,0.0,0.0,0.0,0.0,0.0,0.0,0.0,0.0,0.0,0.0,0.0,0.0,0.0,1.2305,1.2305,1.2305,1.2305,1.215,1.204,1.204,1.131,1.0844,1.0844,1.0088,0.0,0.0,0.0,0.0,0.0,0.0,0.0,0.0,0.0,0.0,0.0,0.0,0.0,0.0,0.0,0.0,0.0,0.0,0.0,0.0,0.0,0.0,0.0,0.0,0.0,0.0,0.0,0.0,0.0,0.0,0.0,0.0,0.0,0.0,0.0,0.0,0.0,0.0,0.0,0.0,0.0,0.0,0.0,0.0,0.0,0.0,0.0,0.0,0.0,0.0,0.0,0.0,0.0,0.0,0.0,0.0,0.0,0.0,0.0,0.0,1.9937,0.0,0.0,0.0,0.0,0.0,0.0,0.0,0.0,0.0,0.0,0.0,0.0,0.0,0.0,0.0,0.0,0.0,0.0,0.0,0.0,0.0,0.0,0.0,0.0,0.0,0.0,0.0,0.0,0.0,0.0,0.0,0.0,0.0,0.0,0.0,0.0,0.0,0.0,0.0,0.0,1.2316,1.2305,1.2305,1.2305,1.2305,1.2305,1.2305,1.191,1.1688,1.1688,1.0919,0.0,0.0,0.0,0.0,0.0,0.0,0.0,0.0,0.0,0.0,0.0,0.0,0.0,0.0,0.0,0.0,0.0,0.0,0.0,0.0,0.0,0.0,0.0,0.0,0.0,0.0,0.0,0.0,0.0,0.0,0.0,0.0,0.0,0.0,0.0,0.0,0.0,0.0,0.0,0.0,0.0,0.0,0.0,0.0,0.0,0.0,0.0,0.0,0.0,0.0,0.0,0.0,0.0,2.2378,2.2452,2.2386,2.3105,2.2883,2.1971,2.1747,2.0784,1.9396,1.979,0.0,0.0,0.0,0.0,0.0,0.0,0.0,0.0,0.0,0.0,0.0,0.0,0.0,0.0,0.0,0.0,0.0,0.0,0.0,0.0,0.0,0.0,1.763,1.7127,1.6898,1.6611,1.6026,0.0,0.0,0.0,0.0,0.0,0.0,0.0,0.0,0.0,0.0,0.0,1.2342,1.2305,1.2305,1.2305,1.2305,1.2305,1.2305,1.2305,1.2305,1.2305,1.1688,1.1316,0.0,0.0,0.0,0.0,0.0,0.0,0.0,0.0,0.0,0.0,0.0,0.0,0.0,0.0,0.0,0.0,0.0,0.0,0.0,0.0,0.0,0.0,0.0,0.0,0.0,0.0,0.0,0.0,0.0,0.0,0.0,0.0,1.8945,1.8096,0.0,0.0,0.0,0.0,0.0,0.0,0.0,0.0,0.0,0.0,0.0,0.0,0.0,2.1709,2.1905,2.301,2.3424,2.3233,2.4327,2.4617,2.415,2.4287,2.4156,2.3845,2.3797,0.0,2.0857,2.1496,0.0,0.0,0.0,0.0,0.0,0.0,0.0,0.0,0.0,0.0,0.0,0.0,0.0,0.0,0.0,0.0,0.0,0.0,0.0,0.0,0.0,0.0,1.8564,1.7639,1.7493,1.7535,1.7432,1.6515,1.5869,1.6446,1.5921,0.0,0.0,0.0,0.0,0.0,0.0,0.0,1.2305,1.2305,1.2305,1.2305,1.2305,1.2305,1.2305,1.2305,1.2305,1.2305,1.2206,1.2132,1.2132,1.2132,0.0,0.0,0.0,0.0,0.0,0.0,0.0,0.0,0.0,0.0,0.0,0.0,0.0,0.0,0.0,0.0,0.0,0.0,0.0,0.0,0.0,0.0,0.0,0.0,0.0,0.0,0.0,0.0,0.0,2.021,1.9991,1.8208,1.9199,1.9495,0.0,0.0,0.0,0.0,0.0,0.0,0.0,0.0,0.0,2.293,2.2981,2.331,2.402,2.4586,2.4812,2.4694,2.5266,2.5308,2.4966,2.4966,2.4735,2.4365,2.4365,2.3788,2.2815,2.2513,2.176,2.0792,0.0,0.0,0.0,0.0,2.0056,2.0138,2.071,2.0751,2.0656,2.1313,0.0,0.0,0.0,0.0,0.0,0.0,0.0,1.8938,1.8479,1.8835,1.9004,1.7884,1.7742,1.7879,1.7879,1.7398,1.695,1.6777,1.649,1.5895,1.4681,0.0,0.0,0.0,0.0,1.2434,1.2305,1.2305,1.2305,1.2305,1.2305,1.2305,1.2305,1.2305,1.2305,1.2305,1.2305,1.2305,1.2305,1.2305,1.2139,0.0,0.0,0.0,0.0,0.0,0.0,0.0,0.0,0.0,0.0,0.0,0.0,0.0,0.0,0.0,0.0,0.0,0.0,0.0,0.0,0.0,0.0,0.0,0.0,0.0,0.0,0.0,0.0,2.1014,2.0836,1.8611,1.9671,2.012,0.0,0.0,0.0,0.0,0.0,0.0,2.2384,2.2599,2.3193,2.4258,2.4287,2.4732,2.5698,2.5693,2.5693,2.5693,2.5693,2.5562,2.5308,2.5308,2.5015,2.4504,2.4504,2.439,2.4128,2.3346,2.2487,2.1685,2.1829,2.1895,2.1858,2.154,2.1418,2.1506,2.225,2.2339,2.2159,2.264,2.2488,2.2036,2.1441,0.0,0.0,0.0,0.0,2.0097,1.9796,1.9819,1.964,1.8486,1.807,1.794,1.7991,1.7991,1.7794,1.7097,1.7044,1.6689,1.5331,0.0,0.0,0.0,0.0,1.247,1.2316,1.2305,1.2305,1.2305,1.2305,1.2305,1.2305,1.2305,1.2305,1.2305,1.2305,1.2305,1.2305,1.2305,1.2305,1.2305,0.0,0.0,0.0,0.0,0.0,0.0,0.0,0.0,0.0,0.0,0.0,0.0,0.0,0.0,0.0,0.0,0.0,0.0,0.0,0.0,0.0,0.0,0.0,0.0,0.0,0.0,0.0,0.0,0.0,1.9417,2.0027,0.0,0.0,0.0,0.0,2.1689,2.2566,2.324,2.3672,2.4486,2.5127,2.5601,2.5586,2.565,2.5693,2.5693,2.5693,2.5693,2.5693,2.5562,2.5308,2.5308,2.5015,2.4504,2.4504,2.439,2.4202,2.4137,2.4073,2.4018,2.4042,2.4042,2.3904,2.269,2.2236,2.2245,2.23,2.2286,2.2492,2.37,2.3415,2.256,2.2523,2.1674,0.0,0.0,2.1599,2.2268,2.1114,2.0972,2.0857,1.9832,1.8618,1.7767,1.7957,1.7991,1.7991,1.794,1.7784,1.7415,1.6638,0.0,1.4617,1.3869,1.2922,1.2305,1.2305,1.2305,1.2305,1.2305,1.2305,1.2305,1.2305,1.2305,1.2305,1.2305,1.2305,1.2305,1.2305,1.2305,1.2305,1.2305,1.2305,0.0,0.0,0.0,0.0,0.0,0.0,0.0,0.0,0.0,0.0,0.0,0.0,0.0,0.0,0.0,0.0,0.0,0.0,0.0,0.0,0.0,0.0,0.0,0.0,0.0,0.0,0.0,0.0,2.0647,2.2006,0.0,2.1751,2.2109,2.2607,2.3098,2.4147,2.4859,2.5006,2.5308,2.5542,2.5708,2.5693,2.5693,2.5693,2.5693,2.5693,2.5693,2.5693,2.5562,2.5308,2.5308,2.5113,2.476,2.4578,2.4464,2.439,2.4242,2.4202,2.4202,2.4202,2.4202,2.4146,2.369,2.3525,2.3525,2.3525,2.3525,2.3599,2.4064,2.3932,2.3483,2.2668,2.2102,2.1797,2.1961,2.2357,2.259,2.2175,2.1733,2.1073,1.9754,1.864,1.7913,1.7974,1.7991,1.7991,1.7991,1.794,1.7664,1.6923,1.6359,1.5728,1.5002,1.3926,1.32,1.32,1.2659,1.2305,1.2305,1.2305,1.2305,1.2305,1.2305,1.2305,1.2305,1.2305,1.2305,1.2305,1.2305,1.2305,1.2305,1.2305,1.2305,0.0,0.0,0.0,0.0,0.0,0.0,0.0,0.0,0.0,0.0,0.0,0.0,0.0,0.0,0.0,0.0,0.0,0.0,0.0,0.0,0.0,0.0,0.0,0.0,0.0,0.0,2.4788,2.2952,2.3793,2.4254,2.3553,2.3678,2.3975,2.4414,2.523,2.5693,2.5693,2.5693,2.5693,2.5693,2.5693,2.5693,2.5693,2.5693,2.5693,2.5693,2.5693,2.5562,2.5308,2.5308,2.5113,2.476,2.4578,2.4464,2.439,2.4242,2.4202,2.4202,2.4202,2.4202,2.4202,2.4202,2.4202,2.4202,2.4202,2.4202,2.4202,2.4202,2.4202,2.4055,2.3189,2.2942,2.2989,2.3153,2.3247,2.3317,2.3317,2.2416,2.125,2.0268,1.8994,1.7991,1.7991,1.7991,1.7991,1.7991,1.7991,1.7811,1.7268,1.6853,1.6411,1.5842,1.4887,1.4081,1.3745,1.3164,1.2647,1.2342,1.2305,1.2305,1.2305,1.2305,1.2305,1.2305,1.2305,1.2305,1.2305,1.2305,1.2305,1.2305,1.2305,1.2305,1.2305,0.0,0.0,0.0,0.0,0.0,0.0,0.0,0.0,0.0,0.0,0.0,0.0,0.0,0.0,0.0,0.0,0.0,0.0,0.0,0.0,0.0,0.0,0.0,2.6019,2.6665,2.6951,2.6185,2.5253,2.5176,2.6447,2.4934,2.4375,2.562,2.5693,2.5693,2.5693,2.5693,2.5693,2.5693,2.5693,2.5693,2.5693,2.5693,2.5693,2.5693,2.5693,2.5562,2.5308,2.5308,2.5005,2.4504,2.4504,2.439,2.4202,2.4202,2.4202,2.4202,2.4202,2.4202,2.4202,2.4202,2.4202,2.4202,2.4202,2.4202,2.4202,2.4202,2.4202,2.4202,2.4202,2.4202,2.4202,2.4202,2.4365,2.4504,2.4504,2.3008,2.1502,2.1502,1.9704,1.7991,1.7991,1.7991,1.7991,1.7991,1.7991,1.794,1.775,1.7121,1.6576,1.6376,1.5711,0.0,1.3918,1.3745,1.3346,1.2445,1.233,1.2311,1.2305,1.2311,1.2311,1.2305,1.2305,1.2305,1.2305,1.2305,1.2305,1.2305,1.2305,1.2316,1.2335,0.0,0.0,0.0,0.0,0.0,0.0,0.0,0.0,0.0,0.0,0.0,0.0,0.0,0.0,0.0,0.0,0.0,0.0,0.0,0.0,0.0,0.0,2.8167,2.6826,2.7205,2.7284,2.6364,2.6395,2.6344,2.5978,2.5475,2.5328,2.5664,2.5693,2.5693,2.5693,2.5693,2.5693,2.5693,2.5693,2.5693,2.5693,2.5693,2.5693,2.5693,2.5693,2.5659,2.5586,2.5586,2.5416,2.5064,2.4883,2.4661,2.4415,2.4251,2.4202,2.4202,2.4202,2.4202,2.4202,2.4202,2.4202,2.4202,2.4202,2.4202,2.4202,2.4202,2.4202,2.4202,2.4202,2.4202,2.4226,2.439,2.4612,2.476,2.4554,2.3153,2.1689,2.1305,1.9572,1.7991,1.7991,1.7991,1.7991,1.7991,1.7991,1.7974,1.793,1.775,1.7596,1.7545,1.6776,0.0,1.5843,1.4575,1.36,1.3346,1.2914,1.2551,1.2318,1.2517,1.2569,1.2318,1.2305,1.2305,1.2305,1.2305,1.2305,1.2305,1.2305,1.2592,0.0,0.0,0.0,0.0,0.0,0.0,0.0,0.0,0.0,0.0,0.0,0.0,0.0,0.0,0.0,0.0,0.0,0.0,0.0,0.0,0.0,0.0,2.9297,2.9986,2.9039,2.921,2.9218,2.8633,2.8508,2.8215,2.7626,2.7186,2.6959,2.6959,2.6562,2.6332,2.6332,2.5941,2.5693,2.5693,2.5693,2.5693,2.5693,2.5693,2.5693,2.5693,2.5693,2.5635,2.5538,2.5538,2.5391,2.5113,2.4858,2.4637,2.448,2.4267,2.4202,2.4202,0.0,0.0,0.0,0.0,2.4202,2.4202,2.4202,2.4202,2.4202,2.4202,2.4202,2.4202,2.4202,2.4202,2.4226,2.4341,2.4538,2.4711,2.4529,2.3121,2.1647,2.1326,1.9591,1.7991,1.7991,1.7991,1.7991,1.7991,1.7991,0.0,1.7991,1.7991,1.7991,1.7991,1.7545,1.7035,1.6654,1.5261,1.4171,1.3745,1.3159,1.2717,1.2524,1.2785,0.0,0.0,0.0,1.2685,1.2685,1.2685,0.0,0.0,0.0,1.2906,1.3372,1.4164,0.0,0.0,1.477,1.5401,0.0,0.0,0.0,0.0,0.0,0.0,0.0,0.0,0.0,0.0,0.0,0.0,0.0,0.0,0.0,0.0,3.0733,3.1705,3.1705,3.1705,3.1661,3.1538,3.0745,3.017,3.0034,2.912,2.8541,2.8541,2.7605,2.7023,2.7023,0.0,0.0,0.0,0.0,2.5693,2.5693,2.5693,2.5693,2.5693,2.5693,2.5586,2.5342,2.5342,2.5211,2.4932,2.4661,2.4538,2.448,2.4267,2.4202,2.4202,2.4202,2.4202,2.4202,2.4202,2.4202,2.4202,2.4202,0.0,0.0,2.4202,2.4202,2.4202,2.4202,2.4202,2.4202,2.4202,2.4365,2.4529,2.4514,2.3134,2.1755,2.1713,1.9917,1.8205,1.8205,1.8098,1.7991,1.7991,1.7991,1.7991,1.7991,1.7991,1.7991,1.7991,1.7991,1.7699,1.6871,1.5974,1.5086,1.4152,1.3461,0.0,1.301,1.3158,1.3227,1.3193,1.3193,1.3193,1.3193,1.3193,1.3193,1.3193,1.3193,1.3246,1.3325,1.4104,1.4933,1.583,1.6569,1.6958,0.0,0.0,0.0,0.0,0.0,0.0,0.0,0.0,0.0,0.0,0.0,0.0,0.0,0.0,0.0,2.9305,3.0669,3.1705,3.1705,3.1705,3.1405,3.0588,3.0328,2.9886,2.9073,2.8075,2.7487,2.7487,2.6562,2.5989,2.5989,2.5805,2.5693,2.5693,2.5693,2.5693,2.5693,2.5693,2.5693,2.5693,2.5693,0.0,2.5611,2.5611,2.5489,2.5211,2.4932,2.4711,2.448,2.4267,2.4202,2.4202,2.4202,2.4202,2.4202,2.4202,2.4202,2.4202,2.4202,2.4202,2.4202,2.4202,2.4202,2.4202,2.4202,2.4202,0.0,2.4202,2.4498,2.4784,2.4554,2.3941,2.3307,2.3076,2.1253,1.9523,1.9523,1.874,1.7991,1.7991,1.7991,1.7991,1.7991,1.7991,1.7991,1.7991,1.7991,1.794,1.7759,1.7191,1.6678,1.6327,1.5406,1.4651,1.4207,1.378,1.344,1.3207,1.3193,1.3193,1.3193,1.3193,1.3193,1.3193,1.3193,1.3489,1.4089,1.4258,1.5111,1.659,1.6859,1.73,0.0,0.0,0.0,0.0,0.0,0.0,0.0,0.0,0.0,0.0,0.0,2.7678,0.0,0.0,2.9627,3.0371,3.1187,3.1705,3.1705,3.1705,3.1516,3.1003,3.0958,3.0565,2.9555,2.9004,2.8495,2.8004,2.701,2.6442,2.6442,2.5965,2.5693,2.5693,2.5693,2.5693,2.5693,2.5693,2.5693,2.5693,2.5693,2.5693,2.5693,2.5693,2.5635,2.5489,2.5211,2.5005,2.4858,2.4489,2.4301,2.4202,2.4202,2.4202,2.4202,2.4202,2.4202,2.4202,2.4202,2.4202,2.4202,2.4202,2.4202,2.4202,2.4202,2.4276,2.4341,2.4341,2.4711,2.5064,2.4932,2.4357,2.3767,2.3622,2.1704,1.9893,1.9893,1.8888,1.7991,1.7991,1.7991,1.7991,1.7991,1.8166,1.8235,1.803,1.8166,1.8303,1.8303,1.7774,1.7359,1.7267,1.5953,1.4998,1.4724,1.4172,1.378,1.3661,1.3647,1.3647,1.3647,1.3647,1.3647,1.3647,1.3647,1.3824,1.4211,1.5077,1.5936,1.6783,1.7702,1.8133,0.0,0.0,0.0,0.0,0.0,0.0,0.0,0.0,2.7662,2.7857,2.8086,2.8619,2.9775,2.9894,3.0245,3.15,3.1705,3.1705,3.1705,3.1705,3.1705,3.1705,3.1705,3.1383,3.0565,3.0306,2.9863,2.905,2.7887,2.7213,2.7213,2.6259,2.5732,2.5835,2.5757,2.5732,2.5835,2.5757,2.5693,2.5693,2.5693,2.5693,2.5693,2.5693,2.5693,2.5693,2.5416,2.5235,2.5113,2.4686,2.439,2.4202,2.4202,2.4202,2.4202,2.4202,2.4202,2.4202,2.4202,2.4202,2.4202,2.4202,2.4202,2.4202,2.4202,2.4341,2.4504,2.4504,2.4883,2.5308,2.5308,2.4739,2.4102,2.3857,2.2002,2.0225,1.9952,1.8888,1.7991,1.7991,1.8059,1.8118,1.8118,1.8469,1.8605,1.8176,1.8479,1.8742,1.8742,1.8294,1.792,1.7704,1.6259,1.5161,1.4783,1.4351,1.4109,1.4109,1.4109,1.4109,1.4109,1.4109,1.4109,1.4109,1.4271,1.4356,1.4356,1.5925,1.6801,1.6984,1.8387,1.8778,0.0,0.0,0.0,2.5265,2.6502,2.7656,0.0,0.0,3.0079,2.9699,3.0918,3.2013,3.1777,3.1705,3.1688,3.1703,3.1705,3.1705,3.1705,3.1705,3.1705,3.1705,3.1705,3.1661,3.1538,3.0722,3.0147,3.0034,2.8274,2.7213,2.7213,2.6259,2.5893,2.6309,2.5913,2.5893,2.6309,2.5913,2.5693,2.5693,2.5693,2.5693,2.5693,2.5693,2.5693,2.5693,2.5416,2.5039,2.4578,2.4504,2.439,2.4202,2.4202,2.4202,2.4202,2.4202,2.4202,2.4202,2.4202,2.4202,2.4202,2.4202,2.4202,2.4202,2.4202,2.4341,2.4504,2.4504,2.4883,2.5308,2.5308,2.5382,2.5201,2.4062,2.2705,2.1348,2.0166,1.8888,1.7991,1.7991,1.8293,1.8529,1.8529,1.8926,1.9072,1.8598,1.8936,1.9219,1.9219,1.9312,1.9013,1.8067,1.7241,1.6075,1.4343,1.4131,1.4109,1.4109,1.4109,1.4109,1.4109,1.4109,1.4109,1.4109,1.4866,1.5256,1.5256,1.6227,1.7107,1.7856,1.8058,1.8503,2.5246,0.0,0.0,0.0,2.8518,2.9263,2.9878,3.0715,3.1361,3.1369,3.1973,3.2431,3.206,3.1994,3.1937,0.0,3.1705,3.1705,3.1705,3.1705,3.1705,3.1705,3.1705,3.1472,3.0891,2.9909,2.9206,2.8871,2.7541,2.6847,2.7072,2.6689,2.6455,2.6387,2.6211,2.6201,2.6387,2.5932,2.5845,2.6113,2.5835,2.5693,2.5693,2.5693,2.5693,2.5684,2.5586,2.5308,2.4966,2.4966,2.4735,2.4365,2.4365,2.4291,2.4202,2.4202,2.4202,2.4202,2.4202,2.4202,2.4202,2.4202,2.4276,2.4365,2.4365,2.4637,2.4966,2.4966,2.5235,2.5513,2.5333,2.5513,2.5328,2.3909,2.2705,2.1523,2.0195,1.9083,1.8361,1.8361,1.8703,1.9014,1.9014,1.9365,1.9571,1.9396,1.9513,1.9648,1.9648,1.9859,1.9337,1.761,1.6603,1.5532,1.4208,1.4109,1.4109,1.4109,1.4109,1.4109,1.4109,1.4109,1.4109,1.4109,1.4964,1.5394,1.5394,1.678,1.7646,1.8017,1.8527,1.8955,2.6413,0.0,0.0,2.9434,3.0317,3.0949,3.1824,3.2127,3.2294,3.2454,3.2475,3.2431,3.2223,3.2081,3.1937,3.1805,3.1739,3.1705,3.1705,3.1705,3.1705,3.1705,3.1827,3.1632,3.0911,2.9896,2.9189,2.8935,2.7717,2.7107,2.7389,2.7165,2.6934,2.6773,2.6621,2.6621,2.6763,2.6284,2.6225,2.6553,2.6098,2.5893,2.5893,2.5767,2.5693,2.5693,2.5693,2.5538,2.5308,2.5308,2.5039,2.4603,2.4603,2.4489,2.4267,2.4267,2.4251,2.4202,2.4202,2.4202,2.4202,2.4202,2.4341,2.4504,2.4504,2.4809,2.5186,2.5186,2.5342,2.5455,2.5333,2.544,2.5145,2.3406,2.2431,2.1475,1.9874,1.9054,1.8637,1.8771,1.917,1.9481,1.9481,1.9814,2.0088,2.0088,2.0088,2.0088,2.0088,1.9946,1.8986,1.6777,1.5856,1.5047,1.4173,1.4109,1.4109,1.4109,1.4109,1.4109,1.4109,1.4109,1.4109,1.4109,1.5193,1.576,1.576,1.7513,1.8359,1.8367,1.9015,1.9301,0.0,0.0,3.0658,3.0278,3.1618,3.2886,3.2494,3.2732,3.2991,3.2732,3.2689,3.2689,3.268,3.231,3.1994,3.1994,3.1827,3.1705,3.1705,3.1705,3.1705,3.1705,3.2164,3.2466,0.0,3.1413,3.0947,3.1449,2.9584,2.8451,2.8462,2.7536,2.7207,2.7643,2.7217,2.7197,2.7653,2.7197,2.6982,2.6992,2.6572,2.6367,2.6357,2.5913,2.5693,2.5693,2.5693,2.5538,2.5308,2.5308,2.5137,2.4883,2.4883,2.4735,2.4489,2.4489,2.4365,2.4202,2.4202,2.4202,2.4202,2.4202,2.4341,2.4504,2.4504,2.4677,2.4907,2.4907,2.4907,2.4981,2.5235,2.5318,2.4731,2.2485,2.1914,2.1299,1.9104,1.8617,1.8724,1.9189,1.9609,1.9874,1.9874,2.0273,2.0586,2.0586,2.0586,2.0586,2.0586,1.9452,1.7827,1.5677,1.5415,1.5047,1.4173,1.4109,1.4109,1.4109,1.4109,1.4109,1.4109,1.4109,1.4109,1.4109,1.578,1.6657,1.6657,1.8407,1.9262,1.9262,1.9282,1.9301,0.0,0.0,3.0925,3.188,3.2612,3.3059,3.2909,3.2673,3.2482,3.2398,3.1514,3.0723,3.0537,3.0569,3.0545,3.0358,3.1105,3.1705,3.1705,3.1705,3.1827,3.22,3.208,0.0,0.0,0.0,0.0,3.0609,2.9296,2.8344,2.798,2.7914,2.7803,2.7692,2.7555,2.7545,2.7692,2.7236,2.6986,2.6986,2.6274,2.5932,2.5923,2.5776,2.5693,2.5693,2.5693,2.5645,2.5562,2.5357,2.5235,2.5137,2.4966,2.4735,2.4504,2.4504,2.4365,2.4202,2.4202,2.4202,2.4202,2.4202,2.4341,2.4504,2.4504,2.4686,2.4907,2.4907,2.4907,2.4907,2.5005,2.5162,2.4953,2.3612,2.278,2.1943,2.0605,1.9883,1.9503,1.9678,2.0049,2.0361,2.0361,2.0507,2.0605,2.0605,2.0605,2.0605,2.0605,1.8908,1.7464,1.6731,1.5394,1.4412,1.413,1.4109,1.4109,1.4109,1.4109,1.4109,1.4109,1.4109,1.4109,1.4109,1.5801,1.6698,1.6698,1.8447,1.9301,1.9301,1.9301,1.9301,0.0,3.2104,3.2245,3.2924,3.2939,3.2852,3.3136,3.2546,3.2059,3.2539,3.1037,2.9693,2.981,2.9347,2.9088,2.9581,3.0314,3.1033,3.1633,3.1705,3.1827,3.2176,3.208,3.2113,0.0,0.0,0.0,3.0387,2.9026,2.8134,2.7924,2.8171,2.8164,2.7927,2.7917,2.7917,2.7917,2.7607,2.7314,2.6986,2.6284,2.5864,2.5693,2.5693,2.5693,2.5693,2.5693,2.5645,2.5538,2.5357,2.5235,2.5137,2.4966,2.4735,2.4504,2.4504,2.4365,2.4202,2.4202,2.4202,2.4202,2.4202,2.4341,2.4504,2.4504,2.4612,2.476,2.476,2.476,2.4822,2.5072,2.5357,2.5342,2.4571,2.3528,2.2479,2.163,2.0625,1.9942,2.0117,2.039,2.0605,2.0605,2.0605,2.0605,2.0605,2.0605,2.0459,2.0079,1.8977,1.7968,1.7273,1.5897,1.4908,1.4601,1.4271,1.4109,1.4109,1.4109,1.4109,1.4109,1.4109,1.4109,1.4109,1.5801,1.6698,1.6698,1.8447,1.9301,1.9301,1.9301,1.9301,3.3051,3.3817,3.4447,3.3471,3.276,3.2511,3.3324,3.247,3.1881,3.3209,3.1234,2.9571,0.0,0.0,2.7808,2.9611,2.963,2.9962,3.15,3.1705,3.1717,0.0,0.0,0.0,0.0,0.0,0.0,3.0821,0.0,2.7921,2.8232,2.8281,2.8281,2.8262,2.8262,2.8262,2.8262,2.8242,2.7812,2.6947,2.6562,2.6143,2.5693,2.5693,2.5684,2.5684,2.5684,2.5538,2.5284,2.526,2.5113,2.4907,2.4883,2.4711,2.4504,2.4504,2.4365,2.4202,2.4202,2.4202,2.4202,2.4202,2.4316,2.448,2.448,2.448,2.4489,2.4507,2.4541,2.4709,2.5431,2.583,2.5904,2.5367,2.416,2.2937,2.2187,2.0928,2.0068,2.0498,2.0605,2.0605,2.0605,2.0605,2.0605,2.0605,2.0605,2.0216,1.9215,1.9529,1.9125,1.7224,1.6813,1.6288,1.5415,1.458,1.4109,1.4109,1.4109,1.4109,1.4109,1.4152,1.4152,1.4109,1.5863,1.6739,1.6698,1.8447,1.9301,1.9301,1.9301,1.9301,3.4784,3.4829,3.4559,3.487,3.4399,3.4059,3.4867,3.395,3.3252,3.4232,3.0921,2.8488,0.0,0.0,0.0,2.9611,3.0564,0.0,3.1635,3.1705,0.0,3.226,0.0,3.2122,3.266,3.1001,0.0,0.0,2.9529,2.8482,2.7865,2.8151,2.8144,2.7858,2.7848,2.7848,2.7848,2.751,2.708,2.6543,2.6079,2.5825,2.5693,2.5693,2.5586,2.5416,2.5416,2.5235,2.499,2.4784,2.4784,2.4883,2.4686,2.4554,2.4504,2.4504,2.4365,2.4202,2.4202,2.4202,2.4202,2.4202,2.4226,2.4276,2.4276,2.4276,2.434,2.4629,2.4863,2.5189,2.5881,2.6251,2.6544,2.6931,2.5297,2.3652,2.375,2.1992,2.0459,2.0586,2.0605,2.0605,2.0605,2.0605,2.0605,2.0605,2.0605,2.0508,2.0226,1.9619,1.8718,1.7374,1.6457,1.5545,1.4517,1.4229,1.4109,1.4109,1.4109,1.4109,1.4109,1.472,1.4762,1.4109,1.6453,1.735,1.6698,1.8447,1.9301,1.9301,1.9301,1.9301,3.5927,3.5677,3.5047,3.5487,3.4806,3.4089,3.4437,3.3436,3.2511,3.2732,2.9693,0.0,0.0,0.0,0.0,0.0,0.0,0.0,3.1587,3.1705,3.1803,0.0,3.1875,0.0,3.1909,3.0342,2.9364,0.0,2.889,2.8261,2.7718,2.7917,2.7936,2.7702,2.7506,2.7383,2.7383,2.6953,2.6621,2.6387,2.5923,2.5693,2.5693,2.5693,2.5611,2.5489,2.5489,2.526,2.4883,2.4735,2.4637,2.4587,2.4415,2.4365,2.4365,2.4365,2.4301,2.4202,2.4202,2.4202,2.4202,2.4202,2.4202,2.4238,2.4397,2.4452,2.4544,2.4948,2.5331,2.5773,2.6326,2.6768,2.7221,2.7815,2.5981,2.4287,2.5107,2.2814,2.0605,2.0605,2.0605,2.0605,2.0605,2.0605,2.0605,2.0605,2.0605,2.0605,2.0605,1.9658,1.8858,1.8479,1.6793,1.5573,1.5269,1.4538,1.4109,1.4109,1.4109,1.4109,1.4109,1.4943,1.5172,1.4678,1.6494,1.7391,1.7269,1.8238,1.8935,1.9301,1.9301,1.9301,3.6625,3.6383,3.5795,3.5929,3.4949,3.3859,3.3493,3.2425,3.1314,3.0629,0.0,2.7559,3.0303,0.0,2.7424,3.0951,0.0,3.014,3.1512,3.1705,3.1705,3.1705,3.1705,3.1385,3.0568,2.9759,2.9002,2.8241,2.7888,2.7692,2.7692,2.7692,2.7663,2.7614,2.7158,2.6879,2.682,2.6543,2.6357,2.6299,2.5893,2.5693,2.5693,2.5693,2.5684,2.5645,2.5645,2.5333,2.4858,2.4858,2.4587,2.4202,2.4202,2.4202,2.4202,2.4202,2.4202,2.4211,2.4266,2.4284,2.4284,2.4284,2.4284,2.4342,2.4755,2.4884,2.4966,2.5361,2.5878,2.6378,2.6788,2.7324,2.7848,2.8135,2.6406,2.498,2.6064,2.344,2.0791,2.0635,2.0605,2.0605,2.0605,2.0605,2.0605,2.0605,2.0605,2.0605,2.0605,1.9785,1.9303,1.9539,1.7472,1.6152,1.6329,1.5089,1.4229,1.4109,1.4109,1.4152,1.4271,1.511,1.5581,1.5581,1.6535,1.7371,1.7997,1.8118,1.8567,1.9301,1.9301,1.9301,3.6805,3.6954,3.6844,3.7572,3.7026,3.6084,3.5199,3.4264,0.0,0.0,0.0,2.8524,3.2677,3.0584,0.0,3.2729,0.0,0.0,0.0,0.0,3.1705,0.0,0.0,0.0,0.0,0.0,0.0,0.0,2.8472,2.7692,2.7692,2.7692,2.7526,2.7139,2.6719,2.6328,2.5942,2.624,2.6211,2.5825,2.5747,2.5693,2.5693,2.5693,2.5586,2.5367,2.5367,2.5064,2.4563,2.4563,2.4415,2.4202,2.4202,2.4202,2.4202,2.4202,2.4202,2.4257,2.4581,2.47,2.47,2.47,2.47,2.4773,2.5168,2.5297,2.5379,2.5774,2.6281,2.6807,2.7187,2.7756,2.8142,2.7868,2.691,2.6006,2.5854,2.3893,2.1855,2.0791,2.0605,2.0605,2.0605,2.0605,2.0605,2.0605,2.0605,2.0605,2.0605,2.044,1.9658,1.7948,1.7968,1.7139,1.4741,1.4929,1.4866,1.4152,1.4109,1.4412,1.5151,1.6008,1.6473,1.6473,1.8037,1.8567,1.7997,1.8707,1.9163,1.9301,1.9301,1.9301,3.6356,3.6606,3.6631,3.7519,3.7301,3.6377,3.4343,0.0,0.0,0.0,0.0,2.8044,3.1167,0.0,0.0,0.0,0.0,0.0,0.0,0.0,0.0,0.0,0.0,0.0,0.0,0.0,0.0,0.0,2.8018,2.7115,2.7314,2.7334,2.7021,2.6342,2.6377,2.6182,2.5693,2.5923,2.5923,2.5693,2.5693,2.5693,2.5693,2.5693,2.5635,2.5513,2.5513,2.5284,2.4907,2.476,2.4563,2.4341,2.4251,2.4202,2.4229,2.445,2.4507,2.4562,2.4975,2.5113,2.5113,2.5113,2.5113,2.5186,2.5581,2.57,2.5773,2.6125,2.6499,2.6842,2.6946,2.7313,2.7578,2.7373,2.7213,2.6529,2.4469,2.3747,2.292,2.0967,2.0605,2.0605,2.0605,2.0605,2.0605,2.0605,2.0508,2.0274,1.9825,1.9638,1.9155,1.8089,1.7444,1.6453,1.4908,1.4741,1.4559,1.413,1.4109,1.4496,1.5352,1.6247,1.6923,1.7371,1.7755,1.8178,1.8667,1.8178,1.8407,1.9301,1.9301,1.9301,3.5685,3.6095,3.6235,3.692,3.7033,3.6159,3.3002,3.2409,0.0,0.0,0.0,2.7373,2.9261,0.0,0.0,0.0,0.0,0.0,0.0,0.0,0.0,0.0,0.0,0.0,0.0,0.0,0.0,0.0,2.7566,2.667,2.6967,2.6934,2.6572,2.5874,2.6113,2.6059,2.5693,2.5693,2.5693,2.5693,2.5693,2.5693,2.5693,2.5693,2.5693,2.5693,2.5693,2.5513,2.5211,2.499,2.4711,2.4415,2.4251,2.4257,2.4376,2.4682,2.4856,2.4994,2.5388,2.5462,2.5416,2.5489,2.5462,2.5453,2.5765,2.5857,2.5945,2.621,2.6473,2.666,2.6602,2.6807,2.7041,2.7139,2.7344,2.6705,2.3584,2.3688,2.3652,2.1084,2.0605,2.0605,2.0605,2.0605,2.0605,2.0605,2.0313,1.9814,1.9085,1.8598,1.823,1.8009,1.678,1.5747,1.5172,1.4657,1.4292,1.4109,1.4109,1.458,1.5636,1.6329,1.7107,1.7977,1.733,1.7654,1.9015,1.7654,1.7775,1.9301,1.9301,1.9301,3.4923,3.5874,3.628,3.6385,3.6823,3.6266,3.2466,0.0,0.0,0.0,2.6792,2.7373,2.9261,2.8874,0.0,0.0,0.0,0.0,0.0,0.0,0.0,0.0,0.0,0.0,0.0,0.0,0.0,2.9293,2.7851,2.6947,2.6986,2.665,2.6406,2.6328,2.5952,2.5732,2.5693,2.5693,2.5693,2.5693,2.5693,2.5693,2.5693,2.5693,2.5693,2.5693,2.5693,2.5416,2.4932,2.4907,2.4637,2.4226,2.4202,2.4415,2.4755,2.4792,2.503,2.5398,2.5819,2.57,2.5453,2.5846,2.5691,2.5407,2.5434,2.5453,2.5505,2.5765,2.6041,2.6297,2.6551,2.6807,2.7119,2.7536,2.7334,2.6528,2.4635,2.4313,2.3652,2.1084,2.0605,2.0605,2.0605,2.0605,2.0605,2.0605,1.9912,1.9292,1.9026,1.8069,1.705,1.6067,1.6511,1.6157,1.437,1.4859,1.4943,1.4152,1.4109,1.4845,1.6514,1.6657,1.7107,1.7977,1.7917,1.7957,1.8118,1.7957,1.8367,1.9301,1.9301,1.9301,3.4375,3.5273,3.5752,3.5752,3.6228,3.5793,3.2293,0.0,0.0,2.7504,2.6792,2.7025,2.7781,2.7328,2.6782,0.0,0.0,0.0,0.0,0.0,0.0,0.0,0.0,0.0,0.0,0.0,0.0,2.8,2.736,2.6879,2.665,2.6484,2.6269,2.5981,2.5806,2.5693,2.5693,2.5693,2.5693,2.5693,2.5693,2.5693,2.5693,2.5693,2.5693,2.5693,2.5693,2.5586,2.5357,2.503,2.4926,2.4952,2.467,2.481,2.5196,2.5425,2.5462,2.5453,2.5847,2.5728,2.5388,2.5297,2.5168,2.5086,2.5324,2.5398,2.542,2.5572,2.5701,2.5812,2.601,2.6151,2.6391,2.7109,2.7139,2.6508,2.4771,2.4391,2.3652,2.1084,2.0605,2.0605,2.0605,2.0605,2.043,1.9893,1.9431,1.8658,1.7354,1.6698,1.5925,1.4859,1.5532,1.5511,1.4208,1.4412,1.4475,1.413,1.4109,1.4643,1.5863,1.5925,1.6329,1.7208,1.6698,1.6698,1.7229,1.7229,1.7674,1.8527,1.9054,1.9301,3.3947,3.4733,3.5099,3.5099,3.5288,3.4719,0.0,0.0,3.0146,2.7373,2.6792,2.6753,2.6581,2.6192,2.5592,0.0,0.0,0.0,0.0,0.0,0.0,0.0,0.0,0.0,0.0,0.0,2.8616,2.712,2.6986,2.6752,2.623,2.6191,2.603,2.5703,2.5693,2.5693,2.5693,2.5693,2.5693,2.5693,2.5693,2.5693,2.5693,2.5693,2.5693,2.5693,2.5693,2.5659,2.5572,2.5212,2.5207,2.5355,2.5073,2.5223,2.5609,2.5911,2.5893,2.5783,2.593,2.5728,2.5333,2.4939,2.4728,2.4672,2.4948,2.504,2.5078,2.5277,2.5442,2.5574,2.5688,2.5693,2.5932,2.6781,2.6986,2.6508,2.4771,2.4391,2.3652,2.1084,2.0605,2.0527,2.0265,2.0216,1.9912,1.9054,1.8519,1.7686,1.6198,1.5594,1.5013,1.4194,1.4643,1.4762,1.4152,1.4109,1.4109,1.4109,1.4109,1.4496,1.5352,1.5394,1.5684,1.6309,1.5698,1.5698,1.6309,1.6576,1.7139,1.8017,1.8895,1.9301,3.3701,3.4397,3.4412,3.4412,3.3966,3.3024,0.0,0.0,2.9087,2.7199,2.6792,2.6621,2.6016,2.5893,2.5605,2.4747,0.0,0.0,0.0,0.0,0.0,0.0,0.0,0.0,0.0,0.0,2.8528,2.7118,2.6986,0.0,2.5742,2.5718,2.5718,2.5693,2.5693,2.5693,2.5693,2.5693,2.5693,2.5693,2.5693,2.5693,2.5693,2.5693,2.5693,2.5693,2.5693,2.5538,2.5322,2.5442,2.5336,2.5121,2.5327,2.5636,2.5976,2.6012,2.6251,2.6545,2.6132,2.5728,2.5333,2.4939,2.4526,2.4211,2.4211,2.4211,2.431,2.4769,2.5294,2.5693,2.5693,2.5693,2.5932,2.6781,2.6986,2.6508,2.4771,2.4391,2.3652,2.1084,2.0605,2.0333,1.946,1.9321,1.9015,1.8138,1.7115,1.6324,1.6041,1.5075,1.4342,1.413,1.4109,1.4109,1.4109,1.4109,1.4109,1.4109,1.4109,1.4496,1.5352,1.5394,1.5394,1.5415,1.5394,1.5394,1.5415,1.6288,1.7139,1.8017,1.8895,1.9301,3.1352,3.1802,3.1802,3.1802,3.1657,3.1135,2.9639,0.0,2.8579,2.7097,2.6792,2.6621,2.6002,2.555,2.5397,2.5706,2.6257,0.0,0.0,0.0,0.0,0.0,0.0,0.0,0.0,0.0,2.7952,2.7523,2.7178,2.6752,2.6211,2.5874,2.5693,2.5693,2.5693,2.5693,2.5693,2.5693,2.5693,2.5693,2.5693,2.5693,2.5693,2.5693,2.5693,2.5693,2.5693,2.5835,2.6008,2.565,2.5812,2.6246,2.5931,2.6049,2.6416,2.6416,2.6315,2.6123,2.5719,2.5324,2.4929,2.4507,2.4312,2.4202,2.4202,2.4202,2.4251,2.4538,2.5372,2.6073,2.5657,2.5865,2.6347,2.6979,2.7321,2.6904,2.4853,2.4391,2.3652,2.1084,2.0605,2.0323,1.946,1.9193,1.8598,1.7135,1.646,1.5835,1.5012,1.4601,1.4321,1.413,1.4109,1.4109,1.4109,1.4109,1.4109,1.4109,1.4109,1.4229,1.4496,1.4517,1.4517,1.4517,1.4517,1.4517,1.4517,1.5394,1.6576,1.8017,1.8278,1.8727,0.0,3.0598,3.0598,3.0598,3.0249,0.0,0.0,0.0,2.7751,2.6967,2.6792,2.654,2.5701,2.5423,2.5401,2.5695,2.6736,0.0,0.0,0.0,0.0,0.0,0.0,0.0,0.0,2.885,2.7858,2.7702,2.7266,2.6836,2.6406,2.5952,2.5693,2.5693,2.5693,2.5693,2.5693,2.5693,2.5693,2.5693,2.5693,2.5693,2.5693,2.5693,2.5693,2.5703,2.5884,2.6143,0.0,2.6111,2.6307,2.6756,2.6383,2.6389,2.6591,2.6591,2.6444,2.6169,2.5765,2.5453,2.5186,2.4773,2.4636,2.4608,2.4461,2.4481,2.4535,2.4501,2.5348,2.6179,2.5645,2.5982,2.6559,2.696,2.7395,2.707,2.4761,2.4331,2.354,2.0566,2.0001,1.9579,1.8278,1.7948,1.7403,1.5974,1.5553,1.5158,1.4496,1.4335,1.4243,1.4109,1.4109,1.4109,1.4109,1.4109,1.4109,1.4109,1.4109,1.4109,1.4109,1.4109,1.4109,1.4109,1.4109,1.4109,1.4109,1.4964,1.6124,1.7533,1.7856,1.8287,0.0,0.0,0.0,0.0,0.0,0.0,0.0,0.0,0.0,0.0,2.6792,2.6461,2.5342,2.5495,2.5645,2.5128,2.7291,0.0,0.0,0.0,0.0,0.0,0.0,0.0,3.0536,2.9284,2.8161,2.777,2.7305,2.6875,2.6455,2.5991,2.5713,2.5693,2.5693,2.5693,2.5693,2.5693,2.5693,2.5693,2.5693,2.5693,2.5693,2.5693,2.5693,2.5737,2.6201,2.6406,2.6419,2.6702,2.6818,2.6795,2.6661,2.6591,2.6591,2.6591,2.6591,2.6554,2.6132,2.5967,2.5901,2.5443,2.5333,2.5287,2.492,2.4972,2.5109,2.4684,2.5326,2.6041,2.5635,2.6079,2.6643,2.6785,2.7259,2.7046,2.465,2.426,2.3344,1.9834,1.9068,1.8371,1.6358,1.5992,1.569,1.4817,1.4503,1.4377,1.4377,1.4222,1.4109,1.4109,1.4109,1.4109,1.4109,1.4109,1.4109,1.4109,1.4109,1.4109,1.4109,1.4109,1.4109,1.4109,1.4109,1.4109,1.4109,1.4901,1.576,1.6637,1.7452,1.7876,0.0,0.0,0.0,0.0,0.0,0.0,0.0,0.0,0.0,0.0,0.0,2.6711,2.6441,2.6056,2.6168,2.7298,2.8675,0.0,0.0,0.0,0.0,0.0,0.0,0.0,3.0659,2.9284,2.8252,2.8181,2.778,2.735,2.6894,2.6465,2.6084,2.5703,2.5693,2.5693,2.5693,2.5693,2.5693,2.5693,2.5693,2.5693,2.5693,2.5693,2.5693,2.5737,2.6201,2.6472,2.6573,2.6738,2.6872,2.694,2.6681,2.6591,2.6591,2.6591,2.6591,2.6554,2.6132,2.5792,2.5416,2.4725,2.4682,2.4929,2.4838,2.5404,2.5958,2.5369,2.5888,2.6514,2.6008,2.6327,2.6795,2.6917,2.7236,2.7136,2.5876,2.4859,2.3446,2.1083,1.9776,1.842,1.6355,1.5869,1.5476,1.4601,1.4307,1.4166,1.4166,1.4124,1.4109,1.4109,1.4109,1.4109,1.4109,1.4109,1.4109,1.4109,1.4109,1.4109,1.4109,1.4109,1.4109,1.4109,1.4109,1.4109,1.4109,1.4313,1.4845,1.5698,1.5925,1.6739,2.6792,2.6792,2.6792,2.6792,2.6792,2.6792,0.0,0.0,0.0,0.0,0.0,0.0,2.6792,0.0,0.0,0.0,2.8311,0.0,0.0,0.0,0.0,0.0,0.0,2.9734,0.0,2.9433,2.8291,2.8291,2.7936,2.7594,2.7324,2.6914,2.6484,2.6055,2.601,2.5913,2.5693,2.5693,2.5693,2.5693,2.5693,2.5693,2.5693,2.5693,2.5825,2.604,2.6484,2.6838,2.7111,2.7088,2.7116,2.7152,2.6745,2.6591,2.6591,2.6591,2.6463,2.6297,2.6094,2.5728,2.5324,2.4884,2.5012,2.5352,2.5352,2.5889,2.6347,2.5615,2.6031,2.6608,2.612,2.6592,2.7153,2.7095,2.7537,2.7616,2.6439,2.5232,2.3565,2.0859,1.9245,1.7674,1.5508,1.504,1.481,1.4321,1.4166,1.4109,1.4109,1.4109,1.4109,1.4109,1.4109,1.4109,1.4109,1.4109,1.4109,1.4109,1.4109,1.4109,1.4109,1.4109,1.4109,1.4109,1.4109,1.4109,1.4109,1.4109,1.4334,1.4803,1.5214,1.5904,2.6792,2.6792,2.6792,2.6792,2.6792,2.6792,0.0,0.0,0.0,0.0,0.0,0.0,0.0,0.0,0.0,0.0,0.0,0.0,0.0,0.0,0.0,0.0,0.0,0.0,3.148,2.9759,2.8468,2.8318,2.7985,2.7761,2.7692,2.7314,2.6924,2.6494,2.6426,2.6211,2.5815,2.5747,2.5693,2.5693,2.5693,2.5693,2.5693,2.5693,2.5952,2.6406,2.6836,2.724,2.7617,2.7449,2.7377,2.7296,2.68,2.6591,2.6582,2.6545,2.6297,2.5967,2.5847,2.5627,2.5388,2.5324,2.5618,2.6012,2.6012,2.6325,2.6563,2.5866,2.6169,2.6618,2.627,2.6893,2.7577,2.7354,2.7893,2.8136,2.6881,2.5585,2.3681,2.0362,1.8527,1.6804,1.4487,1.4109,1.4109,1.4109,1.4109,1.4109,1.4109,1.4109,1.4109,1.4109,1.4109,1.4109,1.4109,1.4109,1.4109,1.4109,1.4109,1.4109,1.4109,1.4109,1.4109,1.4109,1.4109,1.4109,1.4109,1.4109,1.4109,1.413,1.4866,1.5248,2.6792,2.6792,2.6792,2.6792,2.6792,2.6792,0.0,0.0,0.0,0.0,0.0,0.0,0.0,0.0,0.0,0.0,0.0,0.0,0.0,0.0,0.0,0.0,0.0,3.234,3.1655,3.0416,2.9286,2.8371,2.8232,2.8073,2.7712,2.7624,2.7389,2.6934,2.6572,2.6357,2.6289,2.5893,2.5693,2.5693,2.5693,2.5693,2.5693,2.5693,2.5952,2.6406,2.6836,2.7117,2.7273,2.7359,2.7269,2.7016,2.6718,2.6591,2.6545,2.6215,2.604,2.5893,2.5223,2.5168,2.5343,2.5003,2.5388,2.6012,2.6012,2.6517,2.7086,2.6958,2.7013,2.7096,2.7031,2.739,2.7758,2.773,2.7813,2.7953,2.8071,2.6164,2.3811,2.1593,1.9234,1.6844,1.4499,1.4109,1.4109,1.4109,1.4109,1.4109,1.4109,1.4109,1.4109,1.4109,1.4109,1.4109,1.4109,1.4109,1.4109,1.4109,1.4109,1.4109,1.4109,1.4109,1.4109,1.4109,1.4109,1.4109,1.4109,1.4109,1.4109,1.4109,1.4229,1.4573,2.6792,2.6792,2.6967,2.7649,2.7315,2.6792,0.0,0.0,0.0,0.0,0.0,0.0,0.0,0.0,0.0,0.0,0.0,0.0,0.0,0.0,0.0,0.0,0.0,3.2134,3.1651,3.0037,2.883,2.8344,2.8291,2.8203,2.8044,2.8024,2.7839,2.7383,2.7203,2.6988,2.6728,2.6299,2.5942,2.5693,2.5693,2.5693,2.5693,2.5693,2.6069,2.6738,2.6934,2.7305,2.776,2.7508,2.7323,2.7188,2.6773,2.6472,2.6196,2.5581,2.5352,2.5297,2.4939,2.4929,2.5122,2.5361,2.5691,2.6068,2.6508,2.6912,2.7252,2.7463,2.7518,2.7518,2.7518,2.783,2.7951,2.722,2.7205,2.7211,2.6671,2.5052,2.3048,2.0894,1.8923,1.684,1.4489,1.4109,1.4109,1.4109,1.4109,1.4109,1.4109,1.4109,1.4109,1.4109,1.4109,1.4109,1.4109,1.4109,1.4109,1.4109,1.4109,1.4109,1.4109,1.4109,1.4109,1.4109,1.4109,1.4109,1.4109,1.3955,1.3885,1.3885,1.3758,1.3878,2.6792,2.6792,2.7097,0.0,0.0,0.0,0.0,0.0,0.0,0.0,0.0,0.0,0.0,0.0,0.0,0.0,0.0,0.0,0.0,0.0,3.3489,3.4667,3.3126,3.188,3.1626,2.9838,2.8575,2.8318,2.8291,2.8291,2.8291,2.8291,2.8171,2.7848,2.7741,2.7536,2.7168,2.6748,2.6318,2.5864,2.5757,2.5693,2.5693,2.5693,2.6176,2.6986,2.6986,2.75,2.8237,2.7647,2.7348,2.7209,2.6679,2.6159,2.5636,2.503,2.481,2.481,2.481,2.4929,2.5186,2.5792,2.614,2.6389,2.7013,2.7334,2.7555,2.7858,2.8014,2.8059,2.7968,2.8011,2.7803,2.6784,2.655,2.6255,2.5209,2.4,2.2494,2.0407,1.8691,1.6953,1.485,1.429,1.4109,1.4109,1.4109,1.4109,1.4109,1.4109,1.4109,1.4109,1.4109,1.4109,1.4109,1.4109,1.4109,1.4109,1.4109,1.4109,1.4109,1.4109,1.4109,1.4109,1.4109,1.4067,1.4018,1.38,1.3673,1.3631,1.3462,1.3377,2.6792,2.6792,2.7097,2.8375,0.0,0.0,0.0,0.0,0.0,0.0,0.0,0.0,0.0,0.0,0.0,0.0,0.0,0.0,0.0,0.0,3.4679,3.4787,3.3783,3.2689,3.1702,3.0494,2.9365,2.8371,2.8291,2.8291,2.8291,2.8291,2.8281,2.8252,2.7897,2.7673,2.7643,2.7187,2.6758,2.6338,2.5913,2.5693,2.5693,2.5693,2.6176,2.6986,2.6986,2.75,2.8237,2.7647,2.7177,2.6784,2.6244,2.5563,2.4884,2.4829,2.481,2.481,2.481,2.5287,2.5912,2.5967,2.6499,2.7132,2.7187,2.771,2.8315,2.8342,2.8618,2.884,2.8443,2.7733,2.7069,2.697,2.6017,2.5117,2.5025,2.4,2.2728,2.1427,1.9247,1.7181,1.5895,1.4803,1.4109,1.4109,1.4109,1.4109,1.4109,1.4109,1.4109,1.4109,1.4109,1.4109,1.4109,1.4109,1.4109,1.4109,1.4109,1.4109,1.4109,1.4109,1.4109,1.4109,1.4109,1.3976,1.3737,1.3716,1.361,1.3413,1.3419,1.3307,2.6792,2.6792,2.73,2.9377,0.0,0.0,0.0,0.0,0.0,0.0,0.0,0.0,0.0,0.0,0.0,0.0,0.0,0.0,3.4775,3.4799,3.4799,3.4799,3.325,3.2058,3.1651,2.9958,2.8724,2.8318,2.8291,2.8291,2.8291,2.8291,2.8291,2.8291,2.8135,2.8083,2.8083,2.7663,2.736,2.7203,2.6738,2.6508,2.6498,2.626,2.6611,2.7428,2.7139,2.7266,2.7656,2.7488,2.7051,2.6525,2.6145,2.5801,2.5508,2.526,2.5168,2.5214,2.5453,2.5912,2.6416,2.6664,2.7123,2.7619,2.7885,2.815,2.8443,2.8691,2.8865,2.8948,2.8801,2.7887,2.6801,2.5942,2.4771,2.3605,2.2748,2.2191,2.1517,2.0333,1.8748,1.7208,1.6008,1.4856,1.4109,1.4109,1.4109,1.4109,1.4109,1.4109,1.4109,1.4109,1.4109,1.4109,1.4109,1.4109,1.4109,1.4109,1.4109,1.4109,1.4109,1.4109,1.4109,1.4109,1.4109,1.4039,1.3955,1.3779,1.3652,1.3589,1.3328,1.3164,2.6792,2.6792,2.7288,0.0,0.0,0.0,0.0,0.0,0.0,0.0,0.0,0.0,0.0,0.0,0.0,0.0,0.0,3.4799,3.4799,3.4799,3.4799,3.4799,3.3201,3.1982,3.1626,2.9906,2.8644,2.8318,2.8291,2.8291,2.8291,2.8291,2.8291,2.8291,2.8291,2.8291,2.8291,2.8034,2.7888,2.7888,2.7559,2.7275,2.6976,2.6719,2.7008,2.7673,2.7353,2.7435,2.7784,2.7642,2.7216,2.6631,2.6313,2.6187,2.615,2.5884,2.5857,2.6013,2.6279,2.6637,2.7031,2.7298,2.7665,2.8041,2.8306,2.848,2.8636,2.8911,2.9014,2.9014,2.9014,2.7693,2.6125,2.5209,2.3698,2.2215,2.1292,2.1109,2.0875,2.0104,1.8878,1.7662,1.6573,1.5337,1.443,1.415,1.4109,1.4109,1.4109,1.4109,1.4109,1.4109,1.4109,1.4109,1.4109,1.4109,1.4109,1.4109,1.4109,1.4109,1.4109,1.4109,1.4109,1.4109,1.4109,1.4067,1.3976,1.3737,1.3561,1.3504,1.3137,1.2966,2.6792,2.6807,0.0,0.0,0.0,0.0,0.0,0.0,0.0,0.0,0.0,0.0,0.0,0.0,0.0,0.0,3.3871,3.4799,3.4799,3.4799,3.4799,3.4799,3.3857,3.2775,3.1702,3.0572,2.9471,2.8371,2.8291,2.8291,2.8291,2.8291,2.8291,2.8291,2.8291,2.8291,2.8291,2.8291,2.8291,2.8291,2.8291,2.7851,2.6996,2.7021,2.7256,2.7702,2.7692,2.8135,2.8834,2.823,2.7687,2.7169,2.6784,2.66,2.66,2.66,2.6875,2.7215,2.7215,2.7472,2.7802,2.7802,2.8087,2.8397,2.8397,2.8673,2.9014,2.9014,2.9014,2.9014,2.9014,2.7013,2.5025,2.4994,2.299,2.1109,2.1109,2.1109,2.1109,2.1109,1.9897,1.8609,1.7736,1.6391,1.5097,1.4236,1.4109,1.4109,1.4109,1.4109,1.4109,1.4109,1.4109,1.4109,1.4109,1.4109,1.4109,1.4109,1.4109,1.4109,1.4109,1.4109,1.4109,1.4109,1.4109,1.3976,1.3695,1.3504,1.3307,1.3094,1.2833,1.2705,2.6792,0.0,0.0,0.0,0.0,0.0,0.0,0.0,0.0,0.0,0.0,0.0,0.0,0.0,0.0,3.2569,3.3825,3.4799,3.4799,3.4799,3.4799,3.4799,3.3857,3.2775,3.1702,3.0572,2.9471,2.8371,2.8291,2.8291,2.8291,2.8291,2.8291,2.8291,2.8291,2.8291,2.8291,2.8291,2.8291,2.8291,2.8291,2.8154,2.79,2.7607,2.7731,2.8112,2.7819,2.7767,2.782,2.7548,2.7502,2.761,2.749,2.7444,2.7444,2.7444,2.7518,2.7619,2.7619,2.7894,2.8205,2.8205,2.848,2.881,2.881,2.8922,2.9014,2.9014,2.9014,2.9014,2.9014,2.7723,2.6156,2.5209,2.299,2.1109,2.1109,2.1109,2.1109,2.1109,1.9897,1.8609,1.7736,1.6391,1.5097,1.4236,1.4109,1.4109,1.4109,1.4109,1.4109,1.4109,1.4109,1.4109,1.4109,1.4109,1.4109,1.4109,1.4109,1.4109,1.4109,1.4109,1.4109,1.4109,1.3913,1.3779,1.3695,1.3504,1.3377,1.3307,1.3073,1.2988,2.7911,0.0,0.0,0.0,0.0,0.0,0.0,0.0,0.0,0.0,0.0,0.0,0.0,0.0,0.0,3.3428,3.4186,3.4799,3.4799,3.4799,3.4799,3.4799,3.4213,3.325,3.1753,3.0985,2.9932,2.8415,2.8291,2.8291,2.8291,2.8291,2.8291,2.8291,2.8291,2.8291,2.8291,2.8291,2.8291,2.8291,2.8291,2.8291,2.8281,2.8054,2.8171,2.8545,2.8534,2.8391,2.8152,2.8116,2.8174,2.828,2.828,2.828,2.828,2.828,2.828,2.828,2.828,2.8445,2.8627,2.8627,2.8792,2.9014,2.9014,2.9014,2.9014,2.9014,2.9014,2.9014,2.9014,2.8002,2.665,2.5331,2.3419,2.1758,2.1235,2.1109,2.1109,2.1109,2.0301,1.9339,1.8471,1.7462,1.6339,1.4983,1.4382,1.4109,1.4109,1.4109,1.4109,1.4109,1.4109,1.4109,1.4109,1.4109,1.4109,1.4109,1.4109,1.4039,1.3955,1.3934,1.3934,1.3934,1.3695,1.3589,1.3589,1.3377,1.3285,1.3285,1.3052,1.2945,0.0,0.0,0.0,0.0,0.0,0.0,0.0,0.0,0.0,0.0,0.0,0.0,0.0,0.0,3.5078,3.4823,3.4799,3.4799,3.4799,3.4799,3.4799,3.4799,3.4799,3.3967,3.1804,3.16,3.0675,2.8478,2.8291,2.8291,2.8291,2.8291,2.8291,2.8291,2.8291,2.8291,2.8291,2.8291,2.8291,2.8291,2.8291,2.8291,2.8291,2.8291,2.8525,2.8937,2.9505,2.9575,2.9325,2.9399,2.9272,2.9014,2.9014,2.9014,2.9014,2.9014,2.9014,2.9014,2.9014,2.9014,2.9014,2.9014,2.9014,2.9014,2.9014,2.9014,2.9014,2.9014,2.9014,2.9005,2.8938,2.7949,2.6621,2.5243,2.3985,2.274,2.1387,2.1109,2.1109,2.1109,2.0875,2.0425,1.9548,1.9118,1.8196,1.6115,1.4836,1.4109,1.4109,1.4109,1.4109,1.4109,1.4109,1.4109,1.4109,1.4109,1.4088,1.4067,1.4067,1.3955,1.3673,1.3695,1.3695,1.3673,1.3476,1.3377,1.3377,1.3158,1.3052,1.3052,1.2811,1.2705,0.0,0.0,0.0,0.0,0.0,0.0,0.0,0.0,0.0,0.0,0.0,0.0,0.0,3.5523,3.4884,3.4799,3.4799,3.4799,3.4799,3.4799,3.4799,3.4799,3.4799,3.3967,3.1804,3.16,3.0675,2.8478,2.8291,2.8291,2.8291,2.8291,2.8291,2.8291,2.8291,2.8291,2.8291,2.8291,2.8291,2.8291,2.8291,2.8291,2.8291,2.8291,2.8525,2.891,2.9259,2.9373,2.9296,2.9173,2.9073,2.9014,2.9014,2.9014,2.9014,2.9014,2.9014,2.9014,2.9014,2.9014,2.9014,2.9014,2.9014,2.9014,2.9014,2.9014,2.9014,2.9014,2.9014,2.8941,2.8599,2.7618,2.6262,2.462,2.3642,2.274,2.1387,2.1109,2.1109,2.1109,2.0875,2.0425,1.9548,1.9118,1.8196,1.6115,1.4836,1.4109,1.4109,1.4109,1.4109,1.4109,1.4109,1.4109,1.4109,1.4109,1.4018,1.3807,1.3779,1.3695,1.3462,1.3631,1.3631,1.3462,1.3264,1.3158,1.3158,1.2903,1.279,1.2769,1.2726,1.2705,0.0,0.0,0.0,0.0,0.0,0.0,0.0,0.0,0.0,0.0,0.0,0.0,0.0,3.5235,3.4799,3.4799,3.4799,3.4799,3.4799,3.4799,3.4799,3.4799,3.4799,3.3967,3.1804,3.16,3.0675,2.8478,2.8291,2.8291,2.8291,2.8291,2.8291,2.8291,2.8291,2.8291,2.8291,2.8291,2.8291,2.8291,2.8291,2.8398,2.8603,2.8809,2.8941,2.9038,2.9412,2.9512,2.9385,2.91,2.9014,2.9014,2.9014,2.9014,2.9014,2.9014,2.9014,2.9014,2.9014,2.9014,2.9014,2.9014,2.9014,2.9014,2.9014,2.9014,2.9014,2.9014,2.8847,2.8654,2.8443,2.7797,2.6679,2.4668,2.3498,2.251,2.1177,2.1009,2.1109,2.1109,2.0989,2.0735,2.0281,1.9492,1.8336,1.6714,1.5464,1.4563,1.4142,1.4109,1.4109,1.4109,1.4109,1.4109,1.4109,1.4109,1.3997,1.3716,1.3695,1.3561,1.3264,1.3349,1.3349,1.327,1.303,1.2903,1.2903,1.2769,1.2705,1.2705,1.2705,1.2705,0.0,0.0,0.0,0.0,0.0,0.0,0.0,0.0,0.0,0.0,0.0,0.0,3.515,3.4799,3.4799,3.4799,3.4799,3.4799,3.4799,3.4799,3.4799,3.4799,3.4799,3.3967,3.1804,3.16,3.0675,2.8478,2.8291,2.8291,2.8291,2.8291,2.8291,2.8291,2.8291,2.8291,2.8291,2.8291,2.8291,2.8291,2.8291,2.8516,2.8908,2.9319,2.9413,2.9257,2.9649,2.9715,2.9479,2.9133,2.9014,2.9014,2.9014,2.9014,2.9014,2.9014,2.9014,2.9014,2.9014,2.9014,2.9014,2.9014,2.9014,2.9014,2.9014,2.9014,2.9014,2.9014,2.87,2.8379,2.8306,2.7852,2.6862,2.4744,2.3331,2.2184,2.1032,2.0942,2.1109,2.1109,2.1069,2.1036,2.1036,1.982,1.8464,1.7373,1.617,1.5084,1.4202,1.4109,1.4109,1.4109,1.4109,1.4109,1.4109,1.4067,1.3913,1.3652,1.3631,1.344,1.3052,1.303,1.303,1.303,1.2811,1.2705,1.2705,1.2705,1.2705,1.2705,1.2705,1.2705,0.0,0.0,0.0,0.0,0.0,0.0,0.0,0.0,0.0,0.0,0.0,3.6707,3.5102,3.4799,3.4799,3.4799,3.4799,3.4799,3.4799,3.4799,3.4799,3.4799,3.4799,3.3967,3.1804,3.16,3.0675,2.8478,2.8291,2.8291,2.8291,2.8291,2.8291,2.8291,2.8291,2.8291,2.8291,2.8291,2.8291,2.8291,2.8291,2.8516,2.8908,2.9097,2.9352,2.9709,2.9596,2.9529,2.9479,2.9133,2.9014,2.9014,2.9014,2.9014,2.9014,2.9014,2.9014,2.9014,2.9014,2.9014,2.9014,2.9014,2.9014,2.9014,2.9014,2.9014,2.9014,2.9014,2.87,2.8315,2.7968,2.6818,2.5355,2.3878,2.2799,2.1891,2.1186,2.1082,2.1109,2.1109,2.0909,2.0766,2.0766,1.9519,1.8257,1.7347,1.617,1.5084,1.4202,1.4109,1.4109,1.4109,1.4109,1.4109,1.4109,1.3891,1.3652,1.3455,1.3285,1.3052,1.2769,1.2747,1.2747,1.2747,1.2726,1.2705,1.2705,1.2705,1.2705,1.2705,1.2705,1.2705,0.0,0.0,0.0,0.0,0.0,0.0,0.0,0.0,0.0,0.0,3.6941,3.6143,3.5017,3.4799,3.4799,3.4799,3.4799,3.4799,3.4799,3.4799,3.4799,3.4799,3.4799,3.4189,3.265,3.1957,3.0933,2.9313,2.8654,2.8291,2.8291,2.8291,2.8291,2.8291,2.8291,2.8291,2.8291,2.8291,2.8291,2.8291,2.8291,2.8643,2.9287,2.9148,2.9249,2.9508,2.9507,2.9381,2.9213,2.9064,2.9014,2.9014,2.9014,2.9014,2.9014,2.9014,2.9014,2.9014,2.9014,2.9014,2.9014,2.9014,2.9014,2.9014,2.9014,2.9014,2.9014,2.9014,2.87,2.8352,2.8197,2.743,2.6448,2.534,2.4203,2.3135,2.2391,2.1632,2.1062,2.0902,2.0793,2.0599,2.0241,1.9653,1.8698,1.716,1.646,1.5638,1.4262,1.4109,1.4109,1.4109,1.4109,1.4109,1.4109,1.3843,1.361,1.3419,1.32,1.2988,1.2705,1.2705,1.2705,1.2705,1.2705,1.2705,1.2705,1.2705,1.2705,1.2705,1.2705,1.2705,0.0,0.0,0.0,0.0,0.0,0.0,0.0,0.0,0.0,0.0,3.6974,3.5977,3.4993,3.4799,3.4799,3.4799,3.4799,3.4799,3.4799,3.4799,3.4799,3.4799,3.4799,3.4372,3.33,3.2235,3.1139,3.0,2.89,2.8291,2.8291,2.8291,2.8291,2.8291,2.8291,2.8291,2.8291,2.8291,2.8291,2.8291,2.8291,2.8713,2.9458,2.9122,2.9108,2.937,2.9466,2.9302,2.9014,2.9014,2.9014,2.9014,2.9014,2.9014,2.9014,2.9014,2.9014,2.9014,2.9014,2.9014,2.9014,2.9014,2.9014,2.9014,2.9014,2.9014,2.9014,2.9014,2.87,2.8397,2.8397,2.8105,2.757,2.661,2.5383,2.4067,2.2855,2.1759,2.0935,2.0753,2.0585,2.0314,1.988,1.974,1.9085,1.7308,1.6847,1.6152,1.4638,1.425,1.4109,1.4109,1.4109,1.4109,1.4109,1.3843,1.3652,1.3483,1.3243,1.3009,1.2811,1.2747,1.2705,1.2705,1.2705,1.2705,1.2705,1.2705,1.2705,1.2705,1.2705,1.2705,0.0,0.0,0.0,0.0,0.0,0.0,0.0,0.0,0.0,0.0,3.7392,3.6566,3.509,3.4799,3.4799,3.4799,3.4799,3.4799,3.4799,3.4799,3.4799,3.4799,3.4799,3.4372,3.33,3.2235,3.1139,3.0,2.89,2.8291,2.8291,2.8291,2.8291,2.8291,2.8291,2.8291,2.8291,2.8291,2.8291,2.8291,2.8291,2.8577,2.9094,2.8766,2.8954,2.9501,2.9499,2.9302,2.9014,2.9014,2.9014,2.9014,2.9014,2.9014,2.9014,2.9014,2.9014,2.9014,2.9014,2.9014,2.9014,2.9014,2.9014,2.9014,2.9014,2.9014,2.9014,2.9014,2.87,2.8397,2.8397,2.8105,2.757,2.661,2.5383,2.3824,2.1658,2.0958,2.0726,2.0712,2.0227,1.984,1.9806,1.9602,1.9087,1.809,1.7241,1.6373,1.5444,1.4603,1.4109,1.4109,1.4109,1.4109,1.4109,1.3843,1.3695,1.3695,1.3313,1.3094,1.3079,1.2839,1.2705,1.2705,1.2705,1.2705,1.2705,1.2705,1.2705,1.2705,1.2705,1.2705,0.0,0.0,0.0,0.0,0.0,0.0,0.0,0.0,0.0,3.8737,3.7171,3.5619,3.5584,3.5163,3.4799,3.4799,3.4799,3.4799,3.4799,3.4799,3.4799,3.4799,3.4799,3.4653,3.4274,3.2639,3.1421,3.1036,2.9323,2.8291,2.8291,2.8291,2.8291,2.8291,2.8291,2.8291,2.8291,2.8291,2.8291,2.8291,2.8291,2.8686,2.9402,2.9076,2.9222,2.9745,2.9558,2.9302,2.9014,2.9014,2.9014,2.9014,2.9014,2.9014,2.9014,2.9014,2.9014,2.9014,2.9014,2.9014,2.9014,2.9014,2.9014,2.9014,2.9014,2.9014,2.9014,2.9014,2.8913,2.8803,2.8803,2.8693,2.8063,2.5984,2.5131,2.4101,2.1643,2.0882,2.0592,2.0187,1.994,1.974,1.9582,1.9461,1.896,1.7682,1.7214,1.6565,1.53,1.4865,1.4598,1.4389,1.4362,1.4289,1.4102,1.3737,1.3498,1.3498,1.3094,1.2833,1.2833,1.2747,1.2705,1.2705,1.2705,1.2705,1.2705,1.2705,1.2705,1.2705,1.2705,1.2705,0.0,0.0,0.0,0.0,0.0,0.0,0.0,0.0,0.0,3.9134,3.7461,3.5655,3.5942,3.5343,3.4799,3.4799,3.4799,3.4799,3.4799,3.4799,3.4799,3.4799,3.4799,3.4799,3.4799,3.2864,3.16,3.16,2.9549,2.8291,2.8291,2.8291,2.8291,2.8291,2.8291,2.8291,2.8291,2.8291,2.8291,2.8291,2.8437,2.8822,2.944,2.9361,2.9499,2.9774,2.9597,2.9302,2.9014,2.9014,2.9014,2.9014,2.9014,2.9014,2.9014,2.9014,2.9014,2.9014,2.9014,2.9014,2.9014,2.9014,2.9014,2.9014,2.9014,2.9014,2.9014,2.9014,2.9014,2.9014,2.9014,2.9014,2.8331,2.5637,2.4938,2.4116,2.1389,2.0742,2.0592,2.0167,1.9933,1.9773,1.9673,1.9579,1.9241,1.8344,1.7702,1.6966,1.5989,1.5354,1.4912,1.4689,1.4583,1.4421,1.4249,1.3774,1.3504,1.3504,1.3073,1.2833,1.2833,1.2747,1.2705,1.2705,1.2705,1.2705,1.2705,1.2705,1.2705,1.2705,1.2705,1.2705,0.0,0.0,0.0,0.0,0.0,0.0,0.0,0.0,3.7634,3.9217,3.8225,3.6851,3.6156,3.5367,3.4799,3.4799,3.4799,3.4799,3.4799,3.4799,3.4799,3.4799,3.4799,3.4799,3.4799,3.2864,3.16,3.1651,2.9576,2.8318,2.8344,2.8318,2.8291,2.8291,2.8318,2.8318,2.8291,2.8318,2.8318,2.8301,2.8721,2.8985,2.9113,2.9574,2.9679,2.9499,2.9479,2.9302,2.9014,2.9014,2.9014,2.9014,2.9014,2.9014,2.9014,2.9014,2.9014,2.9014,2.9014,2.9014,2.9014,2.9014,2.9014,2.9014,2.9014,2.9014,2.9014,2.9014,2.9005,2.8996,2.8977,2.8977,2.8304,2.5635,2.48,2.3806,2.0887,2.0492,2.0692,2.0672,2.0217,1.9887,2.0144,1.9993,1.99,2.0137,1.8718,1.7615,1.7595,1.6083,1.5028,1.4999,1.471,1.4507,1.4494,1.3992,1.3695,1.3673,1.3307,1.3094,1.3094,1.2839,1.2705,1.2705,1.2705,1.2705,1.2705,1.2705,1.2705,1.2705,1.2705,1.2705,2.8346,0.0,0.0,0.0,0.0,0.0,0.0,0.0,0.0,3.7497,3.7054,3.6403,3.672,3.5691,3.4799,3.4799,3.4799,3.4799,3.4799,3.4799,3.4799,3.4799,3.4799,3.4799,3.4799,3.2864,3.1906,0.0,2.9984,2.8654,2.9418,2.8724,2.8291,2.8291,2.9059,2.9085,2.8318,2.9085,2.9085,2.8301,2.8721,2.8985,2.9113,2.9317,2.9446,2.9479,2.9242,2.9103,2.9014,2.9014,2.9014,2.9014,2.9014,2.9014,2.9014,2.9014,2.9014,2.9014,2.9014,2.9014,2.9014,2.9014,2.9014,2.9014,2.9014,2.9014,2.9014,2.9014,2.8783,2.8489,2.8215,2.8133,2.771,2.5986,2.4872,2.3682,2.1908,2.0887,2.0234,1.9843,1.9766,1.9826,1.9907,1.9997,1.997,1.9659,1.8631,1.7742,1.7347,1.631,1.5504,1.5297,1.5039,1.4705,1.4318,1.3793,1.3413,1.3285,1.2982,1.2811,1.2811,1.2747,1.2705,1.2705,1.2705,1.2705,1.2705,1.2705,1.2705,1.2705,1.2705,1.2705,0.0,0.0,0.0,0.0,0.0,0.0,3.253,3.365,3.4996,0.0,3.689,3.6347,3.7239,3.5626,3.4302,3.4715,3.4799,3.4799,3.4799,3.4799,3.4799,3.4799,3.4799,3.4799,3.4799,3.325,3.2538,3.3151,3.1011,2.9749,2.9896,2.9749,2.9471,2.8979,2.9565,2.9592,2.8979,2.9128,2.8926,2.8301,2.877,2.9021,2.9123,2.9412,2.9519,2.9479,2.9302,2.9124,2.9014,2.9014,2.9014,2.9014,2.9014,2.9014,2.9014,2.9014,2.9014,2.9014,2.9014,2.9014,2.9014,2.9014,2.9014,2.9014,2.9014,2.8865,2.8737,2.8737,2.8472,2.8105,2.7858,2.7793,2.747,2.6114,2.4791,2.3464,2.2127,2.0804,1.988,1.9936,1.9953,2.006,2.0307,2.0388,2.0347,2.0127,1.9332,1.8637,1.8324,1.7488,1.6734,1.621,1.5889,1.5332,1.4446,1.3881,1.3433,1.3128,1.2854,1.2705,1.2705,1.2705,1.2705,1.2705,1.2705,1.2705,1.2705,1.2705,1.2705,1.2705,1.2705,1.2705,0.0,0.0,0.0,0.0,0.0,0.0,3.2663,3.4019,3.539,3.728,3.6677,3.605,3.6907,3.4806,3.3246,3.4137,3.4426,3.4607,3.4787,3.4799,3.4799,3.4799,3.4799,3.4799,3.4799,3.3844,3.325,3.3375,3.2387,3.1293,3.0156,3.1062,3.1139,3.013,3.0208,3.0146,2.9896,2.9085,2.8578,2.8369,2.8858,2.9123,2.9143,2.962,2.9715,2.944,2.944,2.9272,2.9014,2.9014,2.9014,2.9014,2.9014,2.9014,2.9014,2.9014,2.9014,2.9014,2.9014,2.9014,2.9014,2.9014,2.8977,2.892,2.892,2.8645,2.8315,2.8269,2.8023,2.772,2.7674,2.7665,2.7372,2.6165,2.4782,2.337,2.2057,2.0633,1.9829,2.0498,2.0414,2.0377,2.0962,2.0875,2.0846,2.1069,2.0361,1.98,1.98,1.9032,1.8177,1.73,1.6854,1.6047,1.4682,1.4049,1.3522,1.3091,1.2833,1.2705,1.2705,1.2705,1.2705,1.2705,1.2705,1.2705,1.2705,1.2705,1.2705,1.2705,1.2705,1.2705,0.0,0.0,0.0,0.0,0.0,0.0,3.0722,3.2062,3.3107,3.2571,3.2858,3.308,3.2586,3.1531,3.08,3.0985,3.2106,3.3369,3.4631,3.4799,3.4799,3.4799,3.4799,3.4799,3.4799,3.3844,3.356,3.4421,3.3486,3.2412,3.1319,3.1472,3.1498,3.1268,3.2109,3.1691,2.9922,3.0598,3.0213,2.8781,2.8993,2.9173,2.9269,2.949,2.939,2.9103,2.9103,2.9064,2.9014,2.9014,2.9014,2.9014,2.9014,2.9014,2.9014,2.9014,2.9014,2.9014,2.9014,2.9014,2.9014,2.9014,2.8764,2.8507,2.8507,2.8243,2.7848,2.7536,2.7389,2.7243,2.693,2.682,2.6765,2.6508,2.5478,2.4239,2.2993,2.1906,2.0996,2.0416,2.0244,2.0317,2.0702,2.0909,2.1042,2.1102,2.0361,1.98,1.98,1.9032,1.8177,1.73,1.6517,1.5606,1.4466,1.3679,1.3107,1.2796,1.2726,1.2705,1.2705,1.2705,1.2705,1.2705,1.2705,1.2705,1.2705,1.2705,1.2705,1.2705,1.2705,1.2705,0.0,0.0,0.0,3.0525,0.0,0.0,0.0,3.1808,3.2928,3.2168,3.2019,3.2031,3.1956,3.0503,2.9484,3.0016,3.1444,3.2767,3.3537,3.4318,3.4799,3.4799,3.4799,3.4799,3.4799,3.4311,3.4225,3.475,3.4299,3.3535,3.2462,3.2901,3.2951,3.2412,3.2926,3.2664,3.1564,3.1036,3.0412,2.9749,2.9133,2.9022,2.9306,2.9273,2.9153,2.9014,2.9014,2.9014,2.9014,2.9014,2.8865,2.8709,2.8911,2.9014,2.9014,2.9014,2.9014,2.9014,2.9014,2.8886,2.8691,2.8691,2.8445,2.8105,2.8105,2.7821,2.7417,2.7022,2.6912,2.6839,2.6637,2.6591,2.6591,2.6591,2.5688,2.4473,2.3255,2.215,2.1154,2.0352,2.0204,2.0344,2.0815,2.1009,2.1109,2.1109,2.0735,2.0454,2.0454,2.0067,1.9401,1.8376,1.739,1.6225,1.4825,1.3839,1.313,1.2732,1.2705,1.2705,1.2705,1.2705,1.2705,1.2705,1.2705,1.2705,1.2705,1.2705,1.2705,1.2705,1.2705,1.2705,0.0,0.0,0.0,0.0,0.0,3.0598,0.0,0.0,0.0,0.0,0.0,0.0,0.0,0.0,0.0,0.0,0.0,0.0,0.0,3.29,0.0,3.4739,3.4631,3.4547,3.4643,3.4559,3.4547,3.4643,3.4655,3.4314,3.3549,3.4323,3.4397,3.3535,3.3511,3.3411,3.3201,3.1436,3.0611,3.0696,2.9551,2.9136,2.9419,2.9192,2.9064,2.9014,2.9014,2.9014,2.8975,2.8931,2.8682,2.8425,2.8746,2.8849,2.8775,2.8775,2.8775,2.8775,2.8775,2.8573,2.8269,2.8269,2.8023,2.7665,2.7591,2.7343,2.7022,2.6683,2.6591,2.6591,2.6591,2.6591,2.6591,2.6591,2.5688,2.4473,2.3255,2.2095,2.1046,2.0264,2.021,2.0457,2.1015,2.1109,2.1109,2.1109,2.1109,2.1109,2.1109,2.1046,2.0537,1.9337,1.816,1.6792,1.5158,1.3983,1.3151,1.2738,1.2705,1.2705,1.2705,1.2705,1.2705,1.2705,1.2705,1.2705,1.2705,1.2705,1.2705,1.2705,1.2705,1.2705,0.0,0.0,0.0,0.0,3.0598,0.0,0.0,0.0,0.0,2.8885,0.0,0.0,0.0,0.0,0.0,0.0,0.0,0.0,2.825,2.9629,3.1673,3.4475,3.4018,3.3633,3.4042,3.3705,3.3645,3.4054,3.4078,3.4258,3.4605,3.4726,3.475,3.4628,3.4628,3.4164,3.3201,3.2951,3.2244,3.1123,3.0682,3.0234,2.9826,2.9569,2.9272,2.9014,2.9014,2.9014,2.8957,2.8638,2.8434,2.8397,2.8443,2.8261,2.7931,2.7931,2.7931,2.7931,2.7931,2.7903,2.7867,2.7867,2.7591,2.7206,2.683,2.6692,2.6646,2.66,2.6591,2.6591,2.6591,2.6591,2.6591,2.6591,2.5688,2.4473,2.3255,2.2249,2.1211,2.0071,2.0274,2.0728,2.1056,2.1109,2.1109,2.1109,2.1109,2.1109,2.1109,2.0824,2.0209,1.908,1.7495,1.6063,1.4854,1.3548,1.2756,1.2705,1.2705,1.2705,1.2705,1.2705,1.2705,1.2705,1.2705,1.2705,1.2705,1.2705,1.2705,1.2705,1.2705,1.2705,0.0,0.0,0.0,0.0,0.0,0.0,3.0356,0.0,3.0037,0.0,0.0,0.0,0.0,0.0,0.0,0.0,2.664,0.0,0.0,0.0,3.0242,0.0,0.0,0.0,3.1721,3.2106,3.2453,3.2647,3.3248,3.3802,3.4318,3.4342,3.4487,3.4799,3.4799,3.458,3.414,3.3825,3.3495,3.3143,3.1646,3.0926,3.0908,2.9736,2.9124,2.9005,2.8737,2.8645,2.8608,2.8225,2.7922,2.7691,2.7691,2.7747,2.7793,2.7793,2.7793,2.7793,2.7793,2.7646,2.7417,2.7187,2.6995,2.6829,2.6637,2.6591,2.6591,2.6591,2.6591,2.6591,2.6591,2.6591,2.6591,2.6591,2.5688,2.4473,2.3255,2.2128,2.1061,1.9996,2.0,2.0261,2.0517,2.0882,2.1109,2.1109,2.0919,2.0799,2.0799,2.0513,2.0042,1.9371,1.7977,1.6625,1.548,1.4176,1.32,1.2735,1.2705,1.2705,1.2705,1.2705,1.2705,1.2705,1.2846,1.2924,1.293,1.3097,1.3153,1.3147,1.2997,1.2924,3.2165,0.0,0.0,0.0,0.0,0.0,0.0,0.0,0.0,0.0,0.0,0.0,0.0,0.0,0.0,0.0,0.0,2.7036,0.0,2.7697,0.0,0.0,0.0,0.0,0.0,3.0371,3.0997,3.1452,3.22,3.2984,3.3766,3.3814,3.4054,3.4571,3.4595,3.4655,3.4799,3.4484,3.4225,3.3975,3.2329,3.138,3.1062,2.9604,2.8908,2.8801,2.8397,2.8252,2.8187,2.7802,2.7463,2.7197,2.7086,2.7215,2.7472,2.7472,2.7472,2.7472,2.7472,2.7288,2.6995,2.6683,2.6591,2.6591,2.6591,2.6591,2.6591,2.6591,2.6591,2.6591,2.6591,2.6591,2.6537,2.619,2.5174,2.3991,2.2777,2.1574,2.0478,1.9692,1.968,1.9926,2.0284,2.0835,2.1264,2.1377,2.1076,2.0889,2.1007,2.0412,1.9846,1.9504,1.8351,1.7091,1.5888,1.4696,1.364,1.2759,1.2705,1.2705,1.2705,1.2777,1.2819,1.2819,1.3069,1.3208,1.3208,1.34,1.3491,1.3491,1.3298,1.3208,0.0,0.0,0.0,3.3385,0.0,0.0,0.0,0.0,2.9322,0.0,0.0,0.0,0.0,0.0,0.0,0.0,0.0,0.0,0.0,0.0,0.0,0.0,0.0,0.0,0.0,2.8595,2.9256,3.0804,3.0949,3.1671,3.3247,3.3308,3.3549,3.4006,3.4018,3.4258,3.4799,3.5055,3.4262,3.2486,3.2593,3.1558,2.9549,2.905,2.865,2.8388,2.7995,2.7812,2.7784,2.7389,2.7215,2.7169,2.6784,2.6646,2.6628,2.6628,2.6628,2.6628,2.6628,2.6619,2.6637,2.6591,2.6591,2.6591,2.6591,2.6591,2.6591,2.6591,2.6591,2.6591,2.6591,2.6591,2.6309,2.5146,2.3935,2.2728,2.1517,2.0299,1.9336,1.901,1.9387,1.9978,2.0592,2.1177,2.1736,2.2112,2.1779,2.1606,2.2006,2.0621,1.951,1.9249,1.8196,1.6964,1.5626,1.4757,1.3833,1.2771,1.2705,1.2705,1.2705,1.2942,1.3087,1.3087,1.3346,1.3479,1.3479,1.3491,1.3491,1.3491,1.3485,1.3479,0.0,0.0,3.3454,3.3225,0.0,0.0,0.0,0.0,0.0,0.0,0.0,0.0,0.0,0.0,0.0,0.0,0.0,0.0,0.0,0.0,0.0,0.0,0.0,0.0,0.0,0.0,2.7673,2.8202,2.8919,3.0001,3.1635,3.1719,3.2285,3.3501,3.385,3.4007,3.4054,3.4122,3.3734,3.2907,3.1556,3.0514,2.9781,2.8671,2.8081,2.7986,2.7582,2.7399,2.7371,2.6976,2.6811,2.6802,2.6637,2.6591,2.6591,2.6591,2.6591,2.6591,2.6591,2.6591,2.6591,2.6591,2.6591,2.6591,2.6591,2.6446,2.6272,2.6272,2.6272,2.6272,2.6272,2.6418,2.6309,2.5091,2.388,2.2608,2.1181,1.991,1.9236,1.9722,1.9978,2.0453,2.145,2.2272,2.2848,2.3021,2.1973,2.1314,2.1703,2.0303,1.9228,1.9142,1.8634,1.7623,1.5903,1.4214,1.3091,1.2729,1.288,1.2961,1.2961,1.3214,1.3358,1.3358,1.364,1.375,1.3773,1.3948,1.4032,1.4032,1.4032,1.3936,3.8362,3.6968,0.0,3.5275,3.3649,0.0,3.1999,0.0,0.0,0.0,0.0,0.0,0.0,0.0,0.0,0.0,0.0,0.0,0.0,2.5312,0.0,0.0,0.0,0.0,0.0,0.0,2.6496,2.6861,2.7541,2.8558,2.9965,3.0419,3.1178,3.2417,3.3116,3.3587,3.3792,3.3469,3.3053,3.2486,3.0822,2.9734,2.9176,2.808,2.7582,2.7564,2.7169,2.6995,2.6976,2.6719,2.6591,2.6591,2.6591,2.6591,2.6591,2.6591,2.6591,2.6591,2.6591,2.6527,2.6418,2.6418,2.6364,2.6272,2.6272,2.6136,2.6016,2.6266,2.6177,2.6025,2.6275,2.6315,2.5971,2.4778,2.388,2.2918,2.1523,2.0587,2.017,2.0666,2.0866,2.126,2.2248,2.2608,2.2816,2.3011,2.205,2.1296,2.1288,1.9986,1.911,1.911,1.8959,1.8028,1.6081,1.402,1.2828,1.2828,1.3087,1.3244,1.3244,1.3491,1.3701,1.3768,1.396,1.4093,1.4172,1.4262,1.4298,1.4298,1.4298,1.4208]}]]